[[{"header":{"parameterUnit":"m.s-1","parameterCategory":1,"la1":30.6,"la2":28.766,"lo1":-90.7593,"lo2":-88.6598,"dy":0.0162,"dx":0.0183,"nx":116,"ny":114,"refTime":"2024-05-03T12:00:00:Z","depth":0,"parameterNumber":2,"parameterNumberName":"U-component_of_WINDS"},"data":[0.0,0.0,0.0,0.0,0.0,0.0,0.0,0.0,0.0,0.0,0.0,0.0,0.0,0.0,0.0,0.0,0.0,0.0,0.0,0.0,0.0,0.0,0.0,0.0,0.0,0.0,0.0,0.0,0.0,0.0,0.0,0.0,0.0,0.0,0.0,0.0,0.0,0.0,0.0,0.0,0.0,0.0,0.0,0.0,0.0,0.0,0.0,0.0,0.0,0.0,0.0,0.0,0.0,0.0,0.0,0.0,0.0,0.0,0.0,0.0,0.0,0.0,0.0,0.0,0.0,0.0,0.0,0.0,0.0,0.0,0.0,0.0,0.0,0.0,0.0,0.0,0.0,0.0,0.0,0.0,0.0,0.0,0.0,0.0,0.0,0.0,0.0,0.0,0.0,0.0,0.0,0.0,0.0,0.0,0.0,0.0,0.0,0.0,0.0,0.0,0.0,0.0,0.0,0.0,0.0,0.0,0.0,0.0,0.0,0.0,0.0,0.0,0.0,0.0,0.0,0.0,0.0,0.0,0.0,0.0,0.0,0.0,0.0,0.0,0.0,0.0,0.0,0.0,0.0,0.0,0.0,0.0,0.0,0.0,0.0,0.0,0.0,0.0,0.0,0.0,0.0,0.0,0.0,0.0,0.0,0.0,0.0,0.0,0.0,0.0,0.0,0.0,0.0,0.0,0.0,0.0,0.0,0.0,0.0,0.0,0.0,0.0,0.0,0.0,0.0,0.0,0.0,0.0,0.0,0.0,0.0,0.0,0.0,0.0,0.0,0.0,0.0,0.0,0.0,0.0,0.0,0.0,0.0,0.0,0.0,0.0,0.0,0.0,0.0,0.0,0.0,0.0,0.0,0.0,0.0,0.0,0.0,0.0,0.0,0.0,0.0,0.0,0.0,0.0,0.0,0.0,0.0,0.0,0.0,0.0,0.0,0.0,0.0,0.0,0.0,0.0,0.0,0.0,0.0,0.0,0.0,0.0,0.0,0.0,0.0,0.0,0.0,0.0,0.0,0.0,0.0,0.0,0.0,0.0,0.0,0.0,0.0,0.0,0.0,0.0,0.0,0.0,0.0,0.0,0.0,0.0,0.0,0.0,0.0,0.0,0.0,0.0,0.0,0.0,0.0,0.0,0.0,0.0,0.0,0.0,0.0,0.0,0.0,0.0,0.0,0.0,0.0,0.0,0.0,0.0,0.0,0.0,0.0,0.0,0.0,0.0,0.0,0.0,0.0,0.0,0.0,0.0,0.0,0.0,0.0,0.0,0.0,0.0,0.0,0.0,0.0,0.0,0.0,0.0,0.0,0.0,0.0,0.0,0.0,0.0,0.0,0.0,0.0,0.0,0.0,0.0,0.0,0.0,0.0,0.0,0.0,0.0,0.0,0.0,0.0,0.0,0.0,0.0,0.0,0.0,0.0,0.0,0.0,0.0,0.0,0.0,0.0,0.0,0.0,0.0,0.0,0.0,0.0,0.0,0.0,0.0,0.0,0.0,0.0,0.0,0.0,0.0,0.0,0.0,0.0,0.0,0.0,0.0,0.0,0.0,0.0,0.0,0.0,0.0,0.0,0.0,0.0,0.0,0.0,0.0,0.0,0.0,0.0,0.0,0.0,0.0,0.0,0.0,0.0,0.0,0.0,0.0,0.0,0.0,0.0,0.0,0.0,0.0,0.0,0.0,0.0,0.0,0.0,0.0,0.0,0.0,0.0,0.0,0.0,0.0,0.0,0.0,0.0,0.0,0.0,0.0,0.0,0.0,0.0,0.0,0.0,0.0,0.0,0.0,0.0,0.0,0.0,0.0,0.0,0.0,0.0,0.0,0.0,0.0,0.0,0.0,0.0,0.0,0.0,0.0,0.0,0.0,0.0,0.0,0.0,0.0,0.0,0.0,0.0,0.0,0.0,0.0,0.0,0.0,0.0,0.0,0.0,0.0,0.0,0.0,0.0,0.0,0.0,0.0,0.0,0.0,0.0,0.0,0.0,0.0,0.0,0.0,0.0,0.0,0.0,0.0,0.0,0.0,0.0,0.0,0.0,0.0,0.0,0.0,0.0,0.0,0.0,0.0,0.0,0.0,0.0,0.0,0.0,0.0,0.0,0.0,0.0,0.0,0.0,0.0,0.0,0.0,0.0,0.0,0.0,0.0,0.0,0.0,0.0,0.0,0.0,0.0,0.0,0.0,0.0,0.0,0.0,0.0,0.0,0.0,0.0,0.0,0.0,0.0,0.0,0.0,0.0,0.0,0.0,0.0,0.0,0.0,0.0,0.0,0.0,0.0,0.0,0.0,0.0,0.0,0.0,0.0,0.0,0.0,0.0,0.0,0.0,0.0,0.0,0.0,0.0,0.0,0.0,0.0,0.0,0.0,0.0,0.0,0.0,0.0,0.0,0.0,0.0,0.0,0.0,0.0,0.0,0.0,0.0,0.0,0.0,0.0,0.0,0.0,0.0,0.0,0.0,0.0,0.0,0.0,0.0,0.0,0.0,0.0,0.0,0.0,0.0,0.0,0.0,0.0,0.0,0.0,0.0,0.0,0.0,0.0,0.0,0.0,0.0,0.0,0.0,0.0,0.0,0.0,0.0,0.0,0.0,0.0,0.0,0.0,0.0,0.0,0.0,0.0,0.0,0.0,0.0,0.0,0.0,0.0,0.0,0.0,0.0,0.0,0.0,0.0,0.0,0.0,0.0,0.0,0.0,0.0,0.0,0.0,0.0,0.0,0.0,0.0,0.0,0.0,0.0,0.0,0.0,0.0,0.0,0.0,0.0,0.0,0.0,0.0,0.0,0.0,0.0,0.0,0.0,0.0,0.0,0.0,0.0,0.0,0.0,0.0,0.0,0.0,0.0,0.0,0.0,0.0,0.0,0.0,0.0,0.0,0.0,0.0,0.0,0.0,0.0,0.0,0.0,0.0,0.0,0.0,0.0,0.0,0.0,0.0,0.0,0.0,0.0,0.0,0.0,0.0,0.0,0.0,0.0,0.0,0.0,0.0,0.0,0.0,0.0,0.0,0.0,0.0,0.0,0.0,0.0,0.0,0.0,0.0,0.0,0.0,0.0,0.0,0.0,0.0,0.0,0.0,0.0,0.0,0.0,0.0,0.0,0.0,0.0,0.0,0.0,0.0,0.0,0.0,0.0,0.0,0.0,0.0,0.0,0.0,0.0,0.0,0.0,0.0,0.0,0.0,0.0,0.0,0.0,0.0,0.0,0.0,0.0,0.0,0.0,0.0,0.0,0.0,0.0,0.0,0.0,0.0,0.0,0.0,0.0,0.0,0.0,0.0,0.0,0.0,0.0,0.0,0.0,0.0,0.0,0.0,0.0,0.0,0.0,0.0,0.0,0.0,0.0,0.0,0.0,0.0,0.0,0.0,0.0,0.0,0.0,0.0,0.0,0.0,0.0,0.0,0.0,0.0,0.0,0.0,0.0,0.0,0.0,0.0,0.0,0.0,0.0,0.0,0.0,0.0,0.0,0.0,0.0,0.0,0.0,0.0,0.0,0.0,0.0,0.0,0.0,0.0,0.0,0.0,0.0,0.0,0.0,0.0,0.0,0.0,0.0,0.0,0.0,0.0,0.0,0.0,0.0,0.0,0.0,0.0,0.0,0.0,0.0,0.0,0.0,0.0,0.0,0.0,0.0,0.0,0.0,0.0,0.0,0.0,0.0,0.0,0.0,0.0,0.0,0.0,0.0,0.0,0.0,0.0,0.0,0.0,0.0,0.0,0.0,0.0,0.0,0.0,0.0,0.0,0.0,0.0,0.0,0.0,0.0,0.0,0.0,0.0,0.0,0.0,0.0,0.0,0.0,0.0,0.0,0.0,0.0,0.0,0.0,0.0,0.0,0.0,0.0,0.0,0.0,0.0,0.0,0.0,0.0,0.0,0.0,0.0,0.0,0.0,0.0,0.0,0.0,0.0,0.0,0.0,0.0,0.0,0.0,0.0,0.0,0.0,0.0,0.0,0.0,0.0,0.0,0.0,0.0,0.0,0.0,0.0,0.0,0.0,0.0,0.0,0.0,0.0,0.0,0.0,0.0,0.0,0.0,0.0,0.0,0.0,0.0,0.0,0.0,0.0,0.0,0.0,0.0,0.0,0.0,0.0,0.0,0.0,0.0,0.0,0.0,0.0,0.0,0.0,0.0,0.0,0.0,0.0,0.0,0.0,0.0,0.0,0.0,0.0,0.0,0.0,0.0,0.0,0.0,0.0,0.0,0.0,0.0,0.0,0.0,0.0,0.0,0.0,0.0,0.0,0.0,0.0,0.0,0.0,0.0,0.0,0.0,0.0,0.0,0.0,0.0,0.0,0.0,0.0,0.0,0.0,0.0,0.0,0.0,0.0,0.0,0.0,0.0,0.0,0.0,0.0,0.0,0.0,0.0,0.0,0.0,0.0,0.0,0.0,0.0,0.0,0.0,0.0,0.0,0.0,0.0,0.0,0.0,0.0,0.0,0.0,0.0,0.0,0.0,0.0,0.0,0.0,0.0,0.0,0.0,0.0,0.0,0.0,0.0,0.0,0.0,0.0,0.0,0.0,0.0,0.0,0.0,0.0,0.0,0.0,0.0,0.0,0.0,0.0,0.0,0.0,0.0,0.0,0.0,0.0,0.0,0.0,0.0,0.0,0.0,0.0,0.0,0.0,0.0,0.0,0.0,0.0,0.0,0.0,0.0,0.0,0.0,0.0,0.0,0.0,0.0,0.0,0.0,0.0,0.0,0.0,0.0,0.0,0.0,0.0,0.0,0.0,0.0,0.0,0.0,0.0,0.0,0.0,0.0,0.0,0.0,0.0,0.0,0.0,0.0,0.0,0.0,0.0,0.0,0.0,0.0,0.0,0.0,0.0,0.0,0.0,0.0,0.0,0.0,0.0,0.0,0.0,0.0,0.0,0.0,0.0,0.0,0.0,0.0,0.0,0.0,0.0,0.0,0.0,0.0,0.0,0.0,0.0,0.0,0.0,0.0,0.0,0.0,0.0,0.0,0.0,0.0,0.0,0.0,0.0,0.0,0.0,0.0,0.0,0.0,0.0,0.0,0.0,0.0,0.0,0.0,0.0,0.0,0.0,0.0,0.0,0.0,0.0,0.0,0.0,0.0,0.0,0.0,0.0,0.0,0.0,0.0,0.0,0.0,0.0,0.0,0.0,0.0,0.0,0.0,0.0,0.0,0.0,0.0,0.0,0.0,0.0,0.0,0.0,0.0,0.0,0.0,0.0,0.0,0.0,0.0,0.0,0.0,0.0,0.0,0.0,0.0,0.0,0.0,0.0,0.0,0.0,0.0,0.0,0.0,0.0,0.0,0.0,0.0,0.0,0.0,0.0,0.0,0.0,0.0,0.0,0.0,0.0,0.0,0.0,0.0,0.0,0.0,0.0,0.0,0.0,0.0,0.0,0.0,0.0,0.0,0.0,0.0,0.0,0.0,0.0,0.0,0.0,0.0,0.0,0.0,0.0,0.0,0.0,0.0,0.0,0.0,0.0,0.0,0.0,0.0,0.0,0.0,0.0,0.0,0.0,0.0,0.0,0.0,0.0,0.0,0.0,0.0,0.0,0.0,0.0,0.0,0.0,0.0,0.0,0.0,0.0,0.0,0.0,0.0,0.0,0.0,0.0,0.0,0.0,0.0,0.0,0.0,0.0,0.0,0.0,0.0,0.0,0.0,0.0,0.0,0.0,0.0,0.0,0.0,0.0,0.0,0.0,0.0,0.0,0.0,0.0,0.0,0.0,0.0,0.0,0.0,0.0,0.0,0.0,0.0,0.0,0.0,0.0,0.0,0.0,0.0,0.0,0.0,0.0,0.0,0.0,0.0,0.0,0.0,0.0,0.0,0.0,0.0,0.0,0.0,0.0,0.0,0.0,0.0,0.0,0.0,0.0,0.0,0.0,0.0,0.0,0.0,0.0,0.0,0.0,0.0,0.0,0.0,0.0,0.0,0.0,0.0,0.0,0.0,0.0,0.0,0.0,0.0,0.0,0.0,0.0,0.0,0.0,0.0,0.0,0.0,0.0,0.0,0.0,0.0,0.0,0.0,0.0,0.0,0.0,0.0,0.0,0.0,0.0,0.0,0.0,0.0,0.0,0.0,0.0,-7.4498,-7.3637,0.0,0.0,0.0,0.0,0.0,0.0,0.0,0.0,0.0,0.0,0.0,0.0,0.0,0.0,0.0,0.0,0.0,0.0,0.0,0.0,0.0,0.0,0.0,-7.0074,-7.0582,-7.187,-7.201,-7.2016,-7.2006,0.0,0.0,0.0,0.0,0.0,-6.742,-6.699,-6.7367,-6.8578,-6.9123,-7.0225,-7.181,-7.2139,-7.2061,-7.1647,0.0,0.0,0.0,0.0,0.0,0.0,0.0,0.0,0.0,0.0,0.0,0.0,0.0,0.0,0.0,0.0,0.0,0.0,0.0,0.0,0.0,0.0,0.0,0.0,0.0,0.0,0.0,0.0,0.0,0.0,0.0,0.0,0.0,0.0,0.0,0.0,0.0,0.0,0.0,0.0,0.0,0.0,0.0,0.0,0.0,0.0,0.0,0.0,0.0,0.0,0.0,0.0,0.0,0.0,0.0,0.0,0.0,0.0,0.0,0.0,0.0,0.0,0.0,0.0,0.0,0.0,0.0,0.0,0.0,0.0,-7.3354,-7.3501,0.0,0.0,0.0,0.0,0.0,0.0,0.0,0.0,0.0,0.0,0.0,0.0,0.0,0.0,0.0,0.0,0.0,0.0,0.0,0.0,0.0,-6.742,-6.8981,-6.9294,-7.0035,-7.1636,-7.1893,-7.1941,-7.1784,-7.1093,0.0,0.0,-6.8463,-6.8025,-6.7888,-6.7303,-6.7784,-6.9387,-7.0008,-7.1289,-7.3258,-7.3943,-7.3464,-7.2041,-7.2067,0.0,0.0,0.0,0.0,0.0,0.0,0.0,0.0,0.0,0.0,0.0,0.0,0.0,0.0,0.0,0.0,0.0,0.0,0.0,0.0,0.0,0.0,0.0,0.0,0.0,0.0,0.0,0.0,0.0,0.0,0.0,0.0,0.0,0.0,0.0,0.0,0.0,0.0,0.0,0.0,0.0,0.0,0.0,0.0,0.0,0.0,0.0,0.0,0.0,0.0,0.0,0.0,0.0,0.0,0.0,0.0,0.0,0.0,0.0,0.0,0.0,0.0,0.0,-7.4861,-7.4207,-7.2899,-7.363,-7.3168,-7.1797,-7.2244,-7.3336,-7.4635,-7.2912,0.0,0.0,0.0,0.0,0.0,0.0,0.0,0.0,0.0,0.0,0.0,0.0,0.0,0.0,0.0,0.0,0.0,0.0,0.0,-6.7185,-6.8161,-6.8942,-6.9801,-7.0777,-7.154,-7.1667,-7.0925,-7.0742,-6.9953,-6.835,-6.8178,-6.7735,-6.699,-6.7615,-6.8781,-7.0489,-7.2726,-7.3942,-7.4149,-7.407,-7.3807,-7.3431,-7.3721,-7.3341,-7.2471,0.0,0.0,0.0,0.0,0.0,0.0,0.0,0.0,0.0,0.0,0.0,0.0,0.0,0.0,0.0,0.0,0.0,0.0,0.0,0.0,0.0,0.0,0.0,0.0,0.0,0.0,0.0,0.0,0.0,0.0,0.0,0.0,0.0,0.0,0.0,0.0,0.0,0.0,0.0,0.0,0.0,-7.4053,-7.463,0.0,0.0,0.0,0.0,0.0,0.0,0.0,0.0,0.0,0.0,0.0,0.0,0.0,-7.3514,-7.3514,-7.4399,-7.4822,-7.4707,-7.5476,-7.5707,-7.5515,-7.563,-7.5553,-7.5207,-7.3147,0.0,-7.383,-7.4337,0.0,0.0,0.0,0.0,0.0,0.0,0.0,0.0,0.0,0.0,0.0,0.0,0.0,0.0,0.0,0.0,0.0,0.0,0.0,0.0,0.0,-6.9333,-7.0465,-7.1363,-7.2644,-7.3045,-7.2224,-7.1711,-7.0638,-6.8922,-6.8364,-6.8161,-6.8239,-6.8161,-6.945,-7.2143,-7.4133,-7.5338,-7.5708,-7.5612,-7.5444,-7.5171,-7.5447,-7.4679,-7.3276,-7.3479,0.0,0.0,0.0,0.0,0.0,0.0,0.0,0.0,0.0,0.0,0.0,0.0,0.0,0.0,0.0,0.0,0.0,0.0,0.0,0.0,0.0,0.0,0.0,0.0,0.0,0.0,0.0,0.0,0.0,0.0,0.0,0.0,0.0,0.0,0.0,0.0,0.0,0.0,0.0,-7.3783,-7.363,-7.3976,-7.3937,-7.336,0.0,0.0,0.0,0.0,0.0,0.0,0.0,0.0,0.0,-7.2745,-7.3668,-7.3976,-7.3514,-7.4784,-7.5438,-7.5438,-7.5822,-7.6015,-7.6015,-7.6015,-7.6015,-7.5938,-7.4822,-7.4557,-7.4857,-7.3896,-7.3822,-7.4255,0.0,0.0,0.0,0.0,-6.9351,-6.961,0.0,0.0,0.0,0.0,0.0,0.0,0.0,0.0,0.0,0.0,0.0,0.0,-6.8357,-7.0191,-7.1636,-7.226,-7.3662,-7.3984,-7.2734,-7.2019,-7.0785,-6.8825,-6.8122,-6.8161,-6.9059,-6.9294,-7.0894,-7.3939,-7.5291,-7.6242,-7.6755,-7.6755,-7.6579,-7.6236,-7.6383,-7.5509,-7.3995,-7.4245,-7.3364,-7.1676,0.0,0.0,0.0,0.0,0.0,0.0,0.0,0.0,0.0,0.0,0.0,0.0,0.0,0.0,0.0,0.0,0.0,0.0,0.0,0.0,0.0,0.0,0.0,0.0,0.0,0.0,0.0,0.0,0.0,0.0,0.0,0.0,0.0,0.0,0.0,0.0,0.0,-7.3553,-7.3245,-7.3476,-7.3322,-7.2745,0.0,0.0,0.0,0.0,0.0,0.0,-7.3745,-7.3014,-7.2745,-7.3168,-7.4399,-7.4745,-7.4168,-7.5399,-7.6015,-7.6015,-7.6015,-7.5861,-7.5668,-7.5668,-7.5553,-7.5361,-7.5361,-7.5361,-7.5245,-7.357,-7.3318,-7.3891,-7.3314,-7.2346,-7.115,-7.0149,-7.0033,-7.0296,0.0,0.0,0.0,0.0,0.0,0.0,0.0,0.0,0.0,0.0,0.0,-6.9294,-6.9333,-7.1636,-7.3197,-7.3236,-7.4002,-7.3471,-7.0976,-7.0777,-6.963,-6.7032,-6.6873,-6.7264,-6.8161,-7.1363,-7.39,-7.566,-7.6591,-7.6897,-7.6626,-7.6626,-7.6405,-7.6005,-7.602,-7.5607,-7.4953,-7.5235,-7.432,-7.2585,-7.0961,0.0,0.0,0.0,0.0,0.0,0.0,0.0,0.0,0.0,0.0,0.0,0.0,0.0,0.0,0.0,0.0,0.0,0.0,0.0,0.0,0.0,0.0,0.0,0.0,0.0,0.0,0.0,0.0,0.0,0.0,0.0,0.0,0.0,0.0,0.0,0.0,0.0,0.0,-7.3399,-7.4861,0.0,0.0,0.0,0.0,-7.2206,-7.1398,-7.2052,-7.4514,-7.386,-7.4168,-7.5745,-7.5899,-7.5938,-7.5861,-7.5976,-7.6015,-7.6015,-7.6015,-7.5553,-7.4784,-7.4784,-7.4361,-7.363,-7.363,-7.363,-7.3668,-7.4322,-7.4606,-7.4427,-7.207,-7.1069,-7.0812,-6.9193,-6.9578,-7.0953,0.0,0.0,0.0,0.0,0.0,-6.6913,-6.6905,-6.6904,-6.6898,-6.68,-6.8318,-6.9411,-6.9411,-7.2182,-7.4056,-7.4056,-7.534,-7.5546,-7.4062,-7.245,-7.0865,-6.9372,-6.7693,-6.7732,-6.9723,-7.3158,-7.5188,-7.5816,-7.6672,-7.6936,-7.6618,-7.6618,-7.6383,-7.6015,-7.6015,-7.587,-7.5671,-7.594,-7.5341,-7.4179,-7.3195,-7.1326,0.0,0.0,0.0,0.0,0.0,0.0,0.0,0.0,0.0,0.0,0.0,0.0,0.0,0.0,0.0,0.0,0.0,0.0,0.0,0.0,0.0,0.0,0.0,0.0,0.0,0.0,0.0,0.0,0.0,0.0,0.0,0.0,0.0,0.0,0.0,0.0,0.0,-7.3891,-7.4159,0.0,-7.3353,-7.3404,-7.336,-7.3053,-7.3745,-7.4591,-7.5476,-7.5245,-7.5399,-7.5976,-7.5476,-7.5168,-7.5168,-7.4668,-7.4399,-7.4399,-7.4399,-7.4245,-7.3937,-7.3937,-7.3769,-7.3514,-7.3514,-7.3514,-7.3476,-7.3206,-7.3437,-7.386,-7.2965,-7.2619,-7.2465,-7.1324,-7.1247,-7.1709,0.0,0.0,0.0,-6.6914,-6.6914,-6.6913,-6.6905,-6.6904,-6.7093,-6.762,-6.9176,-7.0504,-7.105,-7.3676,-7.5394,-7.5384,-7.6441,-7.6366,-7.4648,-7.2953,-7.1206,-6.945,-6.8552,-6.9333,-7.1948,-7.4486,-7.593,-7.6242,-7.6828,-7.6936,-7.6618,-7.6618,-7.6383,-7.6015,-7.6015,-7.6015,-7.5991,-7.5929,-7.5743,-7.5442,-7.4199,-7.2168,-6.9722,0.0,0.0,0.0,0.0,0.0,0.0,0.0,0.0,0.0,0.0,0.0,0.0,0.0,0.0,0.0,0.0,0.0,0.0,0.0,0.0,0.0,0.0,0.0,0.0,0.0,0.0,0.0,0.0,0.0,0.0,0.0,0.0,0.0,0.0,-7.1918,-7.2936,-7.3636,-7.3926,-7.4059,-7.4159,-7.4264,-7.4361,-7.4361,-7.5361,-7.5861,-7.5592,-7.5553,-7.5438,-7.5168,-7.4591,-7.4322,-7.4322,-7.3783,-7.3514,-7.3514,-7.3514,-7.336,-7.3053,-7.3053,-7.2437,-7.1398,-7.2245,-7.2129,-7.136,-7.1629,-7.2091,-7.2629,-7.2629,-7.2629,-7.2552,-7.1975,-7.1745,-7.1668,0.0,-6.6914,-6.6914,-6.6914,-6.6914,-6.6913,-6.6905,-6.6904,-6.7484,-6.9103,-7.0894,-7.2612,-7.4251,-7.6033,-7.7091,-7.7104,-7.7108,-7.5659,-7.2304,-7.2016,-7.0467,-6.7029,-6.9372,-7.1909,-7.4447,-7.5384,-7.6242,-7.7101,-7.7101,-7.6941,-7.6626,-7.6618,-7.6394,-7.6029,-7.5976,-7.5976,-7.5914,-7.5181,-7.5439,-7.6111,-7.3692,-7.2231,-7.1116,0.0,0.0,0.0,0.0,0.0,0.0,0.0,0.0,0.0,0.0,0.0,0.0,0.0,0.0,0.0,0.0,0.0,0.0,0.0,0.0,0.0,0.0,0.0,0.0,0.0,0.0,0.0,0.0,0.0,0.0,0.0,0.0,0.0,-6.8433,-7.1725,-7.3715,-7.2621,-7.435,-7.5724,-7.5932,-7.5947,-7.5923,-7.5923,-7.5938,-7.5553,-7.4707,-7.4591,-7.4207,-7.3399,-7.336,-7.336,-7.336,-7.3399,-7.3437,-7.3437,-7.3437,-7.2976,-7.2168,-7.2168,-7.036,-6.7359,-6.9821,-6.9513,-6.7398,-6.986,-7.0898,-7.0898,-7.0898,-7.0898,-7.0898,-7.0898,-7.0898,-7.086,-6.6914,-6.6914,-6.6914,-6.6914,-6.6914,-6.6913,-6.6905,-6.6904,-6.7054,-6.7464,-7.0113,-7.2182,-7.2651,-7.5314,-7.711,-7.7101,-7.7096,-7.6169,-7.3978,-7.2653,-7.0993,-6.8789,-7.0582,-7.2534,-7.4447,-7.5969,-7.6867,-7.7101,-7.7101,-7.6973,-7.6748,-7.6638,-7.6477,-7.6211,-7.6076,-7.5687,-7.5168,-7.4989,-7.483,-7.4594,-7.3927,-7.2821,-7.1439,0.0,0.0,0.0,0.0,0.0,0.0,0.0,0.0,0.0,0.0,0.0,0.0,0.0,0.0,0.0,0.0,0.0,0.0,0.0,0.0,0.0,0.0,0.0,0.0,0.0,0.0,0.0,0.0,0.0,0.0,0.0,-7.0224,-7.1604,-7.1122,-7.1859,-7.2962,-7.4258,-7.4579,-7.4787,-7.5114,-7.4595,-7.4354,-7.4604,-7.4343,-7.4091,-7.386,-7.2091,-7.0975,-7.0744,-7.0129,-6.9808,-6.9808,-7.1014,-7.1629,-7.1629,-7.1629,-7.1475,-7.1245,-7.1245,-7.0744,-6.9898,-7.0591,-7.0514,-6.9898,-7.0591,-7.0898,-7.0898,-7.0898,-7.0898,-7.0898,-7.0898,-7.0514,-6.9783,-6.6914,-6.6914,-6.6914,-6.6914,-6.6914,-6.6912,-6.6905,-6.6862,-6.7127,-6.7813,-7.0309,-7.226,-7.2963,-7.5472,-7.7115,-7.7101,-7.7094,-7.6049,-7.3621,-7.1874,-7.1117,-7.1536,-7.2503,-7.3861,-7.554,-7.6594,-7.7101,-7.7101,-7.7101,-7.6985,-7.6799,-7.6706,-7.6564,-7.6281,-7.5787,-7.5335,-7.4848,-7.4154,-7.3721,-7.3433,-7.3084,-7.2385,-7.1499,-7.1096,-7.0011,-6.8663,-6.8594,-6.9361,-7.0321,-6.986,0.0,0.0,0.0,0.0,0.0,0.0,0.0,0.0,0.0,0.0,0.0,0.0,0.0,0.0,0.0,0.0,0.0,0.0,0.0,0.0,0.0,0.0,0.0,0.0,-7.0428,-7.2122,-7.2225,-7.2507,-7.31,-7.4041,-7.3748,-7.359,-7.3867,-7.3161,-7.2752,-7.2965,-7.3021,-7.2869,-7.2524,-7.1415,-7.009,-6.8667,-6.9167,-6.8936,-6.7859,-6.9898,-7.0898,-7.0898,-7.0898,-7.0898,-7.0898,-7.0898,-7.0321,-6.936,-7.0437,-7.0283,-6.936,-7.009,-7.0398,0.0,0.0,0.0,0.0,0.0,-6.9552,-6.8936,-6.6914,-6.6914,-6.6914,-6.6914,-6.6913,-6.691,-6.6904,-6.6857,-6.7434,-6.9179,-7.0933,-7.2651,-7.433,-7.607,-7.7089,-7.7104,-7.6904,-7.5427,-7.2215,-7.0351,-7.0929,-7.4363,-7.4503,-7.5308,-7.7062,-7.7101,-7.7101,-7.7101,-7.7101,-7.7028,-7.6822,-7.6819,-7.6621,-7.6289,-7.5422,-7.4924,-7.4668,-7.3086,-7.2468,-7.2512,-7.1814,-7.1513,-7.1445,-7.063,-6.9768,-6.8903,-6.8903,-6.9386,-6.9975,-6.986,0.0,0.0,0.0,0.0,0.0,0.0,0.0,0.0,0.0,0.0,0.0,0.0,0.0,0.0,0.0,0.0,0.0,0.0,0.0,0.0,0.0,0.0,0.0,0.0,-7.0004,-7.1257,-7.2055,-7.3075,-7.3417,-7.2711,-7.2358,-7.2246,-7.2356,-7.1614,-7.1149,-7.1171,-7.1728,-7.1784,-7.1078,-7.1406,0.0,0.0,0.0,-6.9398,-6.7128,-6.9629,-7.0898,-7.0898,-7.0898,-7.0898,-7.0898,-7.0898,-6.9629,-6.7513,-6.9783,-6.9436,-6.7359,-6.8936,-6.9552,-6.9629,-7.036,-7.0167,-6.9436,-6.8359,-6.809,-6.8205,-6.6914,-6.6914,-6.6914,-6.6914,-6.6913,-6.691,-6.6904,-6.6857,-6.7434,-6.9179,-7.0933,-7.2651,-7.433,-7.6053,-7.7107,-7.7101,-7.5824,-7.4156,-7.2136,-7.0383,-7.0937,-7.4365,-7.4517,-7.5328,-7.7062,-7.7101,-7.7101,-7.7101,-7.7101,-7.7095,-7.7039,-7.69,-7.6723,-7.6507,-7.5453,-7.4613,-7.3953,-7.2909,-7.22,-7.1806,-7.165,-7.1573,-7.1573,-7.1378,-7.1106,-7.0794,-7.0794,-7.1195,-7.1591,-7.0898,-7.136,-7.2322,-7.3014,-7.2899,0.0,0.0,0.0,0.0,0.0,0.0,0.0,0.0,0.0,0.0,0.0,0.0,0.0,0.0,0.0,0.0,0.0,0.0,0.0,-7.0338,-7.1663,-7.226,-7.0956,-7.1346,-7.1827,-7.2081,-7.1706,-7.1266,-7.0953,-7.0027,-6.9583,-6.9841,-7.0022,-7.0136,-7.0147,-6.8755,-6.7662,-6.7128,-6.759,-6.759,-6.709,-6.9629,-7.0898,-7.0898,-7.0898,0.0,-7.0898,-7.0898,-7.0283,-6.9206,-6.9706,-6.9244,-6.8167,-6.8513,-6.8667,-6.8667,-6.8821,-6.8783,-6.8398,-6.6167,-6.6205,-6.7051,-6.6914,-6.6914,-6.6914,-6.6913,-6.6911,-6.6906,-6.6859,-6.6811,-6.7115,-6.7969,-6.9606,-7.1363,-7.3041,-7.4017,-7.4876,-7.5735,-7.4251,-7.3242,-7.3254,-7.2444,-7.312,-7.5703,-7.5816,-7.6196,-7.7083,-7.711,-7.7101,-7.7101,-7.7101,-7.7101,-7.7101,-7.6951,-7.6825,-7.6653,-7.5223,-7.4324,-7.3777,-7.2521,-7.1833,-7.1538,-7.1581,-7.1598,-7.1598,-7.1547,-7.1436,-7.128,-7.1224,-7.1351,-7.1475,-7.1052,-7.1475,-7.2283,-7.2706,-7.286,-7.286,0.0,0.0,0.0,0.0,0.0,0.0,0.0,0.0,0.0,0.0,0.0,0.0,0.0,0.0,-7.1013,-7.0512,0.0,-7.0696,-7.0165,-7.0821,-7.1014,-6.9939,-7.0023,-7.031,-7.0587,-7.0002,-6.9522,-6.9262,-6.8421,-6.81,-6.8524,-6.8892,-6.9295,-6.9719,-6.9136,-6.8287,-6.7128,-6.8321,-6.8398,-6.709,-6.9629,-7.0898,-7.0898,-7.0898,-7.0898,-7.0898,-7.0898,-7.0475,-6.9706,-6.9706,-6.9206,-6.8359,-6.7936,-6.7513,-6.7167,-6.7167,-6.7398,-6.7552,-6.5859,-6.5782,-6.632,-6.6914,-6.6914,-6.6914,-6.6912,-6.6907,-6.6862,-6.6813,-6.6802,-6.6912,-6.7264,-6.8513,-7.0074,-7.1792,-7.1987,-7.2417,-7.3432,-7.2573,-7.2573,-7.3939,-7.431,-7.5298,-7.7019,-7.7109,-7.7104,-7.7099,-7.7083,-7.7107,-7.7101,-7.7101,-7.7098,-7.7095,-7.7024,-7.6931,-7.6741,-7.5138,-7.4266,-7.3828,-7.2358,-7.1659,-7.1547,-7.1581,-7.1598,-7.1589,-7.1513,-7.1376,-7.128,-7.1154,-7.1018,-7.0898,-7.0898,-7.136,-7.1975,-7.2129,-7.2668,-7.3129,-7.2399,-7.2706,0.0,0.0,0.0,0.0,0.0,0.0,0.0,0.0,-7.2437,-7.2629,-7.1629,-7.1383,-7.1336,-7.1183,-7.0834,-7.0448,-6.9841,-6.9744,-6.9547,-6.9031,-6.8989,-6.8887,-6.8772,-6.8307,-6.7945,-6.78,-6.7184,-6.699,-6.7424,-6.8111,-6.8787,-6.9375,-7.0154,-6.9749,-6.7858,-6.9781,-6.9871,-6.7859,-6.986,-7.0898,-7.0898,-7.0898,-7.0898,-7.0898,-7.0898,-7.036,-6.9436,-6.909,-6.8552,-6.7859,-6.7167,-6.6474,-6.5897,-6.5897,-6.6282,-6.6782,-6.6128,-6.5897,-6.5897,-6.6914,-6.6914,-6.6914,-6.6912,-6.6907,-6.6862,-6.6813,-6.6802,-6.7342,-6.8903,-6.9294,-7.0074,-7.1792,-7.1987,-7.1441,-7.0074,-7.1206,-7.2065,-7.226,-7.3669,-7.5282,-7.7019,-7.7101,-7.7109,-7.7099,-7.7096,-7.7087,-7.7101,-7.7101,-7.7092,-7.7114,-7.7016,-7.6916,-7.6752,-7.5772,-7.4884,-7.4028,-7.3045,-7.2266,-7.1659,-7.1614,-7.1598,-7.1581,-7.1396,-7.1302,-7.128,-7.1154,-7.1018,-7.0898,-7.0898,-7.0975,-7.1168,-7.1937,-7.2283,-7.2322,-7.2206,-7.2283,-7.2014,-7.0398,-6.8936,-6.8205,-6.9744,-7.0667,-7.1168,0.0,-7.3399,-7.513,-7.3553,-7.4066,-7.4622,-7.3913,-7.344,-7.2637,-7.0945,-7.066,-7.0054,-6.8377,-6.8126,-6.7873,-6.7148,-6.7619,-6.7728,-6.7003,-6.6858,-6.6815,-6.6874,-6.7804,-6.845,-6.8676,-6.9645,-7.0217,-7.0316,-7.0584,-7.0657,-7.0475,-7.0744,-7.0898,-7.0898,-7.0898,-7.0898,-7.0898,-7.0898,-7.0052,-6.8462,-6.6974,-6.6282,-6.6167,-6.6051,-6.5974,-6.5897,-6.5897,-6.5936,-6.6013,-6.5936,-6.5897,-6.5897,-6.6914,-6.6914,-6.6912,-6.6908,-6.6905,-6.69,-6.6807,-6.68,-6.7068,-6.7771,-6.7888,-6.8552,-7.0309,-7.0472,-6.9774,-6.8054,-6.9462,-7.0902,-7.1948,-7.3588,-7.5272,-7.7002,-7.7093,-7.7104,-7.7109,-7.7105,-7.7094,-7.7087,-7.711,-7.7098,-7.7089,-7.702,-7.699,-7.6921,-7.6044,-7.5372,-7.4828,-7.3549,-7.2745,-7.2315,-7.1823,-7.1644,-7.1589,-7.1446,-7.1355,-7.1153,-6.995,-6.9476,0.0,-6.9436,-6.9436,-6.9667,-7.1014,-7.0783,-7.0167,-7.1168,-7.0398,-6.9167,-6.9013,-6.9129,-6.9475,-7.0206,-7.1398,-7.2399,-7.2399,-7.3514,-7.4361,-7.363,-7.376,-7.3819,-7.3514,-7.2336,-7.1165,-7.0262,-6.9286,-6.8456,-6.7844,-6.7528,-6.7266,-6.7275,-6.6474,-6.5591,-6.4758,-6.5989,-6.6351,-6.525,-6.6875,-6.8283,-6.9131,-6.9528,-7.0017,-7.0654,-7.0723,-7.0752,-7.0772,-7.0857,-7.0898,-7.0898,-7.0898,-7.0898,-7.0898,-7.0898,-6.9975,-6.8321,-6.6628,-6.5897,-6.5897,-6.5897,-6.5897,-6.5897,-6.5897,-6.5897,-6.5897,-6.5897,-6.5897,-6.5897,-6.6914,-6.6913,-6.6871,-6.6863,-6.686,-6.6856,-6.68,-6.6795,-6.6795,-6.6795,-6.6795,-6.7264,-6.8552,-6.8681,-6.818,-6.6928,-6.8375,-7.0128,-7.1878,-7.3552,-7.5266,-7.7023,-7.7083,-7.7093,-7.7097,-7.7109,-7.7105,-7.7099,-7.7081,-7.7101,-7.7085,-7.7012,-7.7038,-7.7047,-7.6425,-7.5918,-7.5503,-7.4351,-7.3504,-7.2824,-7.2284,-7.1862,-7.1589,-7.1532,-7.1115,-7.0419,-6.8962,-6.8424,-6.8308,-6.7859,-6.8013,-6.8552,-6.9283,-6.9013,-6.8552,-6.9283,-6.8052,-6.6667,-6.7744,-6.8783,-6.9744,-7.0667,-7.186,-7.2899,-7.3399,-7.3514,-7.3514,-7.3514,-7.3216,-7.2893,-7.2663,-7.1342,-7.0135,-6.9648,-6.8469,-6.7675,-6.7782,-6.7341,-6.7,-6.6963,-6.5441,-6.3744,-6.2041,-6.4468,-6.5755,-6.4845,-6.6506,-6.8099,-6.9173,-6.933,-6.9778,-7.0593,-7.0654,-7.0737,-7.0743,-7.0843,-7.0898,-7.0898,-7.0898,-7.0898,-7.0898,-7.0437,-6.9552,-6.8321,-6.6628,-6.5897,-6.5897,-6.5897,-6.5897,-6.5897,-6.5897,-6.5897,-6.5897,-6.5897,-6.5897,-6.5897,-6.6912,-6.6911,-6.6869,-6.6815,-6.6813,-6.6809,-6.6798,-6.6795,-6.6795,-6.6795,-6.6795,-6.6834,-6.6873,-6.6885,-6.685,-6.6811,-6.8375,-7.0132,-7.1889,-7.3557,-7.5266,-7.7023,-7.7101,-7.7115,-7.7097,-7.7099,-7.7108,-7.7099,-7.7089,-7.7062,-7.7008,-7.698,-7.6994,-7.7005,-7.6993,-7.6529,-7.5766,-7.5652,-7.4629,-7.3072,-7.2993,-7.2407,-7.1589,-7.1532,-7.0389,-6.8766,-6.8645,-6.8513,-6.8167,-6.6513,-6.7051,-6.8129,-6.6551,-6.7128,-6.809,-6.6513,-6.5397,-6.5051,-6.6705,-6.659,-6.6821,-7.009,-7.0937,-7.1437,-7.3129,-7.3514,-7.3514,-7.3514,-7.3345,-7.2916,-7.2073,-7.1608,-7.0914,-6.9617,-6.9219,-6.8878,-6.8368,-6.7856,-6.699,-6.5437,-6.4749,-6.2838,-5.8927,-6.215,-6.5084,-6.6598,-6.7249,-6.7841,-6.8307,-6.8994,-6.9721,-7.0402,-7.0593,-7.0743,-7.0885,-7.0898,-7.0898,-7.0898,-7.0898,-7.0898,-7.0821,-6.9206,-6.8462,-6.8321,-6.6628,-6.5897,-6.5897,-6.5897,-6.5897,-6.5897,-6.5897,-6.5897,-6.5897,-6.5897,-6.5897,-6.5897,-6.6907,-6.6863,-6.682,-6.6813,-6.6807,-6.68,-6.6798,-6.6795,-6.6795,-6.6795,-6.6795,0.0,0.0,0.0,0.0,0.0,-6.7716,-6.8691,-7.098,-7.2193,-7.3598,-7.5305,-7.6477,-7.7107,-7.7115,-7.7093,-7.7103,-7.7108,-7.7108,-7.7097,-7.7062,-7.7004,-7.7024,-7.7043,-7.7032,-7.6865,-7.66,-7.6011,-7.5389,-7.4722,-7.3579,-7.2892,-7.2342,-7.0642,-6.9437,-6.839,0.0,-6.5191,-6.4923,-6.4359,-6.4551,-6.5128,-6.5705,-6.5474,-6.4705,-6.3012,-6.3935,-6.532,-6.4743,-6.6051,-6.7821,-6.8975,-7.009,-7.1052,-7.1629,-7.1783,-7.1783,-7.1783,-7.0734,-6.9888,-7.0209,-6.867,-6.7618,-6.8391,-6.7063,-6.662,-6.8556,-6.6486,-6.5349,-6.7074,-6.4912,-6.3437,-6.3917,-6.4215,-6.3961,-6.2911,-6.5464,-6.7332,-6.7924,-6.8553,-6.9169,-6.9831,-7.0391,-7.0699,-7.0758,-7.0857,-7.0898,-7.0898,-7.0898,-7.0898,-7.0821,-6.9167,-6.8385,-6.8321,-6.6628,-6.5897,-6.5897,-6.5897,-6.5897,-6.5897,-6.5897,-6.5897,-6.5897,-6.5897,-6.5897,-6.5897,0.0,-6.7051,-6.6811,-6.6807,-6.68,0.0,0.0,0.0,0.0,0.0,0.0,0.0,0.0,0.0,0.0,0.0,0.0,-6.8144,-7.0121,-7.1065,-7.2158,-7.3557,-7.4692,-7.528,-7.528,-7.5882,-7.6202,-7.6206,-7.6797,-7.7105,-7.7083,-7.7071,-7.7056,-7.7085,-7.7052,-7.7067,-7.707,-7.6509,-7.5887,-7.5117,-7.3437,-7.2312,-7.1393,-6.9133,-6.7733,0.0,-6.4464,-6.3173,-6.2444,-6.2409,-6.282,-6.3397,-6.3897,-6.332,-6.2435,-6.2589,-6.3743,-6.4974,-6.5089,-6.6744,-6.8552,-6.9129,-7.009,-7.0898,-7.0898,-7.0898,-7.0898,-7.0898,-6.9931,-6.9093,-6.9054,-6.7544,-6.6704,-6.7914,-6.6633,-6.639,-6.9089,-6.7085,-6.5986,-6.7523,-6.5275,-6.4082,-6.5268,-6.4791,-6.3744,-6.2223,-6.4468,-6.6299,-6.7062,-6.7519,-6.8403,-6.9849,-7.0429,-7.0699,-7.0758,-7.0857,-7.0898,-7.0898,-7.0898,-7.0898,-7.0821,-6.9167,-6.809,-6.7436,-6.6359,-6.5551,-6.5013,-6.5628,-6.5897,-6.5897,-6.5897,-6.5897,-6.5897,-6.5897,-6.5897,-6.5897,0.0,0.0,-6.6848,0.0,0.0,0.0,0.0,0.0,0.0,0.0,0.0,0.0,0.0,0.0,0.0,0.0,0.0,0.0,-6.9351,-7.0171,-7.1028,-7.1887,-7.1975,-7.2019,-7.2019,-7.362,-7.4487,-7.4453,-7.6092,-7.6906,-7.689,-7.6956,-7.6987,-7.6987,-7.6982,-7.6952,-7.6953,-7.6908,-7.5932,-7.4297,-7.2538,-7.0789,-6.8997,-6.7224,-6.5395,-6.3787,-6.3641,-6.2413,-6.0899,-6.0827,-6.1897,-6.3051,-6.1512,-6.105,-6.1666,-6.482,-6.4705,-6.4231,-6.7398,-6.8385,-6.8898,-7.0514,-7.0898,-7.0898,-7.0898,-7.0898,-7.0898,-7.0783,-7.0706,-7.0129,-6.8513,-6.7931,-6.7793,-6.8009,-6.7659,-6.796,-6.9711,-6.9337,-6.8345,-6.6883,-6.5821,-6.4706,-6.3185,-6.3947,-6.4496,-6.4396,-6.4468,-6.4958,-6.5909,-6.618,-6.7532,-7.026,-7.0562,-7.0758,-7.0898,-7.0898,-7.0898,-7.0898,-7.0898,-7.0898,-7.0821,-6.9167,-6.7552,-6.6013,-6.5936,-6.4974,-6.3551,-6.5205,-6.5897,-6.5897,-6.5897,-6.5897,-6.5897,-6.5897,-6.5897,-6.5897,0.0,0.0,0.0,0.0,0.0,0.0,0.0,0.0,0.0,0.0,0.0,0.0,0.0,0.0,0.0,0.0,0.0,0.0,-6.9301,-6.962,-7.0128,-7.0977,-7.1644,-7.2002,-7.201,-7.244,-7.264,-7.265,-7.3745,-7.4257,-7.4211,-7.4874,-7.5143,-7.5177,-7.515,-7.5195,-7.5193,-7.4557,-7.4006,-7.3462,-7.17,-7.0311,-6.901,-6.6639,-6.4948,-6.3708,-6.233,-6.1427,-6.0899,-6.0827,-6.1897,-6.3474,-6.432,-6.4589,-6.4512,-6.4089,-6.5436,-6.7013,-6.6628,-6.8359,-7.036,-7.0783,-7.0898,-7.0898,-7.0898,-7.0898,-7.0552,-6.9283,-6.8052,-6.6859,-6.5782,-6.3988,-6.3617,-6.6521,-6.5307,-6.4975,-6.7688,-6.688,-6.6125,-6.6579,-6.64,-6.6272,-6.6397,-6.6599,-6.6135,-6.4496,-6.5518,-6.6315,-6.6554,-6.7481,-6.8397,-6.9275,-7.0205,-7.0758,-7.0898,-7.0898,-7.0898,-7.0898,-7.0898,-7.0898,-7.0821,-6.9167,-6.8167,-6.7705,-6.6436,-6.5628,-6.5282,-6.5705,-6.5897,-6.5897,-6.5897,-6.5897,-6.5897,-6.5897,-6.5897,-6.5897,0.0,0.0,0.0,0.0,0.0,0.0,0.0,0.0,0.0,0.0,0.0,0.0,0.0,0.0,0.0,0.0,0.0,0.0,0.0,-6.8603,-6.8878,-6.8989,-6.9501,-6.9742,-6.9747,-7.01,-7.0494,-7.0852,-7.1712,-7.2537,-7.3241,-7.3358,-7.3592,-7.3942,-7.3553,-7.3437,-7.3434,-7.2921,-7.2522,0.0,0.0,-6.9011,-6.7929,-6.5307,-6.394,-6.3214,-6.1784,-6.1092,-6.113,-6.256,-6.3166,-6.3743,-6.6205,-6.6474,-6.6013,-6.6474,-6.7475,-6.8359,-6.8167,-6.9475,-7.0898,-7.0898,-7.0898,-7.0706,-6.9975,-6.9821,-6.9321,-6.7667,-6.6551,-6.5513,-6.4282,-6.2858,-6.2848,-6.5824,-6.4953,-6.4764,-6.7254,-6.6663,-6.6237,-6.6878,-6.6753,-6.7014,-6.816,-6.806,-6.7306,-6.5897,-6.5771,-6.5851,-6.6097,-6.6951,-6.795,-6.9176,-7.0064,-7.0669,-7.0898,-7.0898,-7.0898,-7.0898,-7.0898,-7.0898,-7.0821,-6.9167,-6.8013,-6.7244,-6.632,-6.5474,-6.482,-6.559,-6.5897,-6.5897,-6.5897,-6.5897,-6.5897,-6.5897,-6.5897,-6.5859,0.0,0.0,0.0,0.0,0.0,0.0,0.0,0.0,0.0,0.0,-6.6795,-6.6795,-6.6795,-6.6795,0.0,0.0,0.0,0.0,0.0,0.0,-6.7826,-6.716,-6.7092,-6.7096,-6.7215,-6.7684,-6.839,-6.9411,-7.0154,-7.1366,-7.2929,-7.2305,-7.2383,-7.3086,-7.2344,-7.1953,-7.1833,-7.1716,-7.1163,-7.021,-6.8572,-6.741,-6.6405,0.0,-6.3081,-6.2698,-6.1661,-6.1151,-6.1474,-6.4766,-6.4897,-6.4243,-6.7667,-6.7744,-6.709,-6.9783,-6.9706,-6.9013,-7.0244,-7.0744,-7.0898,-7.0898,-7.0898,-7.0514,-6.9052,-6.8538,-6.7936,-6.6244,-6.5705,-6.5089,-6.3589,-6.3308,-6.3846,-6.5564,-6.5566,-6.578,-6.7003,-6.7334,-6.7351,-6.7087,-6.684,-6.733,-6.894,-6.8487,-6.7951,-6.763,-6.587,-6.5022,-6.538,-6.5866,-6.7195,-6.9512,-7.0137,-7.0609,-7.0898,-7.0898,-7.0898,-7.0898,-7.0898,-7.0898,-7.0821,-6.9167,-6.7628,-6.6205,-6.6013,-6.5051,-6.3782,-6.5282,-6.5897,-6.5897,-6.5897,-6.5897,-6.5897,-6.5897,-6.5897,-6.5782,0.0,0.0,0.0,0.0,0.0,0.0,0.0,0.0,0.0,0.0,-6.6795,-6.6795,0.0,0.0,0.0,0.0,0.0,0.0,0.0,0.0,0.0,-6.8906,-6.8284,-6.8212,-6.8963,-6.7674,-6.7796,-6.9403,-6.9566,-7.0154,-7.117,-7.1718,-7.207,-7.2226,-7.207,-7.1601,-7.0898,-7.0155,-6.9369,-6.8463,-6.744,-6.6538,-6.5757,-6.5232,0.0,0.0,-6.1606,-6.1214,-6.1709,-6.4844,-6.5705,-6.6051,-6.9398,-7.0283,-6.986,-6.909,-6.9629,-7.0244,-6.9129,-6.986,-7.0898,-7.0898,-7.0898,-7.0821,-7.0514,-6.9398,-6.7936,-6.6244,-6.4743,-6.3666,-6.3346,-6.3308,-6.3809,-6.5394,-6.5594,-6.5082,-6.3718,-6.5867,-6.702,-6.5513,-6.6464,-6.7749,-6.8983,-6.7766,-6.7081,-6.7547,-6.7276,-6.6912,-6.6525,-6.7012,-6.801,-6.955,-7.0255,-7.0714,-7.0898,-7.0898,-7.0898,-7.0898,-7.0898,-7.0898,-7.0821,-6.9167,-6.8244,-6.7898,-6.6513,-6.5743,-6.5474,-6.5782,-6.5897,-6.5897,-6.5897,-6.5897,-6.5897,-6.5897,-6.5897,-6.5782,0.0,0.0,0.0,0.0,0.0,0.0,0.0,-6.8044,-6.7498,-6.7498,-6.7068,-6.6795,-6.6795,-6.6795,-6.6795,0.0,0.0,0.0,0.0,0.0,0.0,0.0,0.0,0.0,-6.9382,-6.8132,-6.8097,-6.9396,0.0,-6.9643,-7.1364,-7.0898,-7.1133,-7.1953,-7.0625,-6.9805,-6.9336,-6.8475,-6.7847,-6.7449,-6.7017,-6.6616,-6.6175,0.0,0.0,0.0,-6.1735,-6.1361,-6.17,-6.4016,-6.4829,-6.5509,-6.9618,-7.0898,-7.0552,-6.8898,-6.959,-7.0514,-6.8859,-6.9629,-7.0898,-7.0898,-7.0898,-7.0437,-6.8706,-6.7667,-6.6359,-6.3782,-6.2589,-6.2012,-6.2012,-6.2012,-6.2834,-6.5346,-6.5649,-6.5523,-6.5375,-6.6657,-6.7262,-6.6309,-6.6897,-6.7619,-6.8163,-6.7501,-6.705,-6.7067,-6.6828,-6.6686,-6.6809,-6.7647,-6.8576,-6.9588,-7.0326,-7.0758,-7.0898,-7.0898,-7.0898,-7.0898,-7.0898,-7.0898,-7.0821,-6.9167,-6.8385,-6.8321,-6.6628,-6.5397,-6.4628,-6.5513,-6.5359,-6.4628,-6.5551,-6.5897,-6.5897,-6.5897,-6.559,-6.5089,0.0,0.0,0.0,0.0,0.0,0.0,-6.9684,-6.8942,-6.8396,-6.8396,-6.7615,-6.7068,-6.7068,-6.6912,-6.6795,0.0,0.0,0.0,0.0,0.0,0.0,0.0,0.0,0.0,-6.9957,0.0,0.0,-7.0245,-6.9163,0.0,0.0,0.0,0.0,0.0,-6.9336,-6.8359,-6.8164,-6.7459,-6.7065,0.0,0.0,-6.6852,-6.6719,0.0,0.0,0.0,0.0,-6.1618,-6.1696,-6.3258,-6.3826,-6.4526,-6.8618,-6.9887,-6.9669,-6.8706,-6.9361,-7.0167,-6.9206,-6.9898,-7.0898,-7.0898,-7.0898,-7.0129,-6.7128,-6.6167,-6.5013,-6.1973,-6.105,-6.0896,-6.1281,-6.1358,-6.232,-6.5397,-6.5615,-6.5862,-6.7179,-6.7365,-6.7372,-6.7388,-6.739,-6.7542,-6.7883,-6.7617,-6.7335,-6.7159,-6.6565,-6.6375,-6.6772,-6.7885,-6.8743,-6.9196,-7.0154,-7.0669,-7.0681,-7.0819,-7.0898,-7.0898,-7.0898,-7.0898,-7.0821,-6.9167,-6.8385,-6.8321,-6.6628,-6.4897,-6.3435,-6.5166,-6.4859,-6.3462,-6.5205,-6.5897,-6.5897,-6.5897,-6.5359,-6.4474,0.0,0.0,0.0,0.0,0.0,0.0,-7.0582,-6.984,-6.9294,-6.9294,-6.8513,-6.7966,-6.7966,-6.7264,-6.6795,0.0,0.0,0.0,0.0,0.0,0.0,0.0,0.0,0.0,0.0,0.0,0.0,-7.2924,-7.126,0.0,0.0,0.0,0.0,0.0,0.0,-6.8864,-6.8203,-6.8123,0.0,0.0,0.0,0.0,0.0,0.0,0.0,0.0,0.0,-6.2223,-6.1792,-6.3288,-6.3838,-6.4237,-6.6114,-6.6648,-6.6819,-6.8171,-6.8601,-6.8936,-7.0283,-7.0783,-7.0898,-7.0898,-7.0898,-7.0437,-6.859,-6.6974,-6.5359,-6.3474,-6.1858,-6.1281,-6.2781,-6.3089,-6.3705,-6.559,-6.5231,-6.4897,-6.5535,-6.6223,-6.6859,-6.7351,-6.739,-6.7996,-6.9512,-6.83,-6.7827,-6.8795,-6.7988,-6.725,-6.6815,-6.7741,-6.8234,-6.7988,-6.9588,-7.0293,-7.0006,-7.0622,-7.0898,-7.0898,-7.0898,-7.0898,-7.0821,-6.9167,-6.8385,-6.8321,-6.6628,-6.4897,-6.3435,-6.5166,-6.4859,-6.3462,-6.5205,-6.5897,-6.5897,-6.5897,-6.5359,-6.4474,0.0,0.0,0.0,0.0,0.0,0.0,-7.148,-7.0738,-7.0191,-7.0191,-6.8981,-6.8083,-6.8083,-6.7303,-6.699,-6.7537,-6.8396,0.0,0.0,0.0,0.0,0.0,0.0,0.0,0.0,0.0,-7.0933,-7.2534,-7.1299,0.0,0.0,0.0,0.0,0.0,0.0,-6.8431,-6.8118,-6.7616,0.0,0.0,0.0,0.0,0.0,0.0,0.0,0.0,0.0,0.0,-6.1747,-6.2343,-6.2535,-6.2687,-6.3323,-6.3432,-6.3644,-6.5131,-6.6927,-6.8321,-6.7975,-6.936,-7.0898,-7.0898,-7.0898,-7.0206,-6.7513,-6.6397,-6.5128,-6.2358,-6.1243,-6.1012,-6.1666,-6.1781,-6.2358,-6.4051,-6.4051,-6.4552,-6.6725,-6.7217,-6.7785,-6.8879,-6.8942,-6.8754,-6.8413,-6.7769,-6.7332,-6.712,-6.6752,-6.6628,-6.6809,-6.7469,-6.7845,-6.7786,-6.8787,-6.9511,-6.988,-7.014,-7.0509,-7.0898,-7.0898,-7.0667,-7.0129,-6.8936,-6.8129,-6.7552,-6.6397,-6.432,-6.2012,-6.4782,-6.4282,-6.2089,-6.482,-6.5897,-6.582,-6.532,-6.4589,-6.3705,0.0,0.0,0.0,0.0,0.0,-7.2104,-7.2339,-7.1636,-7.1167,-7.1441,-6.9957,-6.8864,-6.8864,-6.8083,-6.7927,-6.8786,-6.8942,0.0,0.0,0.0,0.0,0.0,0.0,0.0,0.0,0.0,-7.1128,-7.1987,-7.0865,-7.0644,0.0,0.0,-6.9213,-6.9521,0.0,0.0,0.0,0.0,0.0,0.0,0.0,0.0,0.0,0.0,0.0,0.0,0.0,0.0,0.0,0.0,0.0,-6.1705,-6.1718,-6.1626,-6.1771,-6.3216,-6.5599,-6.7563,-6.6846,-6.8706,-7.0898,-7.0898,-7.0514,-6.9398,-6.6551,-6.5513,-6.432,-6.1396,-6.0781,-6.0781,-6.0781,-6.0589,-6.0973,-6.2666,-6.2935,-6.3886,-6.6605,-6.7117,-6.7767,-6.9175,-6.9261,-6.8924,-6.8186,-6.8148,-6.7785,-6.6829,-6.6621,-6.669,-6.7032,-6.7266,-6.7415,-6.7494,-6.8221,-6.894,-6.9588,-6.9809,-7.0228,-7.0898,-7.0898,-7.0206,-6.8936,-6.8552,-6.7667,-6.632,-6.6013,-6.4243,-6.1781,-6.4705,-6.4166,-6.182,-6.4743,-6.5897,-6.5782,-6.4936,-6.4051,-6.3166,0.0,0.0,0.0,0.0,0.0,-7.23,-7.3158,-7.2534,-7.23,-7.3158,-7.1753,-7.066,-7.066,-6.9918,-6.9723,-7.0582,-6.9098,0.0,0.0,0.0,0.0,0.0,0.0,0.0,-7.1987,-7.1128,-7.1128,-7.1987,-7.027,-6.9429,-6.9411,-6.8513,-6.7686,-6.6941,0.0,0.0,0.0,0.0,0.0,0.0,0.0,0.0,0.0,0.0,0.0,0.0,0.0,0.0,0.0,0.0,0.0,0.0,0.0,-6.1594,-6.1813,-6.3353,-6.4915,-6.6449,-6.7962,-6.9629,-7.0898,-7.0898,-6.9667,-6.7975,-6.6282,-6.4589,-6.2858,-6.1166,-6.0781,-6.0781,-6.0781,-6.0089,-6.0089,-6.1831,-6.2101,-6.2617,-6.4112,-6.5095,-6.613,-6.7461,-6.7618,-6.8233,-6.9721,-6.9854,-6.9641,-6.9112,-6.8567,-6.8074,-6.764,-6.7097,-6.6786,-6.6786,-6.7986,-6.8698,-6.8924,-6.9569,-7.0228,-7.0898,-7.0898,-6.959,-6.7167,-6.8013,-6.7013,-6.4666,-6.5513,-6.4897,0.0,-6.5166,-6.4859,-6.3474,-6.5205,-6.5897,-6.5782,-6.4936,-6.4051,-6.3166,0.0,0.0,0.0,0.0,0.0,0.0,-7.2378,-7.269,-7.2768,-7.2456,-7.1948,-7.1363,-7.0777,-6.9918,-6.9528,-6.9801,-6.9294,0.0,0.0,0.0,0.0,0.0,0.0,-6.8435,-6.9333,-6.9059,-6.9333,-7.023,-6.9076,-6.8504,-6.8474,-6.7611,-6.7088,-6.6846,-6.6805,-6.68,0.0,-6.6792,0.0,0.0,0.0,0.0,-6.666,0.0,0.0,0.0,0.0,0.0,0.0,0.0,0.0,0.0,0.0,0.0,0.0,-6.1951,-6.315,-6.4461,-6.4805,-6.6167,-6.7475,-6.7475,-6.709,-6.6244,-6.4512,-6.3705,-6.282,-6.1166,-6.0781,-6.0627,-6.0012,-5.9704,-5.9896,-6.1012,-6.1204,-6.2192,-6.4987,-6.6047,-6.7016,-6.8444,-6.897,-6.936,-6.9873,-6.8868,-6.8432,-6.9058,-6.7537,-6.6902,-6.7567,-6.7097,-6.6786,-6.6786,-6.7174,-6.76,-6.8147,-6.8844,-6.955,-7.0228,-7.0681,-6.9283,-6.632,-6.7744,-6.6667,-6.3782,-6.5243,-6.4897,-6.3435,-6.5166,-6.4859,-6.3462,-6.5205,-6.5551,-6.4897,-6.4051,-6.3205,-6.2358,0.0,0.0,0.0,0.0,0.0,0.0,-7.2432,-7.2656,-7.2729,-7.2534,-7.2495,-7.2143,-7.1285,-7.1011,-7.0738,-7.0426,-7.0074,0.0,0.0,0.0,0.0,0.0,-6.7303,-6.7693,-6.8552,-6.8279,-6.8362,-6.8917,-6.8032,-6.7613,-6.7617,-6.7059,-6.6807,-6.6798,-6.68,-6.6795,0.0,-6.6766,0.0,0.0,0.0,0.0,-6.6628,0.0,0.0,0.0,0.0,0.0,0.0,0.0,0.0,0.0,0.0,0.0,0.0,0.0,-6.1694,-6.2403,-6.3095,-6.4589,-6.5897,-6.5897,-6.5397,-6.4628,-6.3551,-6.282,-6.205,-6.1012,-6.105,-6.0935,-5.9704,-5.9511,-5.9473,-5.9358,-6.0165,-6.155,-6.3666,-6.4898,-6.6054,-6.7477,-6.8472,-6.9246,-6.9835,-6.8773,-6.8409,-6.9327,-6.758,-6.6888,-6.7819,-6.721,-6.6786,-6.6786,-6.6786,-6.7109,-6.7786,-6.8455,-6.9176,-6.9898,-7.0547,-6.9113,-6.5974,-6.7628,-6.6538,-6.3397,-6.5128,-6.5282,0.0,-6.5436,-6.5243,-6.4397,-6.5474,-6.5359,-6.4474,-6.3628,-6.2781,-6.1985,0.0,0.0,0.0,0.0,0.0,0.0,0.0,-7.2555,-7.2344,-7.3122,-7.3278,-7.2966,-7.2104,-7.2729,-7.2885,-7.2065,-7.1245,0.0,0.0,0.0,0.0,-6.8083,-6.8044,-6.8396,-6.9215,-6.8435,-6.8017,-6.7997,-6.7216,-6.6796,-6.6785,-6.6817,-6.6807,-6.6795,-6.6781,-6.6781,-6.6787,-6.6633,0.0,0.0,-6.6646,-6.6634,0.0,0.0,0.0,0.0,0.0,0.0,0.0,0.0,0.0,0.0,0.0,0.0,0.0,0.0,0.0,0.0,0.0,-6.4166,-6.5359,-6.5359,-6.4128,-6.2923,-6.2923,-6.1781,0.0,-6.0781,-6.1473,-6.1562,-5.9819,-5.9588,-5.9127,-5.7368,-5.9177,-6.0781,-6.0781,-6.2346,-6.3924,-6.5146,-6.6766,-6.8309,-6.9607,-6.9385,-6.9361,-6.9872,-6.8501,-6.783,-6.8296,-6.7332,-6.6786,-6.6786,-6.6786,-6.7081,-6.7746,-6.8257,-6.8929,-6.9637,-7.0254,-6.8848,-6.5782,-6.7513,-6.6462,-6.3397,-6.5128,-6.5897,-6.5897,-6.5897,-6.5897,-6.5897,-6.582,-6.5282,-6.4397,-6.3551,-6.2704,-6.1908,0.0,0.0,0.0,0.0,0.0,0.0,0.0,0.0,0.0,0.0,-7.2873,-7.2985,-7.2107,-7.2182,-7.2221,0.0,0.0,0.0,0.0,0.0,0.0,-6.8083,-6.7459,-6.7185,-6.742,-6.7224,-6.7119,-6.7099,-6.6911,-6.6796,-6.6785,-6.6811,-6.68,-6.6795,-6.6792,-6.6727,-6.6629,-6.6605,0.0,0.0,-6.6574,-6.6268,0.0,0.0,0.0,0.0,-6.211,-6.1718,0.0,0.0,0.0,0.0,0.0,0.0,0.0,0.0,-6.061,-6.008,-6.0338,0.0,-6.0089,-6.0089,-5.9781,-5.9473,0.0,-5.9665,-5.9973,-6.0666,-6.1473,-6.1562,-5.9819,-6.0589,-6.0704,-5.8396,-5.955,-6.0781,-6.0781,-6.3258,-6.512,-6.5352,-6.7812,-6.9125,-6.8091,-6.902,-6.9758,-6.9891,-6.8788,-6.8198,-6.8283,-6.7332,-6.6786,-6.6786,-6.6786,-6.6874,-6.7032,-6.7679,-6.7705,-6.7135,-6.8446,-6.7286,-6.4012,-6.632,-6.5897,-6.3397,-6.5128,-6.5897,-6.5897,-6.5897,-6.5897,-6.582,-6.5166,-6.4359,-6.3512,-6.2666,-6.182,-6.1089,0.0,0.0,0.0,0.0,0.0,0.0,0.0,0.0,0.0,0.0,-7.277,-7.2961,-7.2084,-7.2356,-7.2429,0.0,0.0,0.0,0.0,-7.0035,-6.8942,-6.8122,-6.7654,-6.7224,-6.6795,-6.6807,-6.6782,-6.6793,-6.6797,-6.679,-6.6813,-6.6802,-6.6795,-6.6795,-6.6795,-6.672,-6.659,-6.6495,-6.6471,-6.6471,-6.6039,0.0,0.0,0.0,0.0,0.0,-6.1991,-6.1718,0.0,-6.1718,-6.1718,-6.1688,0.0,0.0,0.0,0.0,-6.0073,-5.9272,-5.8526,-5.8588,-5.8934,-5.9358,-5.9165,-5.905,-5.9858,-5.9742,-5.9858,-6.1127,-6.1447,-6.1089,-5.9742,-5.9973,-5.9896,-5.8511,-5.905,-6.005,-6.1243,-6.322,-6.4652,-6.4882,-6.6345,-6.7402,-6.7496,-6.8716,-6.9542,-6.9542,-6.8595,-6.7984,-6.7984,-6.723,-6.6786,-6.6786,-6.6786,-6.6786,-6.6786,-6.7405,-6.7111,-6.5889,-6.7655,-6.694,-6.4172,-6.6166,-6.6167,-6.4512,-6.4628,-6.5166,-6.582,-6.5051,-6.5166,-6.582,-6.4936,-6.4089,-6.3192,-6.2397,-6.155,-6.0781,0.0,0.0,0.0,0.0,0.0,0.0,0.0,0.0,0.0,0.0,0.0,0.0,0.0,0.0,0.0,0.0,0.0,0.0,0.0,-7.1297,-7.0165,-6.8564,-6.8245,-6.7695,-6.6802,-6.6818,-6.6793,-6.6796,-6.6791,-6.6817,-6.6795,-6.6795,-6.6792,-6.6781,-6.6781,-6.6693,-6.6495,-6.6329,-6.6268,-6.6164,-6.5319,0.0,0.0,0.0,0.0,0.0,0.0,0.0,0.0,-6.1718,-6.1718,-6.1688,-6.1714,0.0,0.0,0.0,0.0,0.0,-5.7456,-5.8127,-5.9319,-6.0204,-5.9858,-5.9742,-6.1331,-6.055,-5.9973,-6.1755,-6.1589,-6.0896,-5.9896,-5.9588,-5.9204,-5.8434,-5.8511,-5.9473,-6.1793,-6.2897,-6.3681,-6.4227,-6.4647,-6.5588,-6.7406,-6.8582,-6.9214,-6.9091,-6.8308,-6.7763,-6.7614,-6.7182,-6.6874,-6.6786,-6.6786,-6.6786,-6.6786,-6.7266,-6.6712,-6.5213,-6.7121,-6.6915,-6.4807,-6.6235,-6.6538,-6.582,-6.4359,0.0,-6.5782,-6.432,-6.4589,-6.5782,-6.4782,-6.3935,-6.3205,-6.2243,-6.1435,-6.0781,0.0,0.0,0.0,0.0,0.0,0.0,0.0,0.0,0.0,0.0,0.0,0.0,0.0,0.0,0.0,0.0,0.0,0.0,0.0,-7.1874,-7.1366,-7.035,-6.8886,-6.7703,-6.6821,-6.6785,-6.6795,-6.6789,-6.6787,-6.6817,-6.6795,-6.6795,-6.6727,-6.6615,-6.6615,-6.6458,-6.6157,-6.6129,-6.5731,-6.5072,-6.5031,0.0,0.0,0.0,0.0,0.0,0.0,0.0,0.0,-6.1718,-6.1718,-6.1681,-6.1688,0.0,0.0,0.0,0.0,0.0,-5.8217,-5.7742,-5.7599,-5.8473,-5.8588,-5.8742,-5.9665,-5.9704,-5.9973,-6.1755,-6.2551,-6.2435,-6.0896,-6.2858,-6.332,-5.9011,-5.9473,-6.0819,-6.1947,-6.3435,-6.4385,-6.437,-6.6727,-6.8123,-6.7652,-6.8924,-6.9582,-6.9134,-6.8959,-6.8501,-6.763,-6.7533,-6.7294,-6.6786,-6.6786,-6.6786,-6.6786,-6.6874,-6.6062,-6.4303,-6.5754,-6.5516,-6.3867,-6.5226,-6.5857,-6.5897,0.0,-6.5628,-6.5859,-6.559,-6.5667,-6.5743,-6.4128,-6.3423,-6.3128,-6.155,-6.0896,-6.0781,0.0,0.0,0.0,0.0,0.0,0.0,0.0,0.0,0.0,0.0,0.0,0.0,0.0,0.0,0.0,0.0,0.0,0.0,-7.125,-7.1289,-7.1133,-7.0703,-6.9489,-6.8392,-6.7536,-6.7031,-6.6795,-6.6787,-6.6817,-6.6807,-6.6795,-6.672,-6.6677,-6.659,-6.6483,-6.6291,-6.6069,-6.5605,-6.5157,-6.4723,0.0,0.0,0.0,0.0,0.0,0.0,0.0,0.0,0.0,0.0,-6.166,-6.1683,-6.1705,0.0,0.0,0.0,0.0,0.0,-5.7793,-5.7973,-5.8665,-6.0012,-5.8973,-5.8434,-6.155,-6.0473,-5.9858,-6.3397,-6.2589,-6.132,-6.1473,-6.2012,-6.182,-5.9973,-6.1858,-6.3358,-6.282,-6.3397,-6.4064,-6.4475,-6.5709,-6.6644,-6.7022,-6.8438,-6.9304,-6.9096,-6.881,-6.8344,-6.763,-6.7314,-6.704,-6.6822,-6.6786,-6.6786,-6.6786,-6.6388,-6.5319,-6.3623,-6.5305,-6.5045,-6.3176,-6.4486,-6.5329,-6.5651,0.0,-6.4561,-6.5665,-6.4743,-6.4718,-6.5051,-6.382,-6.3051,-6.2512,-6.1243,-6.0781,-6.0781,0.0,0.0,0.0,0.0,0.0,0.0,0.0,0.0,0.0,0.0,0.0,0.0,0.0,0.0,0.0,0.0,0.0,0.0,-7.0349,-7.0584,-7.07,-7.07,-6.9881,-6.8983,-6.8124,-6.726,-6.6784,-6.6781,-6.6805,-6.679,-6.6733,-6.6668,-6.6563,-6.6465,-6.6307,-6.6185,-6.5986,-6.5097,-6.4629,-6.432,0.0,0.0,0.0,0.0,0.0,0.0,0.0,0.0,0.0,0.0,0.0,0.0,0.0,0.0,0.0,-5.9021,-5.8707,-5.8513,-5.7562,-5.8242,-5.9665,-6.1639,-5.9985,-5.9138,-6.382,-6.1935,-6.0512,-6.5205,-6.3435,-6.1396,-6.2743,-6.1396,-6.0473,-6.1512,-6.3705,-6.4974,-6.4051,-6.3897,-6.4243,-6.5089,-6.5037,-6.5408,-6.6789,-6.7948,-6.8678,-6.8795,-6.8458,-6.8037,-6.7604,-6.721,-6.6932,-6.6786,-6.6786,-6.6714,-6.6533,-6.5917,-6.4867,-6.3518,-6.4918,-6.465,-6.2968,-6.3993,-6.4854,-6.5446,-6.3519,-6.3807,-6.5479,-6.4214,-6.4039,-6.4512,-6.3628,-6.2666,-6.1704,-6.1015,-6.0757,-6.0781,0.0,0.0,0.0,0.0,0.0,0.0,0.0,0.0,0.0,0.0,0.0,0.0,0.0,0.0,0.0,0.0,0.0,0.0,-6.9457,-7.0236,-7.0704,-7.0704,-6.9884,-6.8998,-6.8116,-6.7255,-6.6818,-6.68,-6.6798,-6.6727,-6.6605,-6.6595,-6.6425,-6.6148,-6.6138,-6.6041,-6.5846,-6.496,-6.4152,-6.3344,-6.2524,0.0,0.0,0.0,0.0,0.0,0.0,0.0,0.0,0.0,0.0,0.0,0.0,0.0,-6.019,-5.9021,-5.8707,-5.8629,-5.8284,-5.828,-5.8973,-6.1485,-6.1331,-6.1435,-6.5013,-6.3743,-6.2832,-6.6282,-6.6167,-6.5474,-6.559,-6.3589,-6.2435,-6.4051,-6.3858,-6.4012,-6.5513,-6.5705,-6.6013,-6.6821,-6.6803,-6.6993,-6.7722,-6.7736,-6.7749,-6.7969,-6.7959,-6.7835,-6.7594,-6.7587,-6.7286,-6.6815,-6.6786,-6.646,-6.57,-6.5627,-6.5156,-6.4315,-6.414,-6.3931,-6.3638,-6.3755,-6.437,-6.5375,-6.4795,-6.4927,-6.5594,-6.5479,-6.5114,-6.4512,-6.3628,-6.232,-6.0885,-6.0686,-6.0673,-6.0746,0.0,0.0,0.0,0.0,0.0,0.0,0.0,0.0,0.0,0.0,0.0,0.0,0.0,0.0,0.0,0.0,0.0,-6.7654,-6.8513,-6.9411,-7.0113,-7.0699,-6.9879,-6.926,-6.8917,-6.7512,-6.6805,-6.6795,-6.6716,-6.66,-6.6393,-6.6338,-6.6212,-6.6098,-6.5997,-6.5649,-6.5013,-6.4166,-6.332,-6.2486,-6.1647,-6.1164,0.0,0.0,0.0,0.0,0.0,0.0,0.0,0.0,-6.1591,-6.1715,-6.1718,-6.0738,-5.9478,-5.8893,-5.8707,-5.8622,-5.8361,-5.905,-6.0473,-6.3012,-6.2204,-6.1704,-6.5128,-6.3935,-6.3371,-6.7782,-6.6782,-6.4936,-6.4397,-6.4397,-6.4474,-6.4589,-6.5205,-6.5705,-6.5859,-6.5897,-6.6013,-6.632,-6.6307,-6.6493,-6.7034,-6.7032,-6.7144,-6.7561,-6.6994,-6.6616,-6.6568,-6.594,-6.5521,-6.5301,-6.5301,-6.5156,-6.4867,-6.4359,-6.3925,-6.3663,-6.3805,-6.3822,-6.3707,-6.3266,-6.3876,-6.5188,-6.4312,-6.4519,-6.5465,-6.5465,-6.4803,-6.3666,-6.2281,-6.1358,-6.0769,-6.0635,-6.061,-6.0635,0.0,0.0,0.0,0.0,0.0,0.0,0.0,0.0,0.0,0.0,0.0,0.0,0.0,0.0,0.0,0.0,-6.7584,-6.6935,-6.7582,-6.8444,-6.9312,-7.027,-6.945,-6.9137,-6.9372,-6.7693,-6.6795,-6.6795,-6.6681,-6.6471,-6.6226,-6.6138,-6.6067,-6.603,-6.5946,-6.5436,-6.4551,-6.3666,-6.2858,-6.2024,-6.1127,-6.0827,0.0,0.0,0.0,0.0,0.0,0.0,0.0,0.0,-6.1059,-6.1205,-6.1178,-6.0005,-5.8629,-5.8635,-5.8435,-5.8172,-5.7965,-5.9127,-6.0935,-6.3243,-6.2512,-6.2166,-6.5859,-6.4705,-6.4089,-6.8398,-6.7859,-6.6244,-6.5115,-6.5667,-6.6013,-6.5166,-6.5743,-6.6205,-6.5936,-6.5897,-6.5897,-6.5897,-6.5897,-6.5985,-6.6208,-6.6216,-6.6418,-6.6971,-6.6069,-6.5608,-6.5905,-6.4945,-6.4396,-6.4396,-6.4396,-6.4287,-6.3997,-6.3454,-6.3056,-6.2838,-6.3172,-6.3309,-6.3379,-6.2769,-6.3311,-6.4757,-6.3867,-6.4156,-6.5298,-6.5298,-6.4484,-6.3066,-6.1375,-6.0722,-6.071,-6.0572,-6.052,-6.0455,0.0,0.0,0.0,0.0,0.0,0.0,0.0,0.0,-7.0898,-7.0898,-7.0898,0.0,0.0,0.0,0.0,0.0,-6.7324,-6.6379,-6.6585,-6.7413,-6.8358,-6.933,-6.8549,-6.851,-6.9372,-6.7693,-6.6795,-6.6795,-6.6642,-6.6418,-6.6108,-6.6108,-6.6019,-6.5897,-6.5897,-6.5436,-6.4551,-6.3666,-6.2858,-6.2024,-6.1127,-6.0781,-6.0793,0.0,0.0,0.0,0.0,0.0,0.0,0.0,-6.0034,-6.0182,-6.0069,-5.8918,-5.774,-5.8359,-5.7916,-5.7205,-5.7076,-5.8242,-5.9935,-6.1666,-6.2101,-6.3217,-6.7398,-6.6436,-6.5359,-6.7885,-6.9744,-7.0398,-6.8706,-6.7705,-6.6859,-6.6051,-6.5205,-6.4936,-6.5782,-6.5897,-6.5897,-6.5897,-6.5897,-6.5755,-6.5444,-6.5413,-6.5579,-6.6043,-6.5149,-6.4953,-6.5831,-6.4918,-6.4359,-6.4359,-6.4359,-6.3997,-6.32,-6.3164,-6.2802,-6.1978,-6.1978,-6.2265,-6.2695,-6.2212,-6.2806,-6.4151,-6.3615,-6.4019,-6.5085,-6.5085,-6.4299,-6.2924,-6.1237,-6.0585,-6.0559,-6.0387,-6.0293,-6.0251,0.0,0.0,0.0,0.0,0.0,0.0,0.0,0.0,-7.0898,-7.0898,-7.0898,0.0,0.0,0.0,0.0,0.0,0.0,-6.699,-6.6418,-6.7786,-6.8468,-6.8163,-6.7891,-6.7932,-6.8358,-6.7227,-6.6605,-6.6444,-6.6291,-6.6158,-6.5982,-6.5982,-6.5933,-6.5897,-6.6474,-6.559,-6.3705,-6.4051,-6.3051,-6.1166,-6.0896,-6.0781,-6.0793,0.0,0.0,0.0,0.0,0.0,0.0,0.0,0.0,0.0,-6.0858,-6.0119,-5.9406,-6.0076,-5.9261,-5.8355,-5.9386,-5.9588,-6.005,-6.2358,-6.2935,-6.3435,-6.532,-6.6051,-6.6936,-6.8898,-6.9706,-6.9513,-6.7782,-6.8744,-6.909,-6.7051,-6.7051,-6.7167,-6.6782,-6.6244,-6.5897,-6.5897,-6.5897,-6.5833,-6.5552,-6.5474,-6.5397,-6.5399,-6.4391,-6.3862,-6.4122,-6.3236,-6.273,-6.273,-6.273,-6.2621,-6.2367,-6.2367,-6.2259,-6.1978,-6.1978,-6.2265,-6.2695,-6.2212,-6.2581,-6.3615,-6.3483,-6.3855,-6.4552,-6.3932,-6.311,-6.2093,-6.1108,-6.0673,-6.0559,-6.0387,-6.0223,-6.0144,0.0,0.0,0.0,0.0,0.0,0.0,0.0,0.0,-7.0898,-7.0898,-7.0898,-7.0898,0.0,0.0,0.0,0.0,-6.7518,-6.6864,-6.6743,-6.7411,-6.7881,-6.8109,-6.7449,-6.7143,-6.7262,-6.6704,-6.6353,-6.6209,-6.6129,-6.603,-6.5897,-6.5897,-6.5897,-6.5897,-6.6051,-6.5051,-6.3308,-6.3512,-6.2512,-6.0781,-6.0781,-6.0781,-6.0781,0.0,0.0,0.0,0.0,0.0,0.0,0.0,0.0,0.0,-6.0549,-6.0218,-5.9963,-6.0316,-5.9446,-5.876,-6.0354,-6.0435,-6.0781,-6.4012,-6.4589,-6.4628,-6.5859,-6.6628,-6.7667,-6.9744,-7.0167,-6.986,-6.8783,-6.986,-7.0283,-6.8436,-6.8282,-6.809,-6.7205,-6.6397,-6.5897,-6.5897,-6.5897,-6.5808,-6.5608,-6.5465,-6.5314,-6.5101,-6.4215,-6.3615,-6.3416,-6.267,-6.2185,-6.2005,-6.1978,-6.1978,-6.1978,-6.1978,-6.1978,-6.1978,-6.1978,-6.2132,-6.2402,-6.2105,-6.2412,-6.3141,-6.3527,-6.3866,-6.4026,-6.3238,-6.2428,-6.1655,-6.0904,-6.0533,-6.0441,-6.0304,-6.0144,-6.0029,0.0,0.0,-7.0898,-7.0898,0.0,0.0,0.0,0.0,-7.0898,-7.0898,-7.0898,-7.0898,0.0,0.0,0.0,0.0,0.0,0.0,-6.7448,-6.6812,-6.7135,-6.8674,-6.7176,-6.6283,-6.6267,-6.6157,-6.6098,-6.6077,-6.6077,-6.6008,-6.5897,-6.5897,-6.5897,-6.5859,-6.5051,-6.4205,-6.3231,-6.2512,-6.1666,-6.0781,-6.0781,-6.0781,-6.0781,-6.0781,0.0,0.0,0.0,0.0,0.0,0.0,0.0,0.0,-5.9656,-5.9693,-5.9766,-5.9645,-5.9165,-5.8973,-6.0589,-6.1012,-6.1973,-6.5897,-6.6359,-6.6359,-6.8205,-6.7975,-6.8013,-7.0398,-7.0821,-7.0821,-7.0898,-7.0898,-7.0667,-6.9937,-6.9013,-6.8129,-6.7321,-6.6474,-6.5897,-6.5897,-6.5897,-6.5846,-6.5635,-6.5479,-6.5314,-6.5134,-6.4539,-6.3988,-6.3438,-6.2951,-6.2479,-6.2005,-6.1978,-6.1978,-6.1978,-6.1978,-6.1978,-6.1978,-6.1978,-6.1978,-6.1978,-6.1978,-6.2255,-6.2818,-6.3718,-6.3879,-6.3448,-6.2835,-6.2155,-6.1387,-6.0599,-6.0293,-6.0265,-6.0144,-6.0029,-5.9902,0.0,0.0,-7.0898,-7.0898,0.0,0.0,0.0,0.0,0.0,-7.0898,-7.0898,0.0,0.0,0.0,0.0,0.0,0.0,0.0,-6.8206,-6.8629,-6.8513,-6.7533,-6.6629,-6.6098,-6.599,-6.6046,-6.6063,-6.5946,-6.5946,-6.5921,-6.5897,-6.5897,-6.5897,-6.5897,-6.5705,-6.4743,-6.3269,-6.3128,-6.2166,-6.0781,-6.0781,-6.0781,-6.0781,-6.0781,-6.0781,0.0,0.0,0.0,0.0,0.0,0.0,0.0,-6.0535,-6.0546,-6.058,-6.0535,-6.0858,-6.1512,-6.2474,-6.2781,-6.3128,-6.4743,-6.5513,-6.6667,-6.9667,-6.9744,-6.9475,-7.0667,-7.0398,-7.0167,-7.0783,-7.0898,-7.0821,-7.0667,-6.9398,-6.8321,-6.8167,-6.6821,-6.5897,-6.5897,-6.5897,-6.5885,-6.5859,-6.5576,-6.5398,-6.5329,-6.4613,-6.3988,-6.3438,-6.2951,-6.2479,-6.2005,-6.1978,-6.1978,-6.1978,-6.1978,-6.1978,-6.1978,-6.1978,-6.1978,-6.1978,-6.1978,-6.2464,-6.328,-6.3483,-6.3228,-6.2652,-6.2607,-6.1751,-6.0425,-6.0328,-6.0223,-6.0144,-6.0114,-6.0029,-5.9902,0.0,0.0,0.0,0.0,0.0,0.0,0.0,0.0,0.0,0.0,0.0,0.0,0.0,0.0,0.0,0.0,0.0,0.0,-6.9013,-6.9052,-6.8475,-6.7167,-6.6417,-6.5967,-6.591,-6.5955,-6.5955,-6.5897,-6.5897,-6.5897,-6.5897,-6.5897,-6.5897,-6.5859,-6.5013,-6.4166,-6.3231,-6.2435,-6.1589,-6.0781,-6.0781,-6.0781,-6.0781,-6.0781,-6.0781,-6.0781,-6.0781,0.0,0.0,0.0,0.0,0.0,0.0,0.0,-6.1331,-6.0935,-6.1127,-6.1743,-6.2974,-6.3589,-6.4436,-6.6513,-6.7667,-6.8667,-7.0014,-7.0283,-7.0398,-7.0821,-7.0552,-7.0398,-7.0821,-7.0898,-7.0898,-7.0898,-6.9475,-6.8385,-6.8385,-6.6974,-6.5897,-6.5897,-6.5897,-6.5872,-6.5768,-6.5561,-6.5345,-6.5267,-6.4795,-6.4192,-6.3461,-6.3164,-6.2745,-6.2114,-6.2033,-6.2033,-6.2114,-6.2033,-6.1978,-6.1978,-6.1978,-6.1978,-6.1978,-6.1978,-6.2541,-6.3453,-6.3416,-6.3035,-6.2387,-6.2531,-6.1606,-6.0099,-6.0188,-6.0173,-6.0084,-6.0045,-5.9966,-5.9902,0.0,0.0,0.0,0.0,0.0,0.0,0.0,0.0,0.0,0.0,0.0,0.0,0.0,0.0,0.0,0.0,0.0,0.0,-6.986,-6.8975,-6.8013,-6.7128,-6.632,-6.5897,-6.5897,-6.5897,-6.5897,-6.5897,-6.5897,-6.6051,-6.632,-6.632,-6.632,-6.6244,-6.4512,-6.3589,-6.3192,-6.1512,-6.0781,-6.0781,-6.0781,-6.0781,-6.0781,-6.0781,-6.0781,-6.0781,-6.0781,-6.0781,-6.0781,-6.0781,0.0,0.0,0.0,0.0,-6.1716,-6.0819,-6.0896,-6.1512,-6.2743,-6.4051,-6.5782,-6.8936,-7.009,-7.036,-6.9975,-7.0321,-7.0744,-7.086,-7.0898,-7.0898,-7.0898,-7.0898,-7.0898,-7.0898,-6.9475,-6.8385,-6.8385,-6.6974,-6.5897,-6.5897,-6.5897,-6.5821,-6.5649,-6.5479,-6.5314,-6.515,-6.501,-6.4483,-6.3505,-6.3438,-6.3084,-6.2238,-6.2141,-6.2114,-6.2212,-6.2141,-6.206,-6.206,-6.2033,-6.2005,-6.1978,-6.1978,-6.2541,-6.3453,-6.3267,-6.2865,-6.2387,-6.2347,-6.1422,-6.0053,-6.0053,-6.0053,-6.0038,-5.995,-5.9902,-5.9902,0.0,0.0,0.0,0.0,0.0,0.0,0.0,0.0,0.0,0.0,-7.0475,-7.0629,0.0,0.0,-7.0744,-7.0744,-7.0629,-7.0629,-7.0744,0.0,0.0,-6.7128,-6.632,-6.5897,-6.5897,-6.5897,-6.5897,-6.5897,-6.5897,-6.6628,-6.809,-6.809,-6.809,-6.8013,-6.6282,-6.4705,-6.3192,-6.1512,-6.0781,-6.0781,-6.0781,-6.0781,-6.0781,-6.0781,-6.0781,-6.0781,-6.0781,-6.0781,-6.0781,-6.0781,-6.0781,0.0,0.0,0.0,-6.0781,-5.9935,-6.1243,-6.2858,-6.2397,-6.4486,-6.7244,-6.9206,-6.9206,-6.909,-7.0437,-7.0283,-7.0052,-7.0744,-7.0898,-7.0898,-7.0898,-7.0898,-7.0898,-7.0898,-6.9475,-6.8385,-6.8385,-6.6974,-6.5897,-6.5897,-6.5897,-6.5897,-6.5872,-6.559,-6.5398,-6.5345,-6.5078,-6.4539,-6.369,-6.3683,-6.3238,-6.2397,-6.2381,-6.2381,-6.2344,-6.2381,-6.2354,-6.2354,-6.2248,-6.2114,-6.1978,-6.1978,-6.2504,-6.3379,-6.2651,-6.2378,-6.2349,-6.1624,-6.0768,-5.9918,-5.9918,-5.9918,-5.9918,-5.9902,-5.9902,-5.9902,0.0,0.0,0.0,0.0,0.0,0.0,0.0,0.0,0.0,0.0,0.0,-7.0783,-7.0398,-7.0706,-7.0898,-7.0898,-7.0898,-7.0706,-7.0244,-6.8629,-6.7513,-6.7128,-6.632,-6.5897,-6.5897,-6.5897,-6.5897,-6.5897,-6.5897,-6.7244,-6.9821,-6.9821,-6.9321,-6.8359,-6.7628,-6.582,-6.3231,-6.2512,-6.1666,-6.0781,-6.0781,-6.0781,-6.0781,-6.0781,-6.0781,-6.0781,-6.0781,-6.0781,-6.0781,-6.0781,-6.0781,-6.0781,-6.0781,0.0,0.0,0.0,-6.1012,-6.2243,-6.3782,-6.4936,-6.6436,-6.959,-6.9398,-6.8859,-7.0514,-7.0283,-6.9937,-7.0744,-7.0898,-7.0898,-7.0898,-7.0898,-7.0898,-7.0898,-6.9475,-6.8385,-6.8385,-6.6974,-6.5897,-6.5897,-6.5897,-6.5872,-6.5742,-6.558,-6.5435,-6.5252,-6.5106,-6.4632,-6.3749,-6.3705,-6.3345,-6.2526,-6.2423,-6.2423,-6.25,-6.2423,-6.2344,-6.2265,-6.2212,-6.2141,-6.1978,-6.1978,-6.2504,-6.3319,-6.2267,-6.2039,-6.2332,-6.1216,-6.0437,-5.9902,-5.9902,-5.9902,-5.9902,-5.9902,-5.9902,-5.9902,0.0,0.0,0.0,0.0,0.0,0.0,0.0,0.0,0.0,0.0,0.0,-7.0821,-7.0629,0.0,0.0,0.0,-7.0591,-7.0167,-6.9129,-6.7821,-6.7013,-6.6782,-6.6205,-6.5897,-6.5897,-6.5897,-6.5897,-6.5897,-6.5897,-6.7398,-7.0283,-7.0706,-7.0129,-6.8744,-6.85,-6.6859,-6.4243,-6.3589,-6.2589,-6.1435,-6.1435,-6.1166,-6.0781,-6.0781,-6.0781,-6.0781,-6.0781,-6.0781,-6.0781,-6.0781,-6.0781,-6.0781,-6.0781,-6.0781,0.0,0.0,0.0,-6.1435,-6.4436,-6.4936,-6.5474,-6.9052,-6.8975,-6.8475,-6.9937,-6.9821,-6.959,-7.0437,-7.0744,-7.0898,-7.0898,-7.0898,-7.0821,-7.0629,-6.936,-6.8321,-6.809,-6.6821,-6.5897,-6.5897,-6.5897,-6.5859,-6.5701,-6.5622,-6.5494,-6.522,-6.5117,-6.4704,-6.3814,-6.3749,-6.3414,-6.2679,-6.2552,-6.2552,-6.2654,-6.2552,-6.2423,-6.2291,-6.2265,-6.2195,-6.206,-6.2005,-6.2354,-6.284,-6.169,-6.158,-6.2138,-6.0735,-6.0053,-5.9902,-5.9902,-5.9902,-5.9902,-5.9902,-5.9902,-5.9902,0.0,0.0,0.0,0.0,0.0,0.0,0.0,0.0,0.0,0.0,0.0,-7.0591,-6.986,-7.0437,-7.0591,-6.9821,-6.9744,-6.9052,-6.7359,-6.7128,-6.6744,-6.6013,-6.5897,0.0,-6.5897,-6.5897,-6.5897,-6.5897,-6.5897,-6.6782,-6.8538,-7.0167,-7.0437,-6.959,-6.8783,-6.7859,-6.6744,-6.432,-6.3231,-6.3166,-6.3166,-6.2204,-6.0781,-6.0781,-6.0781,-6.0781,-6.0781,-6.0781,-6.0781,-6.0781,-6.0781,-6.0781,-6.0781,-6.0781,-6.0781,0.0,0.0,0.0,-6.2974,-6.4012,-6.5013,-6.6859,-6.7244,-6.7398,-6.8321,-6.85,-6.8706,-6.959,-7.036,-7.0898,-7.0898,-7.0898,-7.0667,-6.9898,-6.9013,-6.8129,-6.7282,-6.6436,-6.5897,-6.5897,-6.5897,-6.5897,-6.5885,-6.5728,-6.5537,-6.5413,-6.522,-6.4777,-6.392,-6.3878,-6.355,-6.2805,-6.278,-6.278,-6.278,-6.278,-6.2705,-6.2578,-6.2449,-6.2291,-6.2195,-6.206,-6.1855,-6.1545,-6.0713,-6.09,-6.1618,-5.9966,-5.9525,-5.9902,-5.9902,-5.9902,-5.9902,-5.9902,-5.9902,-5.9902,0.0,0.0,0.0,0.0,0.0,0.0,0.0,0.0,0.0,0.0,0.0,0.0,0.0,-7.0283,-7.0014,-6.9744,-6.8667,-6.7782,-6.7128,-6.6628,-6.6205,-6.5897,-6.5897,-6.5897,-6.5897,-6.5897,-6.5897,-6.5897,-6.5897,-6.6744,-6.8398,-6.9013,-6.9129,-6.8936,-7.0808,-6.936,-6.5551,-6.6282,-6.4705,-6.1897,-6.4089,-6.3281,-6.0935,-6.1973,-6.2089,-6.1562,-6.1012,-6.1166,-6.155,-6.0973,-6.0781,-6.0781,-6.0781,-6.0781,-6.0781,-6.0781,-6.0781,-6.1166,-6.2858,-6.3166,-6.3666,-6.6397,-6.6282,-6.6013,-6.7975,-6.8385,-6.8513,-6.8821,-6.9937,-7.0744,-7.0244,-7.0552,-7.0629,-6.9821,-6.8975,-6.809,-6.7205,-6.6397,-6.5897,-6.5897,-6.5897,-6.5897,-6.5897,-6.5821,-6.5688,-6.5429,-6.4337,-6.3761,-6.3904,-6.2907,-6.245,-6.2768,-6.278,-6.278,-6.278,-6.278,-6.273,-6.2603,-6.2449,-6.2354,-6.2185,-6.206,-6.1679,-6.0991,-6.0267,-6.0342,-6.0811,-5.9494,-5.9326,-5.9902,-5.9902,-5.9902,-5.9902,-5.9902,-5.9902,-5.9902,0.0,0.0,0.0,0.0,0.0,-7.0898,-7.0898,-7.0898,-7.0898,-7.0898,0.0,0.0,0.0,0.0,-6.9167,-6.8859,-6.7513,-6.6705,-6.6705,-6.6205,-6.5897,-6.5897,-6.5897,-6.5897,-6.5897,-6.5897,-6.5897,-6.5897,-6.5897,-6.6474,-6.759,-6.8129,-6.809,-6.7667,-7.0514,-6.959,-6.6013,-6.7667,-6.6436,-6.3512,-6.5205,-6.4359,-6.2127,-6.2704,-6.2551,-6.2062,-6.1743,-6.182,-6.2062,-6.1743,-6.1627,-6.1589,-6.132,-6.105,-6.0781,-6.0781,-6.0781,-6.105,-6.2166,-6.2474,-6.3051,-6.5282,-6.5436,-6.5474,-6.7167,-6.8013,-6.8385,-6.8385,-6.9744,-7.0667,-6.986,-7.0129,-7.0244,-6.9398,-6.8552,-6.7667,-6.6821,-6.6244,-6.5897,-6.5897,-6.5897,-6.5897,-6.5897,-6.5897,-6.5742,-6.5444,-6.4382,-6.379,-6.3904,-6.2811,-6.2413,-6.2768,-6.278,-6.278,-6.278,-6.278,-6.2755,-6.2654,-6.2526,-6.2397,-6.2238,-6.2141,-6.148,-6.0429,-6.0041,-6.001,-6.0204,-5.9204,-5.9234,-5.9902,-5.9902,-5.9902,-5.9902,-5.9902,-5.9918,-5.9934,0.0,0.0,-7.0898,-7.0898,-7.0898,-7.0898,-7.0898,-7.0898,-7.0898,-7.086,0.0,0.0,0.0,0.0,0.0,-6.7128,-6.6359,-6.5897,-6.5897,-6.5897,-6.5897,-6.5897,-6.5897,-6.5897,-6.5897,-6.5897,-6.5897,-6.5897,-6.5897,-6.5897,-6.5936,-6.7552,-6.7398,-6.5897,-6.7552,-6.8269,-6.8282,-6.8359,-6.8321,-6.8052,-6.659,-6.5397,-6.4282,-6.2781,-6.2139,-6.2139,-6.3012,-6.282,-6.2255,-6.3089,-6.3346,-6.3166,-6.232,-6.1485,-6.0781,-6.0781,-6.0819,-6.0819,0.0,0.0,0.0,-6.3308,-6.4589,-6.5859,-6.5897,-6.7167,-6.8359,-6.8308,-6.9667,-7.0591,-6.9783,-6.9629,-6.936,-6.8513,-6.7667,-6.6821,-6.6013,-6.5897,-6.5897,-6.5897,-6.5897,-6.5897,-6.5897,-6.5897,-6.5742,-6.5444,-6.5337,-6.493,-6.3942,-6.3878,-6.3527,-6.2805,-6.278,-6.278,-6.278,-6.278,-6.278,-6.278,-6.2654,-6.2526,-6.2397,-6.2265,-6.1313,-5.9823,-5.9914,-5.9892,-5.9738,-5.9082,-5.9234,-5.9902,-5.9902,-5.9902,-5.9902,-5.9902,-5.995,-6.0013,0.0,-7.0898,-7.0898,-7.0898,-7.0898,-7.0898,-7.0898,-7.0898,-7.0706,0.0,0.0,0.0,-6.8821,-6.7975,-6.7128,-6.6282,-6.6013,-6.5897,-6.5897,-6.5897,-6.5897,-6.5897,-6.5897,-6.5897,-6.5897,-6.5897,-6.5897,-6.5897,-6.5897,-6.5897,-6.5897,-6.5743,-6.5089,-6.4089,-6.5166,-6.532,-6.4846,-6.7359,-6.6282,-6.3243,-6.709,-6.5551,-6.1204,-6.382,-6.2935,-6.0589,-6.3281,-6.3705,-6.3205,-6.4666,-6.4359,-6.3051,-6.1589,-6.0973,-6.0781,-6.0781,-6.1243,-6.1601,-6.0973,0.0,0.0,0.0,0.0,0.0,-6.5743,-6.6705,-6.7282,-6.6705,-6.7936,-6.8821,-6.7975,-6.7821,-6.7744,-6.7513,-6.7244,-6.6821,-6.6013,-6.5897,-6.5897,-6.5897,-6.5897,-6.5897,-6.5897,-6.5897,-6.5742,-6.5444,-6.4267,-6.3676,-6.3867,-6.3391,-6.3026,-6.2805,-6.278,-6.278,-6.278,-6.278,-6.278,-6.278,-6.2654,-6.2578,-6.249,-6.1813,-6.0923,-5.9903,-5.9481,-5.9187,-5.9045,-5.898,-5.9327,-5.9902,-5.9902,-5.9902,-5.9902,-5.9902,-5.995,-6.0013,-7.0744,-7.0898,-7.0898,-7.0898,-7.0629,-7.0398,-7.0398,-7.009,-6.9706,0.0,0.0,0.0,-6.7436,-6.6898,-6.6397,-6.5936,-6.5897,-6.5897,-6.5897,-6.5897,-6.5897,-6.5897,-6.5897,-6.5897,-6.5897,-6.5897,-6.5897,-6.5897,-6.5897,-6.5897,-6.5859,-6.5013,-6.4128,-6.3308,-6.3474,-6.3051,-6.2435,-6.5128,-6.5397,-6.4205,-6.7013,-6.6167,-6.3435,-6.559,-6.4628,-6.2512,-6.5205,-6.5628,-6.5089,-6.6474,-6.5551,-6.3782,-6.3512,-6.2474,-6.1473,-6.2166,-6.2243,-6.1985,-6.1485,-6.232,-6.3308,-6.3308,0.0,0.0,-6.532,-6.6244,-6.6859,-6.6051,-6.7244,-6.8052,-6.6821,-6.659,-6.6474,-6.6128,-6.6051,-6.6013,-6.5897,-6.5897,-6.5897,-6.5897,-6.5897,-6.5897,-6.5897,-6.5897,-6.5768,-6.5494,-6.4541,-6.3942,-6.3904,-6.3391,-6.299,-6.2805,-6.278,-6.278,-6.278,-6.278,-6.278,-6.278,-6.2705,-6.2654,-6.2567,-6.1686,-6.0832,-6.0053,-5.9298,-5.8892,-5.8702,-5.8905,-5.9345,-5.9902,-5.9902,-5.9902,-5.9902,-5.9902,-5.9966,-6.0022,0.0,-7.0629,-7.0629,-7.0629,-7.0014,-6.9552,-6.9552,-6.8898,-6.8359,0.0,-6.7513,-6.6667,-6.5974,-6.5897,-6.5897,-6.5897,-6.5897,-6.5897,-6.5897,-6.5897,-6.5897,-6.5897,-6.5897,-6.5897,-6.5897,-6.5897,-6.5897,-6.5897,-6.5897,-6.5859,-6.5743,-6.4859,-6.3974,-6.3128,-6.232,-6.1524,-6.0896,-6.2397,-6.4885,-6.7731,-6.6436,-6.6667,-6.7769,-6.7282,-6.6474,-6.5859,-6.7859,-6.7936,-6.7244,-6.8129,-6.6898,-6.5243,-6.6436,-6.4782,-6.2639,-6.4051,-6.3397,-6.2216,-6.2216,-6.282,-6.3435,-6.3435,-6.4666,0.0,-6.4936,-6.5897,-6.6744,-6.6051,-6.709,-6.7628,-6.6051,-6.5743,-6.5474,-6.4589,-6.4474,-6.4743,-6.5628,-6.582,-6.5859,-6.5782,-6.582,-6.5897,-6.5897,-6.5897,-6.5808,-6.5608,-6.5435,-6.4917,-6.3963,-6.3646,-6.3262,-6.2805,-6.278,-6.278,-6.278,-6.278,-6.278,-6.278,-6.278,-6.2693,-6.2446,-6.1677,-6.0847,-6.0005,-5.9237,-5.8727,-5.8492,-5.8805,-5.929,-5.9853,-5.9885,-5.9902,-5.9902,-5.9902,-5.9998,-6.0099,-6.8821,-6.8898,-6.8898,-6.8898,-6.8783,-6.8667,-6.8667,-6.85,-6.8167,-6.7436,-6.6628,-6.6051,-6.5897,-6.5897,-6.5897,-6.5897,-6.5897,-6.5897,-6.5897,-6.5897,-6.5897,-6.5897,-6.5897,-6.5897,-6.5897,-6.5897,-6.5897,-6.5897,-6.5897,-6.5551,-6.482,-6.3974,-6.3128,-6.2293,-6.1435,-6.0973,-6.0819,-6.1166,-6.2435,-6.4385,-6.5474,-6.5243,-6.45,-6.6359,-6.5743,-6.432,-6.809,-6.8436,-6.7244,-6.8129,-6.809,-6.7359,-6.5628,-6.4628,-6.4051,-6.3666,-6.332,-6.3089,-6.3089,-6.3705,-6.4359,-6.4359,-6.5128,0.0,-6.5705,-6.5897,-6.609,-6.5936,-6.6167,-6.6051,-6.5051,-6.4859,-6.4589,-6.3705,-6.3551,-6.3858,-6.4743,-6.5474,-6.5628,-6.4936,-6.5474,-6.5897,-6.5897,-6.5897,-6.5808,-6.5608,-6.5182,-6.4649,-6.4009,-6.3668,-6.3262,-6.2805,-6.278,-6.278,-6.278,-6.278,-6.278,-6.278,-6.278,-6.245,-6.1789,-6.0958,-6.0103,-5.92,-5.8396,-5.8153,-5.8341,-5.8428,-5.8868,-5.9505,-5.9803,-5.9902,-5.9902,-5.9902,-5.9998,-6.0099,-6.8321,-6.8385,-6.8385,-6.8385,-6.8052,-6.7744,-6.7744,-6.7398,-6.7013,-6.6551,-6.6128,-6.5897,-6.5897,-6.5897,-6.5897,-6.5897,-6.5897,-6.5897,-6.5897,-6.5897,-6.5897,-6.5897,-6.5897,-6.5897,-6.5897,-6.5897,-6.5897,-6.5897,-6.5474,-6.5013,-6.4589,-6.3281,-6.2474,-6.2062,-6.1166,-6.0781,-6.0781,-6.0781,-6.155,-6.2897,-6.505,-6.5678,-6.5524,-6.8103,-6.8038,-6.6921,-6.9425,-6.9797,-6.9079,-6.9104,-6.8822,-6.8296,-6.7449,-6.6307,-6.5243,-6.5205,-6.4589,-6.3935,-6.3935,-6.4282,-6.4589,-6.4589,-6.5243,0.0,0.0,-6.559,-6.5782,-6.532,-6.559,-6.5513,-6.4205,-6.3935,-6.3666,-6.2858,-6.2704,-6.2858,-6.3281,-6.4436,-6.5243,-6.5243,-6.5628,-6.5897,-6.5897,-6.5897,-6.5795,-6.5566,-6.5291,-6.4827,-6.405,-6.3841,-6.3445,-6.2805,-6.278,-6.278,-6.278,-6.273,-6.2705,-6.2705,-6.2705,-6.2215,-6.1359,-6.0628,-5.9798,-5.8957,-5.8068,-5.7821,-5.8051,-5.8164,-5.8561,-5.914,-5.9525,-5.9732,-5.9902,-5.9902,-5.9998,-6.0099,-6.7795,-6.7924,-6.7924,-6.7949,-6.7346,-6.6885,-6.6885,-6.6346,-6.5923,-6.5923,-6.5923,-6.6025,-6.6359,-6.609,-6.6013,-6.6359,-6.6397,-6.6244,-6.5897,-6.6205,-6.6244,-6.5897,-6.5897,-6.5897,-6.5897,-6.5897,-6.5897,-6.5897,-6.5013,-6.4512,-6.432,-6.282,-6.2024,-6.1831,-6.1139,-6.0985,-6.1281,-6.1293,-6.187,-6.3,-6.5459,-6.6677,-6.7229,-6.9861,-7.0425,-6.995,-7.0709,-7.1005,-7.0902,-7.0155,-6.941,-6.8872,-6.9399,-6.7987,-6.6281,-6.6923,-6.5923,-6.464,-6.482,-6.4743,-6.4628,-6.482,-6.5397,-6.5705,0.0,0.0,0.0,-6.5013,-6.5397,-6.5359,-6.3628,-6.3308,-6.2974,-6.2012,-6.187,-6.1908,-6.2101,-6.3281,-6.4397,-6.5089,-6.5282,-6.5397,-6.5397,-6.5551,-6.5628,-6.5523,-6.5509,-6.5079,-6.405,-6.4009,-6.3646,-6.283,-6.278,-6.278,-6.278,-6.2679,-6.2603,-6.2603,-6.2431,-6.1843,-6.0938,-6.0236,-5.9481,-5.8628,-5.7875,-5.7607,-5.7763,-5.7914,-5.826,-5.8727,-5.9197,-5.9595,-5.9902,-5.9902,-5.995,-5.9991,-6.6229,-6.6263,-6.6275,-6.6266,-6.6189,-6.6112,-6.6112,-6.6073,-6.5996,-6.5996,-6.5996,-6.6537,-6.7975,-6.6782,-6.6513,-6.8013,-6.8129,-6.7475,-6.6013,-6.7282,-6.7436,-6.5974,-6.5897,-6.5897,-6.5897,-6.5897,-6.5897,-6.5897,-6.5013,-6.4205,-6.3435,-6.2512,-6.1678,-6.0947,-6.0916,-6.1674,-6.3012,-6.3072,-6.3948,-6.5461,-6.7372,-6.7295,-6.6346,-6.895,-6.9862,-6.9809,-7.0671,-7.1005,-7.0902,-7.0155,-6.982,-6.9628,-6.8972,-6.7995,-6.7135,-6.7164,-6.5996,-6.4817,-6.5564,-6.5205,-6.4782,-6.5551,-6.582,-6.5859,-6.5782,0.0,-6.5859,-6.5782,0.0,-6.5359,-6.3628,0.0,0.0,-6.1204,-6.0935,-6.1216,-6.1985,-6.2255,-6.2409,-6.2524,-6.3166,-6.3589,-6.3589,-6.4282,-6.4962,-6.547,-6.5552,-6.5128,-6.407,-6.4053,-6.3696,-6.283,-6.278,-6.278,-6.278,-6.2679,-6.2603,-6.2603,-6.1744,-6.0927,-6.0099,-5.9322,-5.8445,-5.7582,-5.7449,-5.7412,-5.7437,-5.7461,-5.7737,-5.826,-5.8968,-5.9505,-5.9902,-5.9902,-5.9765,-5.9554,-6.573,-6.5769,-6.5769,-6.5781,-6.5781,-6.5781,-6.5781,-6.6282,-6.6448,-6.5947,-6.6369,-6.714,-6.8334,-6.7808,-6.8026,-6.9772,-6.9886,-6.9565,-6.8886,-6.8578,-6.809,-6.7398,-6.6436,-6.5897,-6.5897,-6.5897,-6.5628,-6.5166,-6.4282,-6.3435,-6.2589,-6.1743,-6.1127,-6.0781,-6.0769,-6.1707,-6.3258,-6.3294,-6.4294,-6.5859,-6.7154,-6.7205,-6.6872,-6.9553,-7.0567,-7.0553,-7.0459,-7.0729,-7.0937,-6.9683,-6.9876,-7.0317,-6.849,-6.7965,-6.7853,-6.6827,-6.6017,-6.5531,-6.5856,-6.5676,-6.5495,-6.5807,-6.5935,-6.5947,-6.591,-6.5897,-6.5897,-6.5897,0.0,0.0,0.0,0.0,0.0,0.0,-6.0781,-6.0935,-6.1281,-6.0896,-6.0973,-6.1985,-6.282,-6.3512,-6.4012,-6.3512,-6.3399,-6.3991,-6.3987,-6.353,-6.2487,-6.336,-6.3513,-6.2705,-6.2603,-6.2603,-6.2679,-6.2475,-6.237,-6.237,-6.1517,-6.0638,-5.9761,-5.9037,-5.8201,-5.7388,-5.7313,-5.7313,-5.7388,-5.7313,-5.7546,-5.806,-5.8628,-5.9122,-5.9523,-5.982,-5.9732,-5.9485,-6.5367,-6.5513,-6.5649,-6.5635,-6.5635,-6.5635,-6.5635,-6.6665,-6.7192,-6.6526,-6.7064,-6.7898,-6.8988,-6.8218,-6.8512,-7.0733,-7.0871,-7.0871,-7.0925,-6.9769,-6.9064,-6.9077,-6.7051,-6.6102,-6.6589,-6.591,-6.5243,-6.4589,-6.3512,-6.2666,-6.2101,-6.1204,-6.0793,-6.0843,-6.0781,-6.1707,-6.3284,-6.3782,-6.4962,-6.6537,-6.7612,-6.8048,-6.8281,-6.999,-7.0812,-7.1029,-7.0456,-7.0649,-7.0934,-6.9596,-6.9905,-7.0501,-6.8442,-6.8022,-6.8066,-6.6769,-6.6229,-6.6024,-6.6005,-6.6017,-6.599,-6.5933,-6.5972,-6.5984,-6.5935,-6.591,-6.5897,-6.5897,-6.5718,0.0,0.0,0.0,-6.2486,-6.105,0.0,-6.0781,-6.0781,-6.0242,-6.0242,-6.1281,-6.2127,-6.2781,-6.3166,-6.2512,-6.2131,-6.224,-6.2643,-6.2368,-6.1317,-6.2838,-6.3354,-6.2578,-6.2449,-6.2423,-6.2552,-6.2318,-6.2076,-6.1858,-6.1032,-6.0155,-5.9253,-5.8558,-5.7919,-5.7338,-5.7239,-5.7239,-5.7338,-5.7239,-5.7412,-5.776,-5.8223,-5.8607,-5.8892,-5.9488,-5.954,-5.9325,-6.4739,-6.5344,-6.5756,-6.5717,-6.5703,-6.5703,-6.5703,-6.7153,-6.8243,-6.8136,-6.8136,-6.88,-7.0469,-6.7678,-6.7027,-7.0416,-7.0723,-7.0723,-7.0708,-7.0743,-7.0738,-7.0821,-6.7667,-6.6705,-6.8385,-6.5935,-6.4628,-6.4589,-6.2935,-6.2139,-6.2101,-6.1204,-6.0816,-6.0911,-6.0965,-6.1847,-6.3423,-6.51,-6.6665,-6.815,-6.9835,-7.0532,-7.0493,-6.9725,-6.9999,-7.0829,-7.0927,-7.0966,-7.0889,-7.0192,-7.0015,0.0,-6.9048,-6.8186,-6.7518,-6.7387,-6.6747,-6.608,-6.6024,-6.6001,-6.6001,-6.6001,-6.6005,-6.6008,-6.5996,-6.5947,-6.5897,-6.5897,-6.5293,-6.442,-6.3474,-6.2675,-6.1851,-6.0947,-6.0781,0.0,0.0,-6.0781,-6.0473,-5.9665,-6.0358,-6.055,-5.9742,-6.1127,-6.1607,-6.0474,-6.1993,-6.2493,-6.1251,-6.2844,-6.3363,-6.2423,-6.2397,-6.2397,-6.2433,-6.2265,-6.1822,-6.1022,-6.0092,-5.9216,-5.842,-5.7587,-5.7224,-5.7188,-5.7188,-5.7188,-5.7188,-5.7188,-5.7213,-5.7264,-5.7737,-5.7946,-5.8046,-5.8892,-5.914,-5.8945,-6.45,-6.4519,-6.4854,-6.5382,-6.5494,-6.5494,-6.5494,-6.6566,-6.7557,-6.8052,-6.867,-6.9927,-7.2163,-7.1336,-7.1106,-7.2332,-7.34,-7.3576,-7.2485,-7.2482,-7.2482,-7.2432,-7.0398,-6.8732,-6.7616,-6.6756,-6.524,-6.3014,-6.2436,-6.1896,-6.1357,-6.1048,-6.0944,-6.0965,-6.0944,-6.179,-6.3361,-6.5089,-6.6704,-6.8186,-6.9359,-6.9774,-6.975,-7.0141,-7.0527,-7.0871,-7.0912,-7.0939,0.0,-7.0016,-6.9733,-6.9501,-6.8101,-6.7458,-6.7111,-6.6509,-6.6112,-6.5907,0.0,0.0,-6.599,-6.5907,-6.5967,-6.6036,-6.6029,-6.597,-6.5984,-6.5982,-6.5702,-6.5062,-6.3696,-6.3161,-6.2432,-6.1108,-6.0843,-6.0781,0.0,-5.9858,-5.8627,-5.7165,-5.7742,-5.8588,-5.9435,-5.9011,-5.8762,-5.886,-5.9291,-5.9102,-5.8012,-6.0497,-6.1542,-6.069,-6.165,-6.2195,-6.2265,-6.1597,-6.1117,-6.0854,-5.946,-5.8673,-5.8383,-5.755,-5.7188,-5.7188,-5.7188,-5.7188,-5.7188,-5.7188,-5.7188,-5.7239,-5.7713,-5.7923,-5.7955,-5.8586,-5.8628,-5.8348,-6.4166,-6.3909,-6.4096,-6.4827,-6.5085,-6.5426,-6.6162,-6.6857,-6.7874,-6.9621,-6.9819,-7.0693,-7.2954,-7.2601,-7.247,-7.3123,-7.3575,-7.3904,-7.4082,-7.2432,-7.224,-7.4005,-7.1468,-6.9654,-6.8883,-6.7449,-6.5818,-6.3939,-6.248,-6.1808,-6.1885,-6.1267,-6.1008,-6.098,-6.0948,-6.1466,-6.2477,-6.4834,-6.6318,-6.7261,-6.874,-6.9444,-6.9671,-7.0049,-7.0386,-7.0743,-7.0801,-7.0815,-7.0714,-6.9885,-6.959,-6.9296,-6.7628,-6.709,-6.6936,-6.6051,-6.5782,-6.5769,-6.5769,-6.5846,0.0,-6.5807,-6.5895,-6.5967,-6.5978,-6.5931,-6.5946,-6.599,-6.5774,-6.5211,-6.415,-6.3399,-6.2556,-6.1511,-6.08,-6.0242,0.0,-5.8704,-5.7434,-5.628,-5.6934,-5.7627,-5.8088,-5.7742,-5.7389,-5.7196,-5.757,-5.7377,-5.6332,-5.9281,-6.0591,-5.9761,-6.1199,-6.1888,-6.1705,-6.109,-6.052,-5.9941,-5.8891,-5.8239,-5.7949,-5.7442,-5.7188,-5.7188,-5.7188,-5.7188,-5.7188,-5.7188,-5.7188,-5.7239,-5.7522,-5.7642,-5.7713,-5.8179,-5.8135,-5.7831,-6.3711,-6.3468,-6.3565,-6.3975,-6.4521,-6.5562,-6.7566,-6.7958,-6.9142,-7.2444,-7.1489,-7.1183,-7.2826,-7.1603,-7.1259,-7.275,-7.145,-7.1871,-7.5042,-7.0844,-7.0463,-7.5485,-7.1091,-6.964,-7.1977,-6.8075,-6.6308,-6.7064,-6.3053,-6.1923,-6.3488,-6.1769,-6.098,-6.1002,-6.0992,-6.0899,-6.1,-6.436,-6.5712,-6.5796,-6.8165,-6.9616,-7.0266,-6.9502,-6.9693,-7.0435,-7.0609,-7.0669,-7.0531,-6.9805,-6.9538,-6.9154,-6.7564,-6.7012,-6.682,-6.5961,-6.5718,-6.5718,-6.5718,-6.5731,-6.5731,-6.5731,-6.5691,0.0,-6.5832,-6.582,-6.5807,-6.5978,-6.5429,-6.4921,-6.4839,-6.34,-6.2193,-6.2165,-6.063,-5.9165,-5.8357,-5.7511,-5.6983,-5.6945,-5.7665,-5.7511,-5.5857,-5.7203,-5.7417,-5.565,-5.6843,-5.7264,-5.6332,-5.9132,-6.0397,-5.9605,-6.0991,-6.1399,-6.081,-6.0665,-5.9832,-5.8383,-5.8347,-5.7949,-5.7188,-5.7188,-5.7188,-5.7188,-5.7188,-5.7188,-5.7188,-5.7188,-5.7188,-5.7188,-5.7188,-5.7188,-5.7239,-5.7713,-5.7666,-5.7388,-6.3309,-6.2965,-6.3134,-6.3602,-6.5003,-6.6368,-6.7309,-6.8466,-6.9657,-7.0921,-7.1794,-7.2482,-7.2941,-7.3705,-7.3361,-7.1259,-7.1833,-7.2176,-7.1756,-7.1826,-7.2968,-7.5434,-7.389,-7.2355,-7.1029,-6.9376,-6.7808,-6.6275,-6.3973,-6.3113,-6.3593,-6.1772,-6.092,-6.0931,-6.0856,-6.0781,-6.0866,-6.423,-6.6648,-6.8241,-6.8241,-6.8738,-6.9502,-6.9273,-6.9693,-7.0419,-7.0467,-7.0101,-6.9543,-6.936,-6.8495,-6.7301,-6.6516,-6.5862,-6.528,-6.4684,-6.4536,-6.4536,-6.4536,-6.4605,-6.471,-6.471,-6.5029,-6.5326,0.0,0.0,0.0,-6.582,-6.569,-6.5418,-6.4921,-6.3395,-6.1996,-6.1422,-5.9782,-5.8319,-5.7434,-5.7137,-5.6753,-5.6088,-5.6284,-5.6256,-5.5752,-5.6088,-5.6121,-5.5535,-5.5772,-5.6048,-5.6295,0.0,-5.8076,-5.9569,-5.8275,-5.8601,-6.0774,-5.842,-5.7623,-5.8383,-5.7804,-5.7406,-5.7188,-5.7188,-5.7188,-5.7188,-5.7188,-5.7188,-5.7188,-5.7188,-5.7188,-5.7188,-5.7188,-5.7188,-5.7213,-5.7338,-5.7338,-5.7264,-6.311,-6.278,-6.288,-6.3158,-6.5305,-6.7247,-6.797,-6.8822,-7.0095,-7.2013,-7.2505,-7.3016,-7.3993,-7.4927,-7.4736,-7.2788,-7.2176,-7.21,-7.2597,-7.1548,-7.21,-7.4813,-7.3893,-7.2294,-7.0049,-6.9619,-6.8636,-6.6962,-6.4586,-6.3835,-6.4569,-6.2034,-6.0845,-6.0834,-6.0816,-6.071,-6.0802,-6.412,-6.6942,-6.9158,-6.8661,-6.8967,0.0,-6.9311,-6.9693,-7.031,-6.9756,-6.9285,-6.8828,-6.8485,-6.7376,-6.6023,-6.5351,-6.486,-6.4445,-6.4156,-6.4096,-6.4096,-6.4096,-6.4138,-6.4199,-6.4199,-6.4462,-6.4727,-6.4795,-6.4927,-6.5108,0.0,-6.5244,-6.5202,0.0,-6.3553,-6.1988,-6.0629,-5.9248,-5.8154,-5.7643,-5.7572,-5.7396,-5.6896,-5.7198,-5.7236,-5.6857,-5.6148,-5.5857,-5.6115,-5.5618,-5.5332,-5.541,0.0,-5.7205,-5.7145,-5.7495,-5.7713,-5.7847,-5.6296,-5.5981,-5.6901,-5.6416,-5.6536,-5.7188,-5.7188,-5.7188,-5.7188,-5.7188,-5.7188,-5.7188,-5.7188,-5.7188,-5.7188,-5.7188,-5.7188,-5.7188,-5.7188,-5.7188,-5.7213,-6.311,-6.278,-6.2879,-6.3099,-6.5485,-6.7808,-6.9042,-6.9439,-7.069,-7.388,-7.3202,-7.3077,-7.4787,-7.5221,-7.5315,-7.5086,-7.241,-7.1985,-7.4966,-7.0916,-7.0113,-7.4049,-7.2597,-7.103,-6.954,-6.9513,-6.9183,-6.8537,-6.523,-6.4372,-6.5743,-6.2346,-6.0757,-6.0757,-6.0746,-6.0942,-6.1427,-6.4097,-6.6751,-6.9196,-6.9196,-6.9616,-7.019,-6.9578,-6.9807,-7.0217,-6.8957,-6.8412,-6.8223,-6.7353,-6.6219,-6.5073,-6.4299,-6.4016,-6.3995,-6.3934,-6.3913,-6.3913,-6.3913,-6.3913,-6.3913,-6.3913,-6.3954,-6.4056,-6.4179,-6.4219,-6.4313,-6.4441,-6.4456,-6.4617,-6.5007,-6.3694,-6.1887,-5.9969,-5.8942,-5.8343,-5.8291,-5.8402,-5.8457,-5.8341,-5.9034,0.0,-5.8561,-5.7065,-5.6372,-5.6923,-5.6038,-5.5199,0.0,0.0,-5.6964,-5.4556,-5.7316,-5.7461,-5.4474,-5.4578,-5.4858,-5.5316,-5.5051,-5.5728,-5.7213,-5.7188,-5.7188,-5.7188,-5.7188,-5.7188,-5.7188,-5.7188,-5.7188,-5.7188,-5.7188,-5.7188,-5.7188,-5.7188,-5.7188,-5.7188,-6.311,-6.278,-6.322,-6.4615,-6.5338,-6.6675,-6.9499,-7.1435,-7.241,-7.2079,-7.2996,-7.3282,-7.2294,-7.377,-7.4294,-7.2908,-7.2635,-7.2788,-7.3399,-7.1909,-7.1985,-7.4125,-7.2597,-7.1565,-7.1259,-7.0604,-7.0225,-7.0262,-6.6863,-6.5396,-6.5705,-6.2247,-6.0661,-6.061,-6.0506,-6.2007,-6.4526,-6.4435,-6.6254,-6.9196,-6.9196,-6.9273,-6.9464,-6.9999,-7.0304,-7.0217,-6.8957,-6.8071,-6.7334,-6.6122,-6.5116,-6.4261,-6.3733,-6.3624,-6.3535,-6.3158,-6.3038,-6.3038,-6.3038,-6.3038,-6.3038,-6.3038,-6.3308,-6.3587,-6.3631,-6.3892,-6.4119,-6.4158,-6.4275,-6.4369,-6.4442,0.0,-6.1086,-5.9731,-5.8814,-5.8226,-5.8215,-5.8918,-5.9202,-5.8469,-5.9125,-5.9605,-5.9397,-5.8468,-5.7593,-5.6875,-5.6537,-5.6297,-5.6104,0.0,-5.5431,0.0,-5.5043,0.0,0.0,0.0,-5.4441,-5.6952,-5.5619,-5.5813,-5.7363,-5.7239,-5.7188,-5.7188,-5.7188,-5.7188,-5.7188,-5.7188,-5.7188,-5.7188,-5.7188,-5.7188,-5.7188,-5.7188,-5.7188,-5.7188,-6.4273,-6.3429,-6.3037,-6.387,-6.5411,-6.7063,-6.8605,-7.113,-7.2801,-7.246,-7.3155,-7.3426,-7.2875,-7.3725,-7.4115,-7.3548,-7.2947,-7.3074,-7.424,-7.2673,-7.2253,-7.3514,-7.2367,-7.1068,-6.9769,-7.019,-7.0031,-6.9245,-6.6719,-6.5523,-6.5517,-6.2076,-6.0518,-6.0518,-6.1315,-6.2853,-6.484,-6.5719,-6.7286,-6.9234,-6.9655,-6.9807,-6.9846,-7.0266,-7.0419,-7.0162,-6.8206,-6.7276,-6.6745,-6.5469,-6.4323,-6.3385,-6.3205,-6.3134,-6.3086,-6.288,-6.278,-6.278,-6.278,-6.278,-6.278,-6.278,-6.2941,-6.3134,-6.3134,-6.3285,-6.3408,-6.3408,-6.3483,-6.3472,-6.332,-6.2889,0.0,-6.1,-5.989,-5.9319,-5.9766,-5.9843,-5.9932,-6.0142,-6.0923,-6.1257,-6.0798,-6.0414,-5.948,-5.7654,-5.7341,-5.6706,-5.546,0.0,-5.572,0.0,0.0,0.0,-5.5208,0.0,0.0,-5.6343,-5.5507,-5.5909,-5.7388,-5.7313,-5.7264,-5.7188,-5.7188,-5.7188,-5.7188,-5.7188,-5.7188,-5.7188,-5.7188,-5.7188,-5.7188,-5.7188,-5.7188,-5.7188,-6.5815,-6.4751,-6.3943,-6.431,-6.6219,-6.7907,-6.8605,-7.0587,-7.2262,-7.3024,-7.3114,-7.3261,-7.3652,-7.3798,-7.3859,-7.3883,-7.3061,-7.3001,-7.3964,-7.2647,-7.1901,-7.2176,-7.168,-7.0457,-6.847,-6.9731,-6.9769,-6.8432,-6.6751,-6.5757,-6.5337,-6.2319,-6.0943,-6.0981,-6.2662,-6.4,0.0,0.0,-6.8508,-6.9502,-7.0151,-7.0419,-7.0419,-7.0419,-7.0304,-6.984,-6.7465,-6.6466,-6.612,-6.4748,-6.3627,-6.278,-6.278,-6.278,-6.278,-6.278,-6.278,-6.278,-6.278,-6.278,-6.278,-6.278,-6.278,-6.278,-6.278,-6.278,-6.278,-6.278,-6.278,-6.2769,-6.2699,-6.305,0.0,0.0,-6.1039,-6.0388,-6.0959,-6.0517,-6.054,-6.1458,-6.2199,-6.2338,-6.1649,-6.1414,-6.0406,-5.8233,-5.785,-5.6806,-5.4731,0.0,0.0,0.0,0.0,-5.5294,-5.3653,0.0,-5.4706,-5.5907,-5.545,-5.6028,-5.7437,-5.7412,-5.7313,-5.7188,-5.7188,-5.7188,-5.7188,-5.7188,-5.7188,-5.7188,-5.7188,-5.7188,-5.7188,-5.7188,-5.7188,-5.7188,-6.7467,-6.7357,-6.7687,-6.9155,-6.8458,-6.8678,-7.1615,-7.1064,-7.0872,-7.2398,-7.2582,-7.261,-7.2667,-7.3061,-7.2769,-7.1281,-7.2796,-7.251,-6.936,-7.1048,-7.1388,-6.9638,-7.019,-7.0419,-7.019,-7.0342,-7.0342,-7.019,-6.847,-6.6904,-6.5375,-6.3541,-6.2662,-6.2739,0.0,0.0,0.0,-6.7782,-6.8814,-7.0304,-7.0381,-7.0419,-7.0419,-7.0419,-6.996,-6.9077,-6.7276,-6.6128,-6.527,-6.3551,-6.2903,-6.278,-6.278,-6.278,-6.278,-6.278,-6.278,-6.278,-6.278,-6.278,-6.278,-6.278,-6.278,-6.278,-6.278,-6.278,-6.278,-6.278,-6.278,-6.2953,-6.3488,-6.2891,-6.2375,0.0,-6.1368,-6.045,-6.0144,-6.0447,-6.0768,-6.0882,-6.0947,-6.0951,-6.0804,-5.9764,-5.8654,-5.7616,-5.7496,-5.6853,-5.5477,0.0,0.0,-5.41,-5.4298,-5.4596,-5.5017,-5.4561,-5.5448,-5.7554,-5.609,-5.6145,-5.7559,-5.7437,-5.7313,-5.7188,-5.7188,-5.7188,-5.7188,-5.7188,-5.7188,-5.7188,-5.7188,-5.7188,-5.7188,-5.7188,-5.7188,-5.7188,-6.9119,-6.8348,-6.7907,-6.8531,-6.8935,-6.9559,-7.0844,-7.1321,-7.1762,-7.2422,-7.2496,-7.2496,-7.2496,-7.2686,-7.2667,-7.2306,-7.2609,-7.2314,-7.1153,-7.1345,-7.1124,-7.0304,-7.0379,-7.0419,-7.0419,-7.0419,-7.0419,-7.0419,-6.7706,-6.6063,-6.5375,-6.3694,0.0,0.0,0.0,-6.6826,-6.7566,-6.8593,-6.9447,-7.0073,-7.0281,-7.0247,-7.0055,-7.0055,-6.9378,-6.8223,-6.6764,-6.5724,-6.4771,-6.3272,-6.278,-6.278,-6.278,-6.278,-6.278,-6.278,-6.278,-6.278,-6.278,-6.278,-6.278,-6.278,-6.278,-6.278,-6.278,-6.278,-6.278,-6.278,-6.278,-6.2843,-6.3121,-6.3057,-6.2754,-6.2092,0.0,-6.1364,-6.0716,-6.0791,-6.1204,-6.1958,-6.1637,-6.1318,-6.1299,-5.9949,-5.8608,-5.7359,-5.7505,-5.6785,-5.4818,0.0,0.0,-5.4829,0.0,-5.5111,-5.6752,-5.5668,-5.6065,-5.7927,-5.7267,-5.7188,-5.7583,-5.7534,-5.7388,-5.7188,-5.7188,-5.7188,-5.7188,-5.7188,-5.7188,-5.7188,-5.7188,-5.7188,-5.7188,-5.7188,-5.7188,-5.7188,-7.0807,-6.9889,-6.9119,-6.9119,-7.0036,-7.066,-7.0183,-7.1468,-7.2349,-7.1872,-7.2202,-7.2496,-7.2496,-7.2496,-7.2446,-7.2368,-7.2024,-7.1489,-7.0794,-7.0664,-7.0331,-6.9697,-6.991,-7.0071,-7.0213,-7.0213,-7.0264,-7.0419,-6.805,-6.6536,-6.5906,0.0,0.0,0.0,-6.742,-6.7978,-6.8035,-6.9113,-6.9604,-6.9623,-6.9909,-6.9853,-6.9604,-6.9604,-6.8744,-6.7396,-6.6373,-6.5282,-6.4188,-6.3162,-6.278,-6.278,-6.278,-6.278,-6.278,-6.278,-6.278,-6.278,-6.278,-6.278,-6.278,-6.278,-6.278,-6.278,-6.278,-6.278,-6.278,-6.278,-6.278,-6.278,-6.278,-6.3062,-6.2956,-6.1945,0.0,-6.1849,-6.1106,-6.0907,-6.1174,-6.2055,-6.1239,-6.0679,-6.094,-5.9402,-5.7844,-5.6582,-5.6633,-5.5966,-5.4225,0.0,0.0,0.0,0.0,0.0,-5.6712,-5.575,-5.6161,-5.7997,-5.7997,-5.7881,-5.7667,-5.7559,-5.7437,-5.7239,-5.7213,-5.7188,-5.7188,-5.7188,-5.7188,-5.7188,-5.7188,-5.7188,-5.7188,-5.7239,-5.7264,-5.7264,-7.2459,-7.2459,-7.2459,-7.2459,-7.2459,-7.1945,-7.033,-7.1468,-7.1945,-7.033,-7.1505,-7.2496,-7.2496,-7.2496,-7.1872,-7.0284,-7.0844,-6.9814,-6.6195,-6.8258,-6.8697,-6.6662,-6.8189,-6.9323,-6.9816,-6.9816,-7.0019,-7.0419,-7.0381,-6.9226,-6.7182,0.0,-6.7435,-6.7919,-6.9185,-6.9778,-6.9759,-6.9303,-6.9112,-6.9112,-6.9112,-6.9112,-6.9112,-6.9112,-6.8077,-6.6549,-6.6149,-6.4925,-6.3422,-6.2978,-6.278,-6.278,-6.278,-6.278,-6.278,-6.278,-6.278,-6.278,-6.278,-6.278,-6.278,-6.278,-6.278,-6.278,-6.278,-6.278,-6.278,-6.278,-6.278,-6.278,-6.278,-6.2805,-6.2659,-6.2279,0.0,0.0,-6.1063,-6.0651,-6.0419,-6.0443,-5.9011,-5.835,-5.9134,-5.7413,-5.588,-5.5099,-5.4553,-5.4173,0.0,0.0,0.0,-5.1862,-5.1846,0.0,-5.4202,-5.4371,-5.5611,-5.7997,-5.7997,-5.7927,-5.781,-5.751,-5.7388,-5.7388,-5.7239,-5.7188,-5.7188,-5.7188,-5.7188,-5.7188,-5.7188,-5.7188,-5.7213,-5.7338,-5.7388,-5.7412,-6.9449,-7.0991,-7.2165,-7.1064,-7.1762,-7.2349,-7.1798,-7.2165,-7.2312,-7.1798,-7.2165,-7.2496,-7.2496,-7.2496,-7.2275,-7.1798,-7.0477,-6.9394,-6.8783,-6.8247,-6.7909,-6.7789,-6.8091,-6.8349,-6.8494,-6.8792,-6.8999,-6.9125,0.0,0.0,0.0,-6.7202,-6.7751,-6.8751,-6.9138,-6.9134,-6.8825,-6.8665,-6.8595,-6.8642,-6.8959,-6.8893,-6.8595,-6.8595,-6.7749,-6.6445,-6.5779,-6.482,-6.38,-6.3038,-6.278,-6.278,-6.278,-6.278,-6.278,-6.278,-6.278,-6.278,-6.278,-6.278,-6.278,-6.278,-6.278,-6.278,-6.278,-6.278,-6.278,-6.278,-6.278,-6.278,-6.278,-6.278,-6.2598,-6.1898,-6.2132,0.0,-6.1516,-6.1287,-6.1006,-6.0456,-5.9465,-5.8694,-5.84,-5.7309,-5.6362,-5.5738,-5.4761,0.0,0.0,0.0,0.0,0.0,-5.4598,0.0,-5.6639,-5.5691,-5.6161,-5.7997,-5.7997,-5.7927,-5.781,-5.751,-5.7388,-5.7388,-5.7264,-5.7188,-5.7188,-5.7188,-5.7188,-5.7188,-5.7289,-5.7338,-5.7338,-5.7486,-5.7534,-5.7534,-6.9706,-7.1101,-7.2165,-7.1174,-7.1835,-7.2312,-7.1688,-7.2129,-7.2275,-7.1688,-7.2129,-7.2496,-7.2496,-7.2496,-7.2496,-7.2496,-7.0844,-7.0036,-7.0513,-6.8852,-6.806,-6.8578,-6.8084,-6.7896,-6.8077,-6.8345,0.0,-6.8733,-6.8281,-6.8035,-6.7918,-6.7721,-6.8161,-6.9091,-6.8915,-6.8665,-6.8394,-6.8198,-6.8134,-6.8185,-6.8467,-6.8394,-6.8134,-6.8134,-6.7451,-6.6402,-6.5595,-6.4787,-6.398,-6.3099,-6.278,-6.278,-6.278,-6.278,-6.278,-6.278,-6.278,-6.278,-6.278,-6.278,-6.278,-6.278,-6.278,-6.278,-6.278,-6.278,-6.278,-6.278,-6.278,-6.278,-6.278,-6.278,-6.2658,-6.2144,-6.2475,-6.2622,-6.2108,-6.1777,-6.13,-6.0493,-5.9428,-5.8547,0.0,-5.7262,-5.6544,-5.5913,-5.4589,0.0,0.0,0.0,0.0,-5.5167,-5.5177,0.0,-5.6965,-5.6065,-5.6381,-5.7997,-5.7997,-5.795,-5.7881,-5.7631,-5.751,-5.7461,-5.7313,-5.7239,-5.7188,-5.7188,-5.7213,-5.7264,-5.7363,-5.7412,-5.7486,-5.7643,-5.7691,-5.7655,-7.2202,-7.2349,-7.2459,-7.2349,-7.2422,-7.2018,-7.0513,-7.1541,-7.1945,-7.044,-7.1578,-7.2496,-7.2496,-7.2496,-7.2496,-7.2496,0.0,0.0,-7.1293,-6.9743,-6.8862,-6.8898,-6.8091,-6.7841,-6.8271,-6.832,-6.8581,-6.9091,-6.8619,-6.8619,-6.9047,-6.8595,-6.8633,-6.8981,-6.8609,-6.837,-6.8321,-6.7889,-6.7687,-6.7687,-6.7687,-6.7687,-6.7687,-6.7687,-6.7247,-6.6476,-6.5632,-6.4824,-6.4016,-6.3135,-6.278,-6.278,-6.278,-6.278,-6.278,-6.278,-6.278,-6.278,-6.278,-6.278,-6.278,-6.278,-6.278,-6.278,-6.278,-6.278,-6.278,-6.278,-6.278,-6.278,-6.278,-6.278,-6.278,-6.278,-6.278,-6.278,-6.2707,-6.2071,-6.1263,-6.0346,0.0,0.0,-5.7923,-5.7299,-5.6565,0.0,-5.4289,0.0,0.0,0.0,-5.4122,-5.3534,-5.4252,-5.5023,-5.578,-5.578,-5.6492,-5.7997,-5.7997,-5.7997,-5.7997,-5.7881,-5.7739,-5.7583,-5.7461,-5.7313,-5.7188,-5.7213,-5.7289,-5.7388,-5.7412,-5.7486,-5.7607,-5.775,-5.7834,-5.7834,-6.9082,-7.0807,-7.2129,-7.0881,-7.1688,-7.2386,-7.1982,-7.2275,-7.2349,-7.1982,-7.2275,-7.2496,-7.2496,-7.2496,-7.2496,-7.2496,-7.1211,-7.066,-7.1284,-6.9229,-6.8238,-6.8862,-6.754,-6.6849,-6.6942,-6.7309,-6.8022,-6.9091,-6.8619,-6.8467,-6.8548,-6.8467,-6.8247,-6.8033,-6.8272,-6.821,-6.7863,-6.7767,-6.7687,-6.7687,-6.7687,-6.7687,-6.7687,-6.7687,-6.7577,-6.721,-6.5815,-6.5191,-6.4787,-6.3294,-6.278,-6.278,-6.278,-6.278,-6.278,-6.278,-6.278,-6.278,-6.278,-6.278,-6.278,-6.278,-6.278,-6.278,-6.278,-6.278,-6.278,-6.278,-6.278,-6.278,-6.278,-6.278,-6.278,-6.278,-6.278,-6.2585,-6.1961,-6.1704,-6.086,0.0,-5.8767,-5.8437,-5.7189,-5.7483,-5.7373,0.0,0.0,-5.6124,-5.6492,-5.63,-5.6373,-5.6859,-5.7042,-5.7226,-5.7409,-5.7409,-5.7629,-5.7997,-5.7997,-5.7997,-5.7997,-5.7881,-5.7739,-5.7583,-5.7461,-5.7313,-5.7188,-5.7313,-5.7363,-5.7412,-5.7643,-5.7703,-5.7786,-5.7904,-5.795,-5.795,-7.0073,-7.1284,-7.2239,-7.1358,-7.1908,-7.2496,-7.2496,-7.2496,-7.2496,-7.2496,-7.2496,-7.2496,-7.2496,-7.2496,-7.2496,-7.2496,-7.1688,-7.1394,-7.1835,-7.0293,-6.9376,-6.9449,-6.8274,-6.743,-6.7063,-6.7303,-6.7765,-6.8467,-6.8173,-6.8084,-6.8084,-6.8084,-6.7967,-6.7714,-6.7993,-6.7941,-6.7687,-6.7687,-6.7687,-6.7687,-6.7687,-6.7687,-6.7687,-6.7687,-6.7687,-6.7467,-6.5888,-6.5301,-6.5044,-6.3392,-6.278,-6.278,-6.278,-6.278,-6.278,-6.278,-6.278,-6.278,-6.278,-6.278,-6.278,-6.278,-6.278,-6.278,-6.278,-6.278,-6.278,-6.278,-6.278,-6.278,-6.278,-6.278,-6.278,-6.278,-6.2511,-6.2108,-6.1667,-6.097,-6.0015,-5.8694,-5.8621,-5.8327,-5.7446,-5.774,-5.7813,-5.7373,-5.6675,0.0,-5.7299,-5.6638,-5.6785,-5.796,-5.7997,-5.7997,-5.7997,-5.7997,-5.7997,-5.7997,-5.7997,-5.7997,-5.7997,-5.7927,-5.7786,-5.7583,-5.751,-5.7412,-5.7289,-5.7363,-5.7461,-5.7583,-5.7726,-5.7857,-5.7904,-5.7973,-5.7997,-5.7997,-7.2496,-7.2496,-7.2496,-7.2496,-7.2496,-7.2496,-7.2496,-7.2496,-7.2496,-7.2496,-7.2496,-7.2496,-7.2496,-7.2496,-7.2496,-7.2496,-7.2496,-7.2496,-7.2496,-7.1762,-7.0954,-7.0146,-6.9339,-6.8531,-6.7724,-6.7687,-6.7687,-6.7687,-6.7687,-6.7687,-6.7687,-6.7687,-6.7687,-6.7687,-6.7687,-6.7687,-6.7687,-6.7687,-6.7687,-6.7687,-6.7687,-6.7687,-6.7687,-6.7687,-6.7687,-6.7504,-6.6035,-6.5411,-6.5081,-6.3539,-6.2915,-6.278,-6.278,-6.278,-6.278,-6.278,-6.278,-6.278,-6.278,-6.278,-6.278,-6.278,-6.278,-6.278,-6.278,-6.278,-6.278,-6.278,-6.278,-6.278,-6.278,-6.278,-6.2768,-6.2658,-6.2034,-6.1557,-6.1447,0.0,-5.9331,-5.9184,-5.8621,-5.8143,-5.7997,-5.7997,-5.7997,-5.7997,-5.6712,-5.6565,-5.7923,-5.6675,-5.6565,-5.796,-5.7997,-5.7997,-5.7997,-5.7997,-5.7997,-5.7997,-5.7997,-5.7997,-5.7997,-5.7997,-5.7857,-5.7583,-5.7583,-5.751,-5.7388,-5.7412,-5.7559,-5.781,-5.7834,-5.7904,-5.7997,-5.7997,-5.7997,-5.7997,-7.2496,-7.2496,-7.2496,-7.2496,-7.2496,-7.2496,-7.2496,-7.2496,-7.2496,-7.2496,-7.2496,-7.2496,-7.2496,-7.2496,-7.2496,-7.2496,-7.2496,-7.2496,-7.2496,-7.1762,-7.0954,-7.0146,-6.9339,-6.8531,-6.7724,-6.7687,-6.7687,-6.7687,-6.7687,-6.7687,-6.7687,-6.7687,-6.7687,-6.7687,-6.7687,-6.7687,-6.7687,-6.7687,-6.7687,-6.7687,-6.7687,-6.7687,-6.7687,-6.7687,-6.7687,-6.7577,-6.6659,-6.5888,-6.5154,-6.42,-6.3429,-6.278,-6.278,-6.278,-6.278,-6.278,-6.278,-6.278,-6.278,-6.278,-6.278,-6.278,-6.278,-6.278,-6.278,-6.278,-6.278,-6.278,-6.278,-6.278,-6.278,-6.278,-6.2585,-6.1887,-6.1667,-6.1374,-6.0676,0.0,-5.9979,-5.9258,-5.9074,-5.8767,-5.807,-5.7997,-5.7997,-5.7997,-5.7776,-5.774,-5.7997,-5.774,-5.774,-5.7997,-5.7997,-5.7997,-5.7997,-5.7997,-5.7997,-5.7997,-5.7997,-5.7997,-5.7997,-5.7997,-5.7857,-5.7583,-5.7583,-5.751,-5.7388,-5.751,-5.7655,-5.7834,-5.7927,-5.7973,-5.7997,-5.7997,-5.7997,-5.7997,-7.2496,-7.2496,-7.2496,-7.2496,-7.2496,-7.2496,-7.2496,-7.2496,-7.2496,-7.2496,-7.2496,-7.2496,-7.2496,-7.2496,-7.2496,-7.2496,-7.2496,-7.2496,-7.2496,-7.2165,-7.1615,-7.077,-7.0,-6.8972,-6.7724,-6.7687,-6.7687,-6.7687,-6.7687,-6.7687,-6.7687,-6.7687,-6.7687,-6.7687,-6.7687,-6.7687,-6.7687,-6.7687,-6.7687,-6.7687,-6.7687,-6.7687,-6.7687,-6.7687,-6.7687,-6.7577,-6.6769,-6.5999,-6.5191,-6.4347,-6.3503,-6.278,-6.278,-6.278,-6.278,-6.278,-6.278,-6.278,-6.278,-6.278,-6.278,-6.278,-6.278,-6.278,-6.278,-6.278,-6.278,-6.278,-6.278,-6.278,-6.278,-6.278,-6.2695,-6.2328,-6.1887,0.0,0.0,-6.0309,-5.9625,-5.9221,-5.8841,-5.84,-5.8033,-5.7997,-5.7997,-5.7997,-5.7997,-5.7997,-5.7997,-5.7997,-5.7997,-5.7997,-5.7997,-5.7997,-5.7997,-5.7997,-5.7997,-5.7997,-5.7997,-5.7997,-5.7997,-5.7997,-5.7904,-5.7715,-5.7715,-5.7655,-5.7607,-5.7655,-5.781,-5.7927,-5.7973,-5.7997,-5.7997,-5.7997,-5.7997,-5.7997,-7.2496,-7.2496,-7.2496,-7.2496,-7.2496,-7.2496,-7.2496,-7.2496,-7.2496,-7.2496,-7.2496,-7.2496,-7.2496,-7.2496,-7.2496,-7.2496,-7.2496,-7.2496,-7.2496,-7.2496,-7.2165,-7.1329,-7.0367,-6.9229,-6.8017,-6.7797,-6.7687,-6.7687,-6.7687,-6.7687,-6.7687,-6.7687,-6.7687,-6.7687,-6.7687,-6.7687,-6.7687,-6.7687,-6.7687,-6.7687,-6.7687,-6.7687,-6.7687,-6.7687,-6.7687,-6.7614,-6.699,-6.6256,-6.5448,-6.464,-6.3796,-6.3062,-6.2853,-6.278,-6.278,-6.278,-6.278,-6.278,-6.278,-6.278,-6.278,-6.278,-6.278,-6.278,-6.278,-6.278,-6.278,-6.278,-6.278,-6.278,-6.278,-6.278,-6.2768,-6.2548,0.0,0.0,0.0,-6.0236,-5.9258,-5.9441,-5.8621,-5.7997,-5.7997,-5.7997,-5.7997,-5.7997,-5.7997,-5.7997,-5.7997,-5.7997,-5.7997,-5.7997,-5.7997,-5.7997,-5.7997,-5.7997,-5.7997,-5.7997,-5.7997,-5.7997,-5.7997,-5.7997,-5.7927,-5.781,-5.781,-5.781,-5.781,-5.781,-5.7881,-5.7997,-5.7997,-5.7997,-5.7997,-5.7997,-5.7997,-5.7997,-7.2496,-7.2496,-7.2496,-7.2496,-7.2496,-7.2496,-7.2496,-7.2496,-7.2496,-7.2496,-7.2496,-7.2496,-7.2496,-7.2496,-7.2496,-7.2496,-7.2496,-7.2496,-7.2496,-7.2496,-7.2165,-7.1329,-6.9816,-6.8935,-6.8825,-6.8091,-6.7687,-6.7687,-6.7687,-6.7687,-6.7687,-6.7687,-6.7687,-6.7687,-6.7687,-6.7687,-6.7687,-6.7687,-6.7687,-6.7687,-6.7687,-6.7687,-6.7687,-6.7687,-6.7687,-6.7687,-6.7614,-6.71,-6.6292,-6.5485,-6.4677,-6.387,-6.3062,-6.278,-6.278,-6.278,-6.278,-6.278,-6.278,-6.278,-6.278,-6.278,-6.278,-6.278,-6.278,-6.278,-6.278,-6.278,-6.278,-6.278,-6.278,-6.278,-6.2585,-6.1814,0.0,0.0,-6.1594,-6.0236,-5.9478,-6.0236,-5.8951,-5.7997,-5.7997,-5.7997,-5.7997,-5.7997,-5.7997,-5.7997,-5.7997,-5.7997,-5.7997,-5.7997,-5.7997,-5.7997,-5.7997,-5.7997,-5.7997,-5.7997,-5.7997,-5.7997,-5.7997,-5.7997,-5.7927,-5.781,-5.781,-5.781,-5.781,-5.781,-5.7881,-5.7997,-5.7997,-5.7997,-5.7997,-5.7997,-5.7997,-5.7997,-7.2496,-7.2496,-7.2496,-7.2496,-7.2496,-7.2496,-7.2496,-7.2496,-7.2496,-7.2496,-7.2496,-7.2496,-7.2496,-7.2496,-7.2496,-7.2496,-7.2496,-7.2496,-7.2496,-7.2496,-7.2165,-7.1329,-7.0257,-6.9412,-6.8898,-6.8091,-6.7687,-6.7687,-6.7687,-6.7687,-6.7687,-6.7687,-6.7687,-6.7687,-6.7687,-6.7687,-6.7687,-6.7687,-6.7687,-6.7687,-6.7687,-6.7687,-6.7687,-6.7687,-6.7687,-6.7687,-6.7687,-6.7173,-6.6439,-6.6145,-6.5191,-6.4016,-6.3723,-6.3246,-6.278,-6.278,-6.278,-6.278,-6.278,-6.278,-6.278,-6.278,-6.278,-6.278,-6.278,-6.278,-6.278,-6.278,-6.278,-6.278,-6.278,-6.278,-6.267,-6.2401,0.0,-6.2365,-6.2365,-6.097,-6.0052,-6.0382,-5.8988,-5.7997,-5.7997,-5.7997,-5.7997,-5.7997,-5.7997,-5.7997,-5.7997,-5.7997,-5.7997,-5.7997,-5.7997,-5.7997,-5.7997,-5.7997,-5.7997,-5.7997,-5.7997,-5.7997,-5.7997,-5.7997,-5.7973,-5.7927,-5.7927,-5.7927,-5.7927,-5.7927,-5.795,-5.7997,-5.7997,-5.7997,-5.7997,-5.7997,-5.7997,-5.7997,-7.2496,-7.2496,-7.2496,-7.2496,-7.2496,-7.2496,-7.2496,-7.2496,-7.2496,-7.2496,-7.2496,-7.2496,-7.2496,-7.2496,-7.2496,-7.2496,-7.2496,-7.2496,-7.2496,-7.2496,-7.2275,-7.1725,-7.0917,-7.011,-6.9302,-6.8495,-6.7944,-6.7687,-6.7687,-6.7687,-6.7687,-6.7687,-6.7687,-6.7687,-6.7687,-6.7687,-6.7687,-6.7687,-6.7687,-6.7687,-6.7687,-6.7687,-6.7687,-6.7687,-6.7687,-6.7687,-6.7687,-6.7357,-6.6843,-6.6586,-6.5595,-6.442,-6.4163,-6.3503,-6.278,-6.278,-6.278,-6.278,-6.278,-6.278,-6.278,-6.278,-6.278,-6.278,-6.278,-6.278,-6.278,-6.278,-6.278,-6.278,-6.278,-6.278,-6.278,-6.278,-6.278,-6.278,-6.278,-6.163,-6.0676,-6.0419,-5.9208,-5.829,-5.8033,-5.7997,-5.7997,-5.7997,-5.7997,-5.7997,-5.7997,-5.7997,-5.7997,-5.7997,-5.7997,-5.7997,-5.7997,-5.7997,-5.7997,-5.7997,-5.7997,-5.7997,-5.7997,-5.7997,-5.7997,-5.7997,-5.7997,-5.7997,-5.7997,-5.7997,-5.7997,-5.7997,-5.7997,-5.7997,-5.7997,-5.7997,-5.7997,-5.7997,-7.2496,-7.2496,-7.2496,-7.2496,-7.2496,-7.2496,-7.2496,-7.2496,-7.2496,-7.2496,-7.2496,-7.2496,-7.2496,-7.2496,-7.2496,-7.2496,-7.2496,-7.2496,-7.2496,-7.2496,-7.2496,-7.2496,-7.1725,-7.0954,-7.011,-6.9302,-6.8495,-6.7714,-6.7687,-6.7687,-6.7687,-6.7687,-6.7687,-6.7687,-6.7687,-6.7687,-6.7687,-6.7687,-6.7687,-6.7687,-6.7687,-6.7687,-6.7687,-6.7687,-6.7687,-6.7687,-6.7687,-6.7687,-6.7577,-6.6769,-6.5962,-6.5191,-6.4347,-6.3503,-6.278,-6.278,-6.278,-6.278,-6.278,-6.278,-6.278,-6.278,-6.278,-6.278,-6.278,-6.278,-6.278,-6.278,-6.278,-6.278,-6.278,-6.278,-6.278,-6.278,-6.278,-6.278,-6.278,-6.2108,-6.13,-6.0493,-5.9685,-5.8854,-5.807,-5.7997,-5.7997,-5.7997,-5.7997,-5.7997,-5.7997,-5.7997,-5.7997,-5.7997,-5.7997,-5.7997,-5.7997,-5.7997,-5.7997,-5.7997,-5.7997,-5.7997,-5.7997,-5.7997,-5.7997,-5.7997,-5.7997,-5.7997,-5.7997,-5.7997,-5.7997,-5.7997,-5.7997,-5.7997,-5.7997,-5.7997,-5.7997,-5.7997,-7.2496,-7.2496,-7.2496,-7.2496,-7.2496,-7.2496,-7.2496,-7.2496,-7.2496,-7.2496,-7.2496,-7.2496,-7.2496,-7.2496,-7.2496,-7.2496,-7.2496,-7.2496,-7.2496,-7.2496,-7.2496,-7.2496,-7.1725,-7.1211,-7.0954,-6.9596,-6.8788,-6.8531,-6.7981,-6.7687,-6.7687,-6.7687,-6.7687,-6.7687,-6.7687,-6.7687,-6.7687,-6.7687,-6.7687,-6.7687,-6.7687,-6.7687,-6.7687,-6.7687,-6.7687,-6.7687,-6.7687,-6.7687,-6.765,-6.7393,-6.6806,-6.5888,-6.453,-6.3906,-6.3576,-6.2989,-6.278,-6.278,-6.278,-6.278,-6.278,-6.278,-6.278,-6.278,-6.278,-6.278,-6.278,-6.278,-6.278,-6.278,-6.278,-6.278,-6.278,-6.278,-6.278,-6.278,-6.278,-6.2108,-6.13,-6.0493,-5.9685,-5.8854,-5.807,-5.7997,-5.7997,-5.7997,-5.7997,-5.7997,-5.7997,-5.7997,-5.7997,-5.7997,-5.7997,-5.7997,-5.7997,-5.7997,-5.7997,-5.7997,-5.7997,-5.7997,-5.7997,-5.7997,-5.7997,-5.7997,-5.7997,-5.7997,-5.7997,-5.7997,-5.7997,-5.7997,-5.7997,-5.7997,-5.7997,-5.7997,-5.7997,-5.7997,-7.2496,-7.2496,-7.2496,-7.2496,-7.2496,-7.2496,-7.2496,-7.2496,-7.2496,-7.2496,-7.2496,-7.2496,-7.2496,-7.2496,-7.2496,-7.2496,-7.2496,-7.2496,-7.2496,-7.2496,-7.2496,-7.2496,-7.2055,-7.1651,-7.1293,-7.0367,-6.9559,-6.8898,-6.8421,-6.8017,-6.7687,-6.7687,-6.7687,-6.7687,-6.7687,-6.7687,-6.7687,-6.7687,-6.7687,-6.7687,-6.7687,-6.7687,-6.7687,-6.7687,-6.7687,-6.7687,-6.7687,-6.7687,-6.7687,-6.7687,-6.7173,-6.6256,-6.4971,-6.4347,-6.398,-6.3466,-6.3062,-6.278,-6.278,-6.278,-6.278,-6.278,-6.278,-6.278,-6.278,-6.278,-6.278,-6.278,-6.278,-6.278,-6.278,-6.278,-6.278,-6.278,-6.278,-6.278,-6.278,-6.2401,-6.1777,-6.097,-6.0162,-5.9355,-5.8547,-5.818,-5.7997,-5.7997,-5.7997,-5.7997,-5.7997,-5.7997,-5.7997,-5.7997,-5.7997,-5.7997,-5.7997,-5.7997,-5.7997,-5.7997,-5.7997,-5.7997,-5.7997,-5.7997,-5.7997,-5.7997,-5.7997,-5.7997,-5.7997,-5.7997,-5.7997,-5.7997,-5.7997,-5.7997,-5.7997,-5.7997,-5.7997,-5.7997,-7.2496,-7.2496,-7.2496,-7.2496,-7.2496,-7.2496,-7.2496,-7.2496,-7.2496,-7.2496,-7.2496,-7.2496,-7.2496,-7.2496,-7.2496,-7.2496,-7.2496,-7.2496,-7.2496,-7.2496,-7.2496,-7.2496,-7.2496,-7.2165,-7.1403,-7.1329,-7.0587,-6.9119,-6.8972,-6.8531,-6.7797,-6.7724,-6.7687,-6.7687,-6.7687,-6.7687,-6.7687,-6.7687,-6.7687,-6.7687,-6.7687,-6.7687,-6.7687,-6.7687,-6.7687,-6.7687,-6.7687,-6.7687,-6.7687,-6.7687,-6.721,-6.6476,-6.5668,-6.4897,-6.4273,-6.4127,-6.3539,-6.2915,-6.2817,-6.278,-6.278,-6.278,-6.278,-6.278,-6.278,-6.278,-6.278,-6.278,-6.278,-6.278,-6.278,-6.278,-6.278,-6.278,-6.278,-6.278,-6.278,-6.278,-6.2511,-6.1704,-6.0896,-6.0089,-5.9258,-5.8474,-5.7997,-5.7997,-5.7997,-5.7997,-5.7997,-5.7997,-5.7997,-5.7997,-5.7997,-5.7997,-5.7997,-5.7997,-5.7997,-5.7997,-5.7997,-5.7997,-5.7997,-5.7997,-5.7997,-5.7997,-5.7997,-5.7997,-5.7997,-5.7997,-5.7997,-5.7997,-5.7997,-5.7997,-5.7997,-5.7997,-5.7997,-5.7997,-7.2496,-7.2496,-7.2496,-7.2496,-7.2496,-7.2496,-7.2496,-7.2496,-7.2496,-7.2496,-7.2496,-7.2496,-7.2496,-7.2496,-7.2496,-7.2496,-7.2496,-7.2496,-7.2496,-7.2496,-7.2496,-7.2496,-7.2496,-7.2422,-7.2239,-7.1651,-7.1109,-7.0807,-6.9522,-6.8825,-6.8641,-6.7981,-6.7687,-6.7687,-6.7687,-6.7687,-6.7687,-6.7687,-6.7687,-6.7687,-6.7687,-6.7687,-6.7687,-6.7687,-6.7687,-6.7687,-6.7687,-6.7687,-6.7687,-6.7687,-6.7577,-6.7283,-6.6476,-6.6109,-6.5742,-6.4457,-6.398,-6.3686,-6.2989,-6.278,-6.278,-6.278,-6.278,-6.278,-6.278,-6.278,-6.278,-6.278,-6.278,-6.278,-6.278,-6.278,-6.278,-6.278,-6.278,-6.278,-6.278,-6.278,-6.2511,-6.1704,-6.0896,-6.0089,-5.9258,-5.8474,-5.7997,-5.7997,-5.7997,-5.7997,-5.7997,-5.7997,-5.7997,-5.7997,-5.7997,-5.7997,-5.7997,-5.7997,-5.7997,-5.7997,-5.7997,-5.7997,-5.7997,-5.7997,-5.7997,-5.7997,-5.7997,-5.7997,-5.7997,-5.7997,-5.7997,-5.7997,-5.7997,-5.7997,-5.7997,-5.7997,-5.7997,-5.7997,-7.2496,-7.2496,-7.2496,-7.2496,-7.2496,-7.2496,-7.2496,-7.2496,-7.2496,-7.2496,-7.2496,-7.2496,-7.2496,-7.2496,-7.2496,-7.2496,-7.2496,-7.2496,-7.2496,-7.2496,-7.2496,-7.2496,-7.2496,-7.2496,-7.2496,-7.2092,-7.1688,-7.1293,-7.0477,-6.9853,-6.9449,-6.8641,-6.8274,-6.8238,-6.7871,-6.7687,-6.7687,-6.7687,-6.7687,-6.7687,-6.7687,-6.7687,-6.7687,-6.7687,-6.7687,-6.7687,-6.7687,-6.7687,-6.7687,-6.7687,-6.7687,-6.7614,-6.721,-6.6806,-6.6329,-6.5485,-6.4677,-6.398,-6.3539,-6.3135,-6.278,-6.278,-6.278,-6.278,-6.278,-6.278,-6.278,-6.278,-6.278,-6.278,-6.278,-6.278,-6.278,-6.278,-6.278,-6.278,-6.278,-6.278,-6.2658,-6.2218,-6.1447,-6.0529,-5.9294,-5.8474,-5.7997,-5.7997,-5.7997,-5.7997,-5.7997,-5.7997,-5.7997,-5.7997,-5.7997,-5.7997,-5.7997,-5.7997,-5.7997,-5.7997,-5.7997,-5.7997,-5.7997,-5.7997,-5.7997,-5.7997,-5.7997,-5.7997,-5.7997,-5.7997,-5.7997,-5.7997,-5.7997,-5.7997,-5.7997,-5.7997,-5.7997,-5.7997,-7.2496,-7.2496,-7.2496,-7.2496,-7.2496,-7.2496,-7.2496,-7.2496,-7.2496,-7.2496,-7.2496,-7.2496,-7.2496,-7.2496,-7.2496,-7.2496,-7.2496,-7.2496,-7.2496,-7.2496,-7.2496,-7.2496,-7.2496,-7.2496,-7.2496,-7.2496,-7.2165,-7.1541,-7.1394,-7.0954,-7.0293,-6.9486,-6.9045,-6.8862,-6.8201,-6.7834,-6.7687,-6.7687,-6.7687,-6.7687,-6.7687,-6.7687,-6.7687,-6.7687,-6.7687,-6.7687,-6.7687,-6.7687,-6.7687,-6.7687,-6.7687,-6.7687,-6.7687,-6.7247,-6.6659,-6.6549,-6.5558,-6.4457,-6.4163,-6.3576,-6.2989,-6.2842,-6.278,-6.278,-6.278,-6.278,-6.278,-6.278,-6.278,-6.278,-6.278,-6.278,-6.278,-6.278,-6.278,-6.278,-6.278,-6.278,-6.278,-6.278,-6.2108,-6.1006,-5.9551,-5.8694,-5.8217,-5.8217,-5.807,-5.7997,-5.7997,-5.7997,-5.7997,-5.7997,-5.7997,-5.7997,-5.7997,-5.7997,-5.7997,-5.7997,-5.7997,-5.7997,-5.7997,-5.7997,-5.7997,-5.7997,-5.7997,-5.7997,-5.7997,-5.7997,-5.7997,-5.7997,-5.7997,-5.7997,-5.7997,-5.7997,-5.7997,-5.7997,-7.2496,-7.2496,-7.2496,-7.2496,-7.2496,-7.2496,-7.2496,-7.2496,-7.2496,-7.2496,-7.2496,-7.2496,-7.2496,-7.2496,-7.2496,-7.2496,-7.2496,-7.2496,-7.2496,-7.2496,-7.2496,-7.2496,-7.2496,-7.2496,-7.2496,-7.2496,-7.2459,-7.2349,-7.1651,-7.1219,-7.1109,-7.033,-6.9559,-6.8898,-6.8788,-6.8348,-6.7687,-6.7687,-6.7687,-6.7687,-6.7687,-6.7687,-6.7687,-6.7687,-6.7687,-6.7687,-6.7687,-6.7687,-6.7687,-6.7687,-6.7687,-6.7687,-6.7687,-6.7614,-6.7393,-6.6696,-6.6329,-6.5852,-6.4457,-6.4016,-6.3723,-6.2989,-6.278,-6.278,-6.278,-6.278,-6.278,-6.278,-6.278,-6.278,-6.278,-6.278,-6.278,-6.278,-6.278,-6.278,-6.278,-6.278,-6.278,-6.278,-6.2108,-6.1227,-6.0346,-5.9515,-5.9038,-5.9038,-5.84,-5.7997,-5.7997,-5.7997,-5.7997,-5.7997,-5.7997,-5.7997,-5.7997,-5.7997,-5.7997,-5.7997,-5.7997,-5.7997,-5.7997,-5.7997,-5.7997,-5.7997,-5.7997,-5.7997,-5.7997,-5.7997,-5.7997,-5.7997,-5.7997,-5.7997,-5.7997,-5.7997,-5.7997,-5.7997,-7.2496,-7.2496,-7.2496,-7.2496,-7.2496,-7.2496,-7.2496,-7.2496,-7.2496,-7.2496,-7.2496,-7.2496,-7.2496,-7.2496,-7.2496,-7.2496,-7.2496,-7.2496,-7.2496,-7.2496,-7.2496,-7.2496,-7.2496,-7.2496,-7.2496,-7.2496,-7.2496,-7.2496,-7.2165,-7.1982,-7.1945,-7.1174,-7.0587,-7.022,-6.9779,-6.9119,-6.8385,-6.8385,-6.8091,-6.7687,-6.7687,-6.7687,-6.7687,-6.7687,-6.7687,-6.7687,-6.7687,-6.7687,-6.7687,-6.7687,-6.7687,-6.7687,-6.7687,-6.7687,-6.7614,-6.7247,-6.6843,-6.6329,-6.5632,-6.4787,-6.4016,-6.3613,-6.3172,-6.278,-6.278,-6.278,-6.278,-6.278,-6.278,-6.278,-6.278,-6.278,-6.278,-6.278,-6.278,-6.278,-6.278,-6.278,-6.278,-6.278,-6.2108,-6.1447,-6.108,-6.0346,-5.9661,-5.9221,-5.8877,-5.8474,-5.8033,-5.7997,-5.7997,-5.7997,-5.7997,-5.7997,-5.7997,-5.7997,-5.7997,-5.7997,-5.7997,-5.7997,-5.7997,-5.7997,-5.7997,-5.7997,-5.7997,-5.7997,-5.7997,-5.7997,-5.7997,-5.7997,-5.7997,-5.7997,-5.7997,-5.7997,-5.7997,-5.7997]},{"header":{"parameterUnit":"m.s-1","parameterCategory":1,"la1":30.6,"la2":28.766,"lo1":-90.7593,"lo2":-88.6598,"dy":0.0162,"dx":0.0183,"nx":116,"ny":114,"refTime":"2024-05-03T12:00:00:Z","depth":0,"parameterNumber":3,"parameterNumberName":"V-component_of_WINDS"},"data":[0.0,0.0,0.0,0.0,0.0,0.0,0.0,0.0,0.0,0.0,0.0,0.0,0.0,0.0,0.0,0.0,0.0,0.0,0.0,0.0,0.0,0.0,0.0,0.0,0.0,0.0,0.0,0.0,0.0,0.0,0.0,0.0,0.0,0.0,0.0,0.0,0.0,0.0,0.0,0.0,0.0,0.0,0.0,0.0,0.0,0.0,0.0,0.0,0.0,0.0,0.0,0.0,0.0,0.0,0.0,0.0,0.0,0.0,0.0,0.0,0.0,0.0,0.0,0.0,0.0,0.0,0.0,0.0,0.0,0.0,0.0,0.0,0.0,0.0,0.0,0.0,0.0,0.0,0.0,0.0,0.0,0.0,0.0,0.0,0.0,0.0,0.0,0.0,0.0,0.0,0.0,0.0,0.0,0.0,0.0,0.0,0.0,0.0,0.0,0.0,0.0,0.0,0.0,0.0,0.0,0.0,0.0,0.0,0.0,0.0,0.0,0.0,0.0,0.0,0.0,0.0,0.0,0.0,0.0,0.0,0.0,0.0,0.0,0.0,0.0,0.0,0.0,0.0,0.0,0.0,0.0,0.0,0.0,0.0,0.0,0.0,0.0,0.0,0.0,0.0,0.0,0.0,0.0,0.0,0.0,0.0,0.0,0.0,0.0,0.0,0.0,0.0,0.0,0.0,0.0,0.0,0.0,0.0,0.0,0.0,0.0,0.0,0.0,0.0,0.0,0.0,0.0,0.0,0.0,0.0,0.0,0.0,0.0,0.0,0.0,0.0,0.0,0.0,0.0,0.0,0.0,0.0,0.0,0.0,0.0,0.0,0.0,0.0,0.0,0.0,0.0,0.0,0.0,0.0,0.0,0.0,0.0,0.0,0.0,0.0,0.0,0.0,0.0,0.0,0.0,0.0,0.0,0.0,0.0,0.0,0.0,0.0,0.0,0.0,0.0,0.0,0.0,0.0,0.0,0.0,0.0,0.0,0.0,0.0,0.0,0.0,0.0,0.0,0.0,0.0,0.0,0.0,0.0,0.0,0.0,0.0,0.0,0.0,0.0,0.0,0.0,0.0,0.0,0.0,0.0,0.0,0.0,0.0,0.0,0.0,0.0,0.0,0.0,0.0,0.0,0.0,0.0,0.0,0.0,0.0,0.0,0.0,0.0,0.0,0.0,0.0,0.0,0.0,0.0,0.0,0.0,0.0,0.0,0.0,0.0,0.0,0.0,0.0,0.0,0.0,0.0,0.0,0.0,0.0,0.0,0.0,0.0,0.0,0.0,0.0,0.0,0.0,0.0,0.0,0.0,0.0,0.0,0.0,0.0,0.0,0.0,0.0,0.0,0.0,0.0,0.0,0.0,0.0,0.0,0.0,0.0,0.0,0.0,0.0,0.0,0.0,0.0,0.0,0.0,0.0,0.0,0.0,0.0,0.0,0.0,0.0,0.0,0.0,0.0,0.0,0.0,0.0,0.0,0.0,0.0,0.0,0.0,0.0,0.0,0.0,0.0,0.0,0.0,0.0,0.0,0.0,0.0,0.0,0.0,0.0,0.0,0.0,0.0,0.0,0.0,0.0,0.0,0.0,0.0,0.0,0.0,0.0,0.0,0.0,0.0,0.0,0.0,0.0,0.0,0.0,0.0,0.0,0.0,0.0,0.0,0.0,0.0,0.0,0.0,0.0,0.0,0.0,0.0,0.0,0.0,0.0,0.0,0.0,0.0,0.0,0.0,0.0,0.0,0.0,0.0,0.0,0.0,0.0,0.0,0.0,0.0,0.0,0.0,0.0,0.0,0.0,0.0,0.0,0.0,0.0,0.0,0.0,0.0,0.0,0.0,0.0,0.0,0.0,0.0,0.0,0.0,0.0,0.0,0.0,0.0,0.0,0.0,0.0,0.0,0.0,0.0,0.0,0.0,0.0,0.0,0.0,0.0,0.0,0.0,0.0,0.0,0.0,0.0,0.0,0.0,0.0,0.0,0.0,0.0,0.0,0.0,0.0,0.0,0.0,0.0,0.0,0.0,0.0,0.0,0.0,0.0,0.0,0.0,0.0,0.0,0.0,0.0,0.0,0.0,0.0,0.0,0.0,0.0,0.0,0.0,0.0,0.0,0.0,0.0,0.0,0.0,0.0,0.0,0.0,0.0,0.0,0.0,0.0,0.0,0.0,0.0,0.0,0.0,0.0,0.0,0.0,0.0,0.0,0.0,0.0,0.0,0.0,0.0,0.0,0.0,0.0,0.0,0.0,0.0,0.0,0.0,0.0,0.0,0.0,0.0,0.0,0.0,0.0,0.0,0.0,0.0,0.0,0.0,0.0,0.0,0.0,0.0,0.0,0.0,0.0,0.0,0.0,0.0,0.0,0.0,0.0,0.0,0.0,0.0,0.0,0.0,0.0,0.0,0.0,0.0,0.0,0.0,0.0,0.0,0.0,0.0,0.0,0.0,0.0,0.0,0.0,0.0,0.0,0.0,0.0,0.0,0.0,0.0,0.0,0.0,0.0,0.0,0.0,0.0,0.0,0.0,0.0,0.0,0.0,0.0,0.0,0.0,0.0,0.0,0.0,0.0,0.0,0.0,0.0,0.0,0.0,0.0,0.0,0.0,0.0,0.0,0.0,0.0,0.0,0.0,0.0,0.0,0.0,0.0,0.0,0.0,0.0,0.0,0.0,0.0,0.0,0.0,0.0,0.0,0.0,0.0,0.0,0.0,0.0,0.0,0.0,0.0,0.0,0.0,0.0,0.0,0.0,0.0,0.0,0.0,0.0,0.0,0.0,0.0,0.0,0.0,0.0,0.0,0.0,0.0,0.0,0.0,0.0,0.0,0.0,0.0,0.0,0.0,0.0,0.0,0.0,0.0,0.0,0.0,0.0,0.0,0.0,0.0,0.0,0.0,0.0,0.0,0.0,0.0,0.0,0.0,0.0,0.0,0.0,0.0,0.0,0.0,0.0,0.0,0.0,0.0,0.0,0.0,0.0,0.0,0.0,0.0,0.0,0.0,0.0,0.0,0.0,0.0,0.0,0.0,0.0,0.0,0.0,0.0,0.0,0.0,0.0,0.0,0.0,0.0,0.0,0.0,0.0,0.0,0.0,0.0,0.0,0.0,0.0,0.0,0.0,0.0,0.0,0.0,0.0,0.0,0.0,0.0,0.0,0.0,0.0,0.0,0.0,0.0,0.0,0.0,0.0,0.0,0.0,0.0,0.0,0.0,0.0,0.0,0.0,0.0,0.0,0.0,0.0,0.0,0.0,0.0,0.0,0.0,0.0,0.0,0.0,0.0,0.0,0.0,0.0,0.0,0.0,0.0,0.0,0.0,0.0,0.0,0.0,0.0,0.0,0.0,0.0,0.0,0.0,0.0,0.0,0.0,0.0,0.0,0.0,0.0,0.0,0.0,0.0,0.0,0.0,0.0,0.0,0.0,0.0,0.0,0.0,0.0,0.0,0.0,0.0,0.0,0.0,0.0,0.0,0.0,0.0,0.0,0.0,0.0,0.0,0.0,0.0,0.0,0.0,0.0,0.0,0.0,0.0,0.0,0.0,0.0,0.0,0.0,0.0,0.0,0.0,0.0,0.0,0.0,0.0,0.0,0.0,0.0,0.0,0.0,0.0,0.0,0.0,0.0,0.0,0.0,0.0,0.0,0.0,0.0,0.0,0.0,0.0,0.0,0.0,0.0,0.0,0.0,0.0,0.0,0.0,0.0,0.0,0.0,0.0,0.0,0.0,0.0,0.0,0.0,0.0,0.0,0.0,0.0,0.0,0.0,0.0,0.0,0.0,0.0,0.0,0.0,0.0,0.0,0.0,0.0,0.0,0.0,0.0,0.0,0.0,0.0,0.0,0.0,0.0,0.0,0.0,0.0,0.0,0.0,0.0,0.0,0.0,0.0,0.0,0.0,0.0,0.0,0.0,0.0,0.0,0.0,0.0,0.0,0.0,0.0,0.0,0.0,0.0,0.0,0.0,0.0,0.0,0.0,0.0,0.0,0.0,0.0,0.0,0.0,0.0,0.0,0.0,0.0,0.0,0.0,0.0,0.0,0.0,0.0,0.0,0.0,0.0,0.0,0.0,0.0,0.0,0.0,0.0,0.0,0.0,0.0,0.0,0.0,0.0,0.0,0.0,0.0,0.0,0.0,0.0,0.0,0.0,0.0,0.0,0.0,0.0,0.0,0.0,0.0,0.0,0.0,0.0,0.0,0.0,0.0,0.0,0.0,0.0,0.0,0.0,0.0,0.0,0.0,0.0,0.0,0.0,0.0,0.0,0.0,0.0,0.0,0.0,0.0,0.0,0.0,0.0,0.0,0.0,0.0,0.0,0.0,0.0,0.0,0.0,0.0,0.0,0.0,0.0,0.0,0.0,0.0,0.0,0.0,0.0,0.0,0.0,0.0,0.0,0.0,0.0,0.0,0.0,0.0,0.0,0.0,0.0,0.0,0.0,0.0,0.0,0.0,0.0,0.0,0.0,0.0,0.0,0.0,0.0,0.0,0.0,0.0,0.0,0.0,0.0,0.0,0.0,0.0,0.0,0.0,0.0,0.0,0.0,0.0,0.0,0.0,0.0,0.0,0.0,0.0,0.0,0.0,0.0,0.0,0.0,0.0,0.0,0.0,0.0,0.0,0.0,0.0,0.0,0.0,0.0,0.0,0.0,0.0,0.0,0.0,0.0,0.0,0.0,0.0,0.0,0.0,0.0,0.0,0.0,0.0,0.0,0.0,0.0,0.0,0.0,0.0,0.0,0.0,0.0,0.0,0.0,0.0,0.0,0.0,0.0,0.0,0.0,0.0,0.0,0.0,0.0,0.0,0.0,0.0,0.0,0.0,0.0,0.0,0.0,0.0,0.0,0.0,0.0,0.0,0.0,0.0,0.0,0.0,0.0,0.0,0.0,0.0,0.0,0.0,0.0,0.0,0.0,0.0,0.0,0.0,0.0,0.0,0.0,0.0,0.0,0.0,0.0,0.0,0.0,0.0,0.0,0.0,0.0,0.0,0.0,0.0,0.0,0.0,0.0,0.0,0.0,0.0,0.0,0.0,0.0,0.0,0.0,0.0,0.0,0.0,0.0,0.0,0.0,0.0,0.0,0.0,0.0,0.0,0.0,0.0,0.0,0.0,0.0,0.0,0.0,0.0,0.0,0.0,0.0,0.0,0.0,0.0,0.0,0.0,0.0,0.0,0.0,0.0,0.0,0.0,0.0,0.0,0.0,0.0,0.0,0.0,0.0,0.0,0.0,0.0,0.0,0.0,0.0,0.0,0.0,0.0,0.0,0.0,0.0,0.0,0.0,0.0,0.0,0.0,0.0,0.0,0.0,0.0,0.0,0.0,0.0,0.0,0.0,0.0,0.0,0.0,0.0,0.0,0.0,0.0,0.0,0.0,0.0,0.0,0.0,0.0,0.0,0.0,0.0,0.0,0.0,0.0,0.0,0.0,0.0,0.0,0.0,0.0,0.0,0.0,0.0,0.0,0.0,0.0,0.0,0.0,0.0,0.0,0.0,0.0,0.0,0.0,0.0,0.0,0.0,0.0,0.0,0.0,0.0,0.0,0.0,0.0,0.0,0.0,0.0,0.0,0.0,0.0,0.0,0.0,0.0,0.0,0.0,0.0,0.0,0.0,0.0,0.0,0.0,0.0,0.0,0.0,0.0,0.0,0.0,0.0,0.0,0.0,0.0,0.0,0.0,0.0,0.0,0.0,0.0,0.0,0.0,0.0,0.0,0.0,0.0,0.0,0.0,0.0,0.0,0.0,0.0,0.0,0.0,0.0,0.0,0.0,0.0,0.0,0.0,0.0,0.0,0.0,0.0,0.0,0.0,0.0,0.0,0.0,0.0,0.0,0.0,0.0,0.0,0.0,0.0,0.0,0.0,0.0,0.0,0.0,0.0,0.0,0.0,0.0,0.0,0.0,0.0,0.0,0.0,0.0,0.0,0.0,0.0,0.0,0.0,0.0,0.0,0.0,0.0,0.0,0.0,0.0,0.0,0.0,0.0,0.0,0.0,0.0,0.0,0.0,0.0,0.0,0.0,0.0,0.0,0.0,0.0,0.0,0.0,0.0,0.0,0.0,0.0,0.0,0.0,0.0,0.0,0.7584,0.5311,0.0,0.0,0.0,0.0,0.0,0.0,0.0,0.0,0.0,0.0,0.0,0.0,0.0,0.0,0.0,0.0,0.0,0.0,0.0,0.0,0.0,0.0,0.0,-0.2447,-0.2465,-0.251,-0.1728,-0.1493,-0.1886,0.0,0.0,0.0,0.0,0.0,0.2354,0.2339,0.272,0.3594,0.2791,0.2606,0.3057,0.3544,0.354,0.3206,0.0,0.0,0.0,0.0,0.0,0.0,0.0,0.0,0.0,0.0,0.0,0.0,0.0,0.0,0.0,0.0,0.0,0.0,0.0,0.0,0.0,0.0,0.0,0.0,0.0,0.0,0.0,0.0,0.0,0.0,0.0,0.0,0.0,0.0,0.0,0.0,0.0,0.0,0.0,0.0,0.0,0.0,0.0,0.0,0.0,0.0,0.0,0.0,0.0,0.0,0.0,0.0,0.0,0.0,0.0,0.0,0.0,0.0,0.0,0.0,0.0,0.0,0.0,0.0,0.0,0.0,0.0,0.0,0.0,0.0,0.9332,0.7725,0.0,0.0,0.0,0.0,0.0,0.0,0.0,0.0,0.0,0.0,0.0,0.0,0.0,0.0,0.0,0.0,0.0,0.0,0.0,0.0,0.0,-0.2354,-0.2409,-0.242,-0.2446,-0.2502,-0.1726,-0.1334,-0.1331,-0.0388,0.0,0.0,0.1344,0.1707,0.2371,0.235,0.3034,0.4472,0.3133,0.3346,0.5123,0.5414,0.4976,0.3933,0.4171,0.0,0.0,0.0,0.0,0.0,0.0,0.0,0.0,0.0,0.0,0.0,0.0,0.0,0.0,0.0,0.0,0.0,0.0,0.0,0.0,0.0,0.0,0.0,0.0,0.0,0.0,0.0,0.0,0.0,0.0,0.0,0.0,0.0,0.0,0.0,0.0,0.0,0.0,0.0,0.0,0.0,0.0,0.0,0.0,0.0,0.0,0.0,0.0,0.0,0.0,0.0,0.0,0.0,0.0,0.0,0.0,0.0,0.0,0.0,0.0,0.0,0.0,0.0,1.32,1.3085,1.2854,1.2983,1.2901,1.2579,1.0797,1.0062,1.0075,0.7342,0.0,0.0,0.0,0.0,0.0,0.0,0.0,0.0,0.0,0.0,0.0,0.0,0.0,0.0,0.0,0.0,0.0,0.0,0.0,-0.2346,-0.238,-0.2408,-0.2438,-0.2472,-0.1795,-0.1329,-0.1315,0.0154,0.1068,0.1118,0.186,0.2291,0.2339,0.2361,0.2552,0.2847,0.2619,0.3471,0.5266,0.6725,0.8165,0.9342,0.7099,0.6094,0.6181,0.0,0.0,0.0,0.0,0.0,0.0,0.0,0.0,0.0,0.0,0.0,0.0,0.0,0.0,0.0,0.0,0.0,0.0,0.0,0.0,0.0,0.0,0.0,0.0,0.0,0.0,0.0,0.0,0.0,0.0,0.0,0.0,0.0,0.0,0.0,0.0,0.0,0.0,0.0,0.0,0.0,1.3057,1.3159,0.0,0.0,0.0,0.0,0.0,0.0,0.0,0.0,0.0,0.0,0.0,0.0,0.0,1.2963,1.2963,1.3119,1.3193,1.3173,1.3308,1.3349,1.3315,1.3336,1.3322,1.3261,1.2569,0.0,1.1281,0.9952,0.0,0.0,0.0,0.0,0.0,0.0,0.0,0.0,0.0,0.0,0.0,0.0,0.0,0.0,0.0,0.0,0.0,0.0,0.0,0.0,0.0,-0.2421,-0.2461,-0.2492,-0.1347,-0.0558,-0.0552,0.1017,0.1927,0.1805,0.2163,0.238,0.2383,0.238,0.2425,0.2519,0.3561,0.4443,0.5377,0.6117,0.7929,1.0481,0.8263,0.8096,0.9322,0.8291,0.0,0.0,0.0,0.0,0.0,0.0,0.0,0.0,0.0,0.0,0.0,0.0,0.0,0.0,0.0,0.0,0.0,0.0,0.0,0.0,0.0,0.0,0.0,0.0,0.0,0.0,0.0,0.0,0.0,0.0,0.0,0.0,0.0,0.0,0.0,0.0,0.0,0.0,0.0,1.301,1.2983,1.3044,1.3037,1.2935,0.0,0.0,0.0,0.0,0.0,0.0,0.0,0.0,0.0,1.2827,1.299,1.3044,1.2963,1.3186,1.3302,1.3302,1.337,1.3403,1.3403,1.3403,1.3403,1.339,1.3193,1.2895,1.2527,1.1621,1.0539,0.9364,0.0,0.0,0.0,0.0,0.5991,0.6167,0.0,0.0,0.0,0.0,0.0,0.0,0.0,0.0,0.0,0.0,0.0,0.0,-0.2387,-0.2451,-0.2502,-0.2523,-0.1205,-0.0242,0.0,0.1336,0.224,0.2403,0.2379,0.238,0.2412,0.242,0.2476,0.2582,0.3864,0.4997,0.6041,0.6041,0.7964,1.1309,0.9971,1.0025,1.0976,0.9445,0.8602,0.8246,0.0,0.0,0.0,0.0,0.0,0.0,0.0,0.0,0.0,0.0,0.0,0.0,0.0,0.0,0.0,0.0,0.0,0.0,0.0,0.0,0.0,0.0,0.0,0.0,0.0,0.0,0.0,0.0,0.0,0.0,0.0,0.0,0.0,0.0,0.0,0.0,0.0,1.2969,1.2915,1.2956,1.2929,1.2827,0.0,0.0,0.0,0.0,0.0,0.0,1.3003,1.2874,1.2827,1.2901,1.3119,1.318,1.3078,1.3295,1.3403,1.3403,1.3403,1.3376,1.3342,1.3342,1.3322,1.3288,1.3288,1.3288,1.3268,1.2642,1.1776,1.0878,1.0222,0.9204,0.8028,0.7838,0.7825,0.7932,0.0,0.0,0.0,0.0,0.0,0.0,0.0,0.0,0.0,0.0,0.0,-0.242,-0.2421,-0.2502,-0.2556,-0.2557,-0.1776,-0.0882,-0.0155,0.0772,0.1595,0.2268,0.2335,0.2349,0.238,0.2492,0.2581,0.2559,0.2758,0.4535,0.7885,0.7885,0.9805,1.3231,1.3148,1.1806,0.9452,0.8406,0.7402,0.667,0.7224,0.0,0.0,0.0,0.0,0.0,0.0,0.0,0.0,0.0,0.0,0.0,0.0,0.0,0.0,0.0,0.0,0.0,0.0,0.0,0.0,0.0,0.0,0.0,0.0,0.0,0.0,0.0,0.0,0.0,0.0,0.0,0.0,0.0,0.0,0.0,0.0,0.0,0.0,1.2942,1.32,0.0,0.0,0.0,0.0,1.2732,1.2589,1.2705,1.3139,1.3024,1.3078,1.3356,1.3383,1.339,1.3376,1.3397,1.3403,1.3403,1.3403,1.3322,1.3186,1.3186,1.3112,1.2983,1.2983,1.2983,1.299,1.3105,1.3071,1.2956,1.2141,1.1734,1.1612,1.1346,1.1409,1.1714,0.0,0.0,0.0,0.0,0.0,-0.0292,-0.1095,-0.1168,-0.146,-0.2187,-0.2386,-0.2424,-0.2424,-0.2521,-0.2586,-0.2586,-0.1315,-0.033,-0.0081,0.1265,0.2165,0.2423,0.2364,0.2365,0.2435,0.2555,0.2626,0.2565,0.2677,0.4537,0.7968,0.7968,0.9971,1.3403,1.3403,1.2866,1.1901,1.0335,0.9501,0.9026,0.8016,0.7497,0.0,0.0,0.0,0.0,0.0,0.0,0.0,0.0,0.0,0.0,0.0,0.0,0.0,0.0,0.0,0.0,0.0,0.0,0.0,0.0,0.0,0.0,0.0,0.0,0.0,0.0,0.0,0.0,0.0,0.0,0.0,0.0,0.0,0.0,0.0,0.0,0.0,1.3945,1.3996,0.0,1.3844,1.3356,1.2935,1.2881,1.3003,1.3152,1.3308,1.3268,1.3295,1.3397,1.3308,1.3254,1.3254,1.3166,1.3119,1.3119,1.3119,1.3091,1.3037,1.3037,1.309,1.2963,1.2963,1.2963,1.2956,1.2908,1.2949,1.3024,1.2702,1.2641,1.2615,1.2336,1.2322,1.2402,0.0,0.0,0.0,0.0,0.0,-0.0292,-0.1095,-0.1168,-0.1464,-0.2214,-0.2416,-0.2462,-0.2481,-0.2251,-0.2304,-0.2632,-0.075,0.0333,-0.0081,0.1512,0.2487,0.2425,0.2394,0.2421,0.2512,0.2601,0.2652,0.2662,0.2683,0.4537,0.7968,0.7968,0.9971,1.3403,1.3403,1.3403,1.3314,1.1771,1.0898,1.0519,0.8864,0.8063,0.779,0.0,0.0,0.0,0.0,0.0,0.0,0.0,0.0,0.0,0.0,0.0,0.0,0.0,0.0,0.0,0.0,0.0,0.0,0.0,0.0,0.0,0.0,0.0,0.0,0.0,0.0,0.0,0.0,0.0,0.0,0.0,0.0,0.0,0.0,1.4469,1.4756,1.5233,1.4789,1.4312,1.3996,1.3429,1.3112,1.3112,1.3288,1.3376,1.3329,1.3322,1.3302,1.3254,1.3152,1.3105,1.3105,1.301,1.2963,1.2963,1.2963,1.2935,1.2881,1.2881,1.2773,1.2589,1.2739,1.2718,1.2583,1.263,1.2712,1.2807,1.2807,1.2807,1.2793,1.2691,1.2651,1.2637,0.0,0.0,0.0,0.0,0.0,-0.0292,-0.1095,-0.1168,-0.1473,-0.2262,-0.2476,-0.2536,-0.2593,-0.1825,-0.1682,-0.2608,-0.0336,0.0825,-0.0158,0.1493,0.2384,0.2341,0.2423,0.2511,0.26,0.2632,0.2662,0.2692,0.2692,0.4453,0.7885,0.7968,0.9888,1.3321,1.3397,1.3397,1.33,1.2244,1.1359,1.0527,0.9457,0.8869,0.8653,0.0,0.0,0.0,0.0,0.0,0.0,0.0,0.0,0.0,0.0,0.0,0.0,0.0,0.0,0.0,0.0,0.0,0.0,0.0,0.0,0.0,0.0,0.0,0.0,0.0,0.0,0.0,0.0,0.0,0.0,0.0,0.0,0.0,1.73,1.6477,1.6174,1.6766,1.5634,1.4548,1.3645,1.3562,1.3473,1.3473,1.339,1.3322,1.3173,1.3152,1.3085,1.2942,1.2935,1.2935,1.2935,1.2942,1.2949,1.2949,1.2949,1.2868,1.2725,1.2725,1.2406,1.1877,1.2311,1.2257,1.1884,1.2318,1.2501,1.2501,1.2501,1.2501,1.2501,1.2501,1.2501,1.2494,0.0,0.0,0.0,0.0,0.0,-0.0292,-0.1095,-0.1168,-0.1463,-0.2209,-0.2448,-0.2521,-0.2537,-0.2383,-0.244,-0.2692,-0.143,-0.0665,-0.0968,0.0634,0.1782,0.2327,0.2465,0.2533,0.26,0.2653,0.2684,0.2692,0.2692,0.3866,0.6124,0.7379,0.9221,1.1475,1.2816,1.3005,1.2326,1.1961,1.0933,0.949,0.9159,0.8538,0.7903,0.0,0.0,0.0,0.0,0.0,0.0,0.0,0.0,0.0,0.0,0.0,0.0,0.0,0.0,0.0,0.0,0.0,0.0,0.0,0.0,0.0,0.0,0.0,0.0,0.0,0.0,0.0,0.0,0.0,0.0,0.0,1.8488,1.8768,1.798,1.825,1.8191,1.7315,1.7991,1.8128,1.7255,1.6537,1.5804,1.5178,1.3863,1.3064,1.3024,1.2712,1.2515,1.2474,1.2366,1.2388,1.2388,1.2522,1.263,1.263,1.263,1.2603,1.2562,1.2562,1.2474,1.2325,1.2447,1.2433,1.2325,1.2447,1.2501,1.2501,1.2501,1.2501,1.2501,1.2501,1.2433,1.2305,0.0,0.0,0.0,0.0,-0.0146,-0.0438,-0.1095,-0.1313,-0.1685,-0.2294,-0.2455,-0.2523,-0.2548,-0.2306,-0.2272,-0.2692,-0.1514,-0.0913,-0.1285,0.0314,0.1474,0.1951,0.2294,0.2579,0.2638,0.2675,0.2692,0.2692,0.2692,0.3614,0.5454,0.6627,0.847,1.0721,1.1919,1.2269,1.1855,1.1745,1.0689,0.9016,0.8974,0.8567,0.8067,0.8493,0.9295,1.0185,1.0634,1.1529,1.24,1.2318,0.0,0.0,0.0,0.0,0.0,0.0,0.0,0.0,0.0,0.0,0.0,0.0,0.0,0.0,0.0,0.0,0.0,0.0,0.0,0.0,0.0,0.0,0.0,0.0,2.0528,2.1278,2.148,2.0791,2.0272,2.0533,2.0712,2.0408,1.9534,1.8836,1.8223,1.7686,1.5688,1.4495,1.4426,1.3156,1.2359,1.2108,1.2196,1.2155,1.1965,1.2325,1.2501,1.2501,1.2501,1.2501,1.2501,1.2501,1.24,1.223,1.242,1.2393,1.223,1.2359,1.2413,0.0,0.0,0.0,0.0,0.0,1.2264,1.2155,0.0,0.0,0.0,0.0,-0.0365,-0.073,-0.1168,-0.1532,-0.1913,-0.234,-0.2477,-0.2537,-0.2596,-0.1909,-0.1766,-0.2608,-0.1258,-0.0576,-0.1261,0.0153,0.1083,0.1298,0.2032,0.2548,0.2691,0.2692,0.2692,0.2692,0.2692,0.3532,0.5119,0.5709,0.7547,1.0382,1.0936,1.1365,1.1743,1.1494,1.0346,0.8823,0.8738,0.8622,0.8535,0.8438,0.934,1.0682,1.0682,1.1378,1.2338,1.2318,0.0,0.0,0.0,0.0,0.0,0.0,0.0,0.0,0.0,0.0,0.0,0.0,0.0,0.0,0.0,0.0,0.0,0.0,0.0,0.0,0.0,0.0,0.0,0.0,2.2577,2.4015,2.6226,2.3744,2.2533,2.4594,2.3423,2.2088,2.1175,2.0789,2.057,2.0492,1.8133,1.6573,1.6328,1.4042,0.0,0.0,0.0,1.2237,1.1837,1.2277,1.2501,1.2501,1.2501,1.2501,1.2501,1.2501,1.2277,1.1904,1.2305,1.2244,1.1877,1.2155,1.2264,1.2277,1.2406,1.2372,1.2244,1.2054,1.2006,1.2026,0.0,0.0,0.0,0.0,-0.0365,-0.073,-0.1168,-0.1532,-0.1913,-0.234,-0.2477,-0.2537,-0.2596,-0.249,-0.2524,-0.2692,-0.2317,-0.1861,-0.1338,-0.0998,-0.0155,0.1217,0.1463,0.189,0.2691,0.2692,0.2692,0.2692,0.2692,0.2861,0.3279,0.5125,0.6881,0.8632,1.0436,1.1068,1.0723,1.0571,0.9425,0.7785,0.7768,0.7759,0.7759,0.7738,0.8731,1.0186,1.0186,1.1197,1.2623,1.2501,1.2583,1.2752,1.2874,1.2854,0.0,0.0,0.0,0.0,0.0,0.0,0.0,0.0,0.0,0.0,0.0,0.0,0.0,0.0,0.0,0.0,0.0,0.0,0.0,2.2431,2.3285,2.4705,2.7593,2.6232,2.4644,2.3769,2.4516,2.4713,2.3569,2.3261,2.2861,2.2188,1.909,1.6919,1.6195,1.4145,1.2617,1.1837,1.1918,1.1918,1.183,1.2277,1.2501,1.2501,1.2501,0.0,1.2501,1.2501,1.2393,1.2203,1.2291,1.221,1.202,1.2081,1.2108,1.2108,1.2135,1.2128,1.206,1.1667,1.1674,1.1823,0.0,0.0,-0.0073,-0.0292,-0.0657,-0.1022,-0.1459,-0.1822,-0.2124,-0.2299,-0.2431,-0.2492,-0.2551,-0.2585,-0.2615,-0.2645,-0.2593,-0.2398,-0.1998,-0.1581,-0.0877,0.0,0.0827,0.1496,0.2018,0.244,0.2692,0.2692,0.2692,0.2692,0.2692,0.4285,0.5625,0.6791,0.8155,0.9126,0.9713,0.9065,0.8581,0.8072,0.7681,0.7525,0.7525,0.7994,0.8929,1.0097,1.0486,1.146,1.2603,1.2528,1.2603,1.2745,1.282,1.2847,1.2847,0.0,0.0,0.0,0.0,0.0,0.0,0.0,0.0,0.0,0.0,0.0,0.0,0.0,0.0,1.4609,1.4907,0.0,1.944,2.246,2.3097,2.4366,2.7726,2.7406,2.655,2.5692,2.626,2.6426,2.5896,2.5581,2.4871,2.3678,2.0898,1.8487,1.6818,1.4616,1.2887,1.1837,1.2047,1.206,1.183,1.2277,1.2501,1.2501,1.2501,1.2501,1.2501,1.2501,1.2427,1.2291,1.2291,1.2203,1.2054,1.1979,1.1904,1.1843,1.1843,1.1884,1.1911,1.1613,1.1599,1.1694,0.0,0.0,-0.0146,-0.0511,-0.0949,-0.1313,-0.175,-0.2114,-0.2337,-0.2349,-0.2393,-0.2447,-0.2507,-0.2514,-0.2529,-0.2564,-0.2534,-0.2534,-0.2582,-0.1946,-0.1479,-0.1344,0.0084,0.0925,0.1262,0.2018,0.2524,0.2692,0.2692,0.2777,0.2861,0.3616,0.4621,0.5703,0.6161,0.7151,0.833,0.7765,0.769,0.7994,0.7681,0.7525,0.7603,0.8622,0.9397,1.0097,1.0952,1.1805,1.2501,1.2501,1.2583,1.2691,1.2718,1.2813,1.2895,1.2766,1.282,0.0,0.0,0.0,0.0,0.0,0.0,0.0,0.0,1.2773,1.2807,1.263,1.3956,1.5163,1.513,1.6516,1.8712,2.2188,2.2745,2.3947,2.7366,2.7786,2.7832,2.7698,2.7598,2.7452,2.7393,2.7144,2.6473,2.5125,2.2707,2.0294,1.8184,1.5633,1.3558,1.2194,1.254,1.2477,1.1965,1.2318,1.2501,1.2501,1.2501,1.2501,1.2501,1.2501,1.2406,1.2244,1.2182,1.2088,1.1965,1.1843,1.1721,1.1619,1.1619,1.1687,1.1775,1.166,1.1619,1.1619,0.0,0.0,-0.0146,-0.0511,-0.0949,-0.1313,-0.175,-0.2114,-0.2352,-0.2406,-0.242,-0.2447,-0.2507,-0.2514,-0.2495,-0.2447,-0.2487,-0.2517,-0.2523,-0.2492,-0.2136,-0.1344,-0.1093,-0.0252,0.1262,0.143,0.185,0.2692,0.2692,0.2945,0.3367,0.3784,0.4873,0.6546,0.6546,0.6387,0.6314,0.7194,0.672,0.5561,0.6975,0.7525,0.7681,0.9241,0.9942,1.0097,1.0952,1.1805,1.2501,1.2501,1.2515,1.2549,1.2684,1.2745,1.2752,1.2732,1.2745,1.2698,1.2413,1.2155,1.2026,1.2298,1.2461,1.2549,0.0,1.2942,1.3247,1.2969,1.4481,1.5861,1.5626,1.7039,1.9293,2.2454,2.2959,2.4036,2.7107,2.7525,2.7422,2.713,2.732,2.7364,2.7071,2.7013,2.691,2.6765,2.3844,2.1664,2.0669,1.7607,1.5165,1.3509,1.356,1.3175,1.2427,1.2474,1.2501,1.2501,1.2501,1.2501,1.2501,1.2501,1.2352,1.2149,1.1809,1.1687,1.1667,1.1647,1.1633,1.1619,1.1619,1.1626,1.164,1.1626,1.1619,1.1619,0.0,-0.0219,-0.0511,-0.0876,-0.1095,-0.1387,-0.1968,-0.2187,-0.2342,-0.2367,-0.2371,-0.2394,-0.2455,-0.223,-0.2056,-0.2079,-0.2046,-0.2244,-0.2512,-0.257,-0.2464,-0.21,-0.1598,-0.0925,-0.0252,0.0757,0.1514,0.185,0.244,0.2777,0.3029,0.37,0.4288,0.4789,0.4401,0.4527,0.5068,0.4257,0.4609,0.5691,0.5968,0.6662,0.7603,0.8852,0.9553,1.0158,1.1314,1.2016,0.0,1.2244,1.2244,1.2284,1.2522,1.2481,1.2372,1.2549,1.2413,1.2196,1.2169,1.2189,1.225,1.2379,1.2589,1.2766,1.2766,1.2963,1.3112,1.2983,1.4421,1.5691,1.5626,1.6783,1.8902,2.2154,2.2512,2.3154,2.545,2.66,2.6836,2.574,2.6185,2.65,2.6164,2.6661,2.6388,2.4802,2.4011,2.2186,1.9091,1.8062,1.6406,1.3814,1.3667,1.3513,1.3197,1.2733,1.2501,1.2501,1.2501,1.2501,1.2501,1.2501,1.2338,1.2047,1.1748,1.1619,1.1619,1.1619,1.1619,1.1619,1.1619,1.1619,1.1619,1.1619,1.1619,1.1619,-0.0146,-0.0365,-0.0729,-0.124,-0.1386,-0.1605,-0.2187,-0.2333,-0.2333,-0.2333,-0.2333,-0.2349,-0.2394,-0.2023,-0.1785,-0.1826,-0.179,-0.1989,-0.2275,-0.2488,-0.2628,-0.269,-0.2018,-0.1598,-0.1346,-0.0084,0.0841,0.1262,0.2103,0.2692,0.3113,0.3868,0.4122,0.3954,0.3003,0.2983,0.3544,0.1866,0.2727,0.5172,0.5055,0.5971,0.7603,0.8466,0.9284,1.0053,1.1308,1.1911,1.2121,1.1965,1.1993,1.2088,1.2216,1.2169,1.2088,1.2216,1.1999,1.1755,1.1945,1.2128,1.2298,1.2461,1.2671,1.2854,1.2942,1.2963,1.2963,1.2963,1.4149,1.5162,1.5114,1.6225,1.8056,2.0962,2.1342,2.1907,2.3671,2.5345,2.5803,2.4455,2.5285,2.5754,2.5066,2.6047,2.5984,2.4325,2.4453,2.2868,1.894,1.8658,1.7236,1.4122,1.3814,1.359,1.3351,1.2811,1.2501,1.2501,1.2501,1.2501,1.2501,1.242,1.2264,1.2047,1.1748,1.1619,1.1619,1.1619,1.1619,1.1619,1.1619,1.1619,1.1619,1.1619,1.1619,1.1619,-0.0511,-0.0584,-0.0875,-0.1677,-0.175,-0.1895,-0.226,-0.2333,-0.2333,-0.2333,-0.2333,-0.2334,-0.2335,-0.197,-0.1824,-0.1822,-0.179,-0.1836,-0.1882,-0.2328,-0.2628,-0.269,-0.2692,-0.2272,-0.1346,-0.1262,-0.0421,0.1262,0.1766,0.2691,0.3952,0.4456,0.4878,0.53,0.3446,0.2255,0.1488,0.1321,0.171,0.2791,0.4385,0.6017,0.7603,0.8466,0.9111,0.9741,1.0565,1.1388,1.202,1.1728,1.1823,1.2013,1.1735,1.1837,1.2006,1.1728,1.1531,1.147,1.1762,1.1742,1.1782,1.2359,1.2508,1.2596,1.2895,1.2963,1.2963,1.2963,1.3676,1.4256,1.4091,1.5384,1.7025,1.8491,1.9359,2.0402,2.2049,2.3696,2.4382,2.3736,2.5017,2.5388,2.3808,2.511,2.6296,2.6823,2.5478,2.3857,2.2112,1.9865,1.7464,1.5045,1.4122,1.3351,1.2579,1.2501,1.2501,1.2501,1.2501,1.2501,1.2488,1.2203,1.2149,1.2047,1.1748,1.1619,1.1619,1.1619,1.1619,1.1619,1.1619,1.1619,1.1619,1.1619,1.1619,1.1619,-0.0949,-0.124,-0.1458,-0.175,-0.1968,-0.2187,-0.226,-0.2333,-0.2333,-0.2333,-0.2333,0.0,0.0,0.0,0.0,0.0,-0.1551,-0.1649,-0.2246,-0.2206,-0.2249,-0.263,-0.2671,-0.2524,-0.2272,-0.1598,-0.1009,-0.0421,0.0336,0.1346,0.2691,0.3194,0.3616,0.4038,0.2438,0.1258,0.0418,-0.0829,-0.0493,0.0815,0.1445,0.3342,0.5852,0.6025,0.7528,0.9612,0.0,1.0398,1.1521,1.1348,1.1382,1.1484,1.1586,1.1545,1.1409,1.1111,1.1274,1.1518,1.1416,1.1647,1.1959,1.2162,1.2359,1.2528,1.263,1.2657,1.2657,1.2657,1.319,1.3664,1.3647,1.4362,1.5688,1.8086,1.8362,1.8789,2.0389,2.1522,2.2342,2.2606,2.3466,2.451,2.5743,2.5944,2.5842,2.5418,2.587,2.5258,2.314,2.1204,1.9101,1.6684,1.4721,1.3583,1.3274,1.2733,1.2501,1.2501,1.2501,1.2501,1.2488,1.2196,1.2135,1.2047,1.1748,1.1619,1.1619,1.1619,1.1619,1.1619,1.1619,1.1619,1.1619,1.1619,1.1619,1.1619,0.0,-0.1609,-0.1822,-0.1968,-0.2187,0.0,0.0,0.0,0.0,0.0,0.0,0.0,0.0,0.0,0.0,0.0,0.0,-0.1636,-0.2219,-0.2016,-0.2047,-0.2328,-0.2282,-0.2218,-0.2218,-0.1573,-0.1164,-0.0831,-0.0084,0.0841,0.2018,0.2439,0.2859,0.3113,0.1681,0.0673,-0.0084,-0.1502,-0.1325,-0.0082,0.016,0.213,0.4914,0.4758,0.6522,0.0,0.8916,0.9653,1.073,1.0934,1.1077,1.1179,1.1267,1.1165,1.1009,1.1036,1.124,1.1457,1.1477,1.1769,1.2088,1.2189,1.2359,1.2501,1.2501,1.2501,1.2501,1.2501,1.2803,1.304,1.3032,1.3435,1.4407,1.6305,1.6768,1.7247,1.8351,1.9713,2.0647,2.0966,2.2317,2.38,2.5299,2.5767,2.5754,2.514,2.6047,2.545,2.2764,2.137,1.9372,1.6608,1.4729,1.3583,1.3274,1.2733,1.2501,1.2501,1.2501,1.2501,1.2488,1.2196,1.2006,1.1891,1.1701,1.1558,1.1463,1.1572,1.1619,1.1619,1.1619,1.1619,1.1619,1.1619,1.1619,1.1619,0.0,0.0,-0.1896,0.0,0.0,0.0,0.0,0.0,0.0,0.0,0.0,0.0,0.0,0.0,0.0,0.0,0.0,0.0,-0.1816,-0.1837,-0.1937,-0.1961,-0.157,-0.1336,-0.1336,-0.1365,-0.0894,-0.0081,0.0415,0.1091,0.1929,0.2351,0.2604,0.2604,0.126,0.042,-0.0084,-0.0923,-0.0911,-0.0162,0.0317,0.2086,0.4447,0.4627,0.5937,0.7761,0.8591,0.9189,0.9782,1.0452,1.0914,1.1118,1.0846,1.0765,1.0873,1.143,1.1409,1.1398,1.1884,1.2135,1.2149,1.2433,1.2501,1.2501,1.2501,1.2501,1.2501,1.2481,1.2467,1.2366,1.2081,1.2667,1.3178,1.3297,1.4613,1.5768,1.6174,1.8174,1.9436,1.8863,2.1545,2.3232,2.2842,2.4707,2.5976,2.6018,2.6047,2.4691,2.1654,2.0549,1.857,1.5335,1.4276,1.3274,1.2501,1.2501,1.2501,1.2501,1.2501,1.2501,1.2488,1.2196,1.1911,1.164,1.1626,1.1457,1.1206,1.1497,1.1619,1.1619,1.1619,1.1619,1.1619,1.1619,1.1619,1.1619,0.0,0.0,0.0,0.0,0.0,0.0,0.0,0.0,0.0,0.0,0.0,0.0,0.0,0.0,0.0,0.0,0.0,0.0,-0.2193,-0.1975,-0.1989,-0.2324,-0.2267,-0.2043,-0.1728,-0.1739,-0.1506,-0.0951,-0.0885,-0.0162,0.1052,0.1144,0.1394,0.164,0.0984,0.0246,-0.0574,-0.1383,-0.1615,-0.1443,-0.1643,-0.046,0.1355,0.2327,0.4115,0.6345,0.7446,0.8633,0.9782,1.0452,1.0914,1.1192,1.1341,1.1389,1.1375,1.1301,1.1538,1.1816,1.1748,1.2054,1.2406,1.2481,1.2501,1.2501,1.2501,1.2501,1.244,1.2216,1.1999,1.1789,1.1599,1.1427,1.1934,1.3761,1.403,1.4628,1.6407,1.6908,1.7641,1.8934,1.9826,2.1294,2.3839,2.4652,2.5221,2.5976,2.6471,2.6373,2.5548,2.2497,2.0098,1.8562,1.5403,1.3274,1.2501,1.2501,1.2501,1.2501,1.2501,1.2501,1.2488,1.2196,1.202,1.1938,1.1714,1.1572,1.1511,1.1586,1.1619,1.1619,1.1619,1.1619,1.1619,1.1619,1.1619,1.1619,0.0,0.0,0.0,0.0,0.0,0.0,0.0,0.0,0.0,0.0,0.0,0.0,0.0,0.0,0.0,0.0,0.0,0.0,0.0,-0.2021,-0.1954,-0.2183,-0.2048,-0.1826,-0.1598,-0.153,-0.1384,-0.1005,-0.0939,-0.0475,0.0399,0.04,0.0482,0.0726,0.0481,0.0,-0.0721,-0.1114,-0.1582,0.0,0.0,-0.128,0.0074,0.0855,0.2373,0.4282,0.5949,0.7907,0.9819,1.075,1.1138,1.124,1.1674,1.1721,1.164,1.1721,1.1898,1.2054,1.202,1.225,1.2501,1.2501,1.2501,1.2467,1.2338,1.2311,1.2223,1.1932,1.1735,1.1552,1.1335,1.1084,1.1365,1.2869,1.3436,1.4136,1.5527,1.6158,1.6899,1.7998,1.8748,2.0089,2.2311,2.3103,2.4082,2.5296,2.6157,2.6272,2.5538,2.2727,2.037,1.8779,1.5854,1.3737,1.2501,1.2501,1.2501,1.2501,1.2501,1.2501,1.2488,1.2196,1.1993,1.1857,1.1694,1.1545,1.143,1.1565,1.1619,1.1619,1.1619,1.1619,1.1619,1.1619,1.1619,1.1613,0.0,0.0,0.0,0.0,0.0,0.0,0.0,0.0,0.0,0.0,-0.2333,-0.2333,-0.2333,-0.2333,0.0,0.0,0.0,0.0,0.0,0.0,-0.185,-0.1905,-0.1537,-0.1318,-0.1247,-0.1255,-0.1045,-0.0681,-0.0536,-0.0389,-0.008,0.0,0.0,0.0,0.0,-0.0235,-0.0627,-0.0626,-0.1087,-0.1839,-0.1721,-0.125,-0.0435,0.0,0.0757,0.2121,0.465,0.7102,0.9393,1.1056,1.1443,1.1328,1.1932,1.1945,1.183,1.2305,1.2291,1.2169,1.2386,1.2474,1.2501,1.2501,1.2501,1.2433,1.2176,1.2162,1.1979,1.1681,1.1586,1.1477,1.1212,1.1234,1.133,1.1708,1.2968,1.4057,1.4318,1.57,1.6636,1.6727,1.7988,1.9148,1.9768,2.102,2.2571,2.4449,2.5368,2.5286,2.412,2.2519,2.0303,1.7493,1.571,1.4045,1.2501,1.2501,1.2501,1.2501,1.2501,1.2501,1.2488,1.2196,1.1925,1.1674,1.164,1.147,1.1246,1.1511,1.1619,1.1619,1.1619,1.1619,1.1619,1.1619,1.1619,1.1599,0.0,0.0,0.0,0.0,0.0,0.0,0.0,0.0,0.0,0.0,-0.2333,-0.2333,0.0,0.0,0.0,0.0,0.0,0.0,0.0,0.0,0.0,-0.2331,-0.2235,-0.201,-0.1731,-0.1698,-0.1479,-0.1211,-0.0759,-0.0536,-0.0466,-0.0156,0.0,0.0,0.0,-0.0078,-0.0155,-0.0459,-0.0908,-0.1344,-0.1692,-0.1815,-0.1794,-0.0569,0.0,0.0,0.4849,0.6164,0.669,1.0343,1.1586,1.1647,1.2237,1.2393,1.2318,1.2182,1.2277,1.2386,1.2189,1.2318,1.2501,1.2501,1.2501,1.2488,1.2433,1.2237,1.1979,1.1681,1.1416,1.1226,1.1241,1.1234,1.1538,1.2415,1.2824,1.3389,1.4345,1.5282,1.6013,1.6258,1.6802,1.7916,1.9618,1.9752,2.107,2.4335,2.4736,2.5267,2.6373,2.4888,2.2016,1.7502,1.5174,1.3505,1.2501,1.2501,1.2501,1.2501,1.2501,1.2501,1.2488,1.2196,1.2033,1.1972,1.1728,1.1592,1.1545,1.1599,1.1619,1.1619,1.1619,1.1619,1.1619,1.1619,1.1619,1.1599,0.0,0.0,0.0,0.0,0.0,0.0,0.0,-0.2376,-0.2357,-0.2357,-0.2342,-0.2333,-0.2333,-0.2333,-0.2333,0.0,0.0,0.0,0.0,0.0,0.0,0.0,0.0,0.0,-0.212,-0.2082,-0.1932,-0.159,0.0,-0.0836,-0.0623,-0.0155,0.0,0.0,0.0,0.0,0.0,-0.0448,-0.0814,-0.1251,-0.1389,-0.1817,-0.2166,0.0,0.0,0.0,0.2763,0.3887,0.4653,0.7152,0.8247,0.9061,1.165,1.2501,1.244,1.2149,1.2271,1.2433,1.2142,1.2277,1.2501,1.2501,1.2501,1.242,1.2115,1.1932,1.1701,1.1246,1.1036,1.0934,1.0934,1.0934,1.1221,1.2037,1.2538,1.3182,1.4269,1.5159,1.5838,1.6456,1.6679,1.7173,1.8184,1.8087,1.8989,2.163,2.2604,2.4189,2.6823,2.4288,2.113,1.7512,1.5028,1.3274,1.2501,1.2501,1.2501,1.2501,1.2501,1.2501,1.2488,1.2196,1.2135,1.2047,1.1748,1.1531,1.1396,1.1552,1.1525,1.1396,1.1558,1.1619,1.1619,1.1619,1.1565,1.1477,0.0,0.0,0.0,0.0,0.0,0.0,-0.2433,-0.2408,-0.2388,-0.2388,-0.2361,-0.2342,-0.2342,-0.2337,-0.2333,0.0,0.0,0.0,0.0,0.0,0.0,0.0,0.0,0.0,-0.2443,0.0,0.0,-0.1993,-0.1509,0.0,0.0,0.0,0.0,0.0,0.0151,0.0149,0.0,-0.0442,-0.0805,0.0,0.0,-0.1751,-0.2257,0.0,0.0,0.0,0.0,0.1681,0.2761,0.4215,0.5023,0.6,0.9949,1.146,1.1815,1.1652,1.1996,1.2372,1.2203,1.2325,1.2501,1.2501,1.2501,1.2366,1.1837,1.1667,1.1463,1.0928,1.0765,1.0738,1.0806,1.0819,1.0989,1.1531,1.2087,1.2877,1.405,1.4857,1.5709,1.6646,1.6802,1.684,1.6925,1.6859,1.7492,1.9178,2.1148,2.3668,2.6808,2.3375,2.0444,1.8703,1.5633,1.3737,1.3259,1.2726,1.2501,1.2501,1.2501,1.2501,1.2488,1.2196,1.2135,1.2047,1.1748,1.1443,1.1185,1.1491,1.1436,1.1261,1.1497,1.1619,1.1619,1.1619,1.1525,1.1369,0.0,0.0,0.0,0.0,0.0,0.0,-0.2465,-0.2439,-0.242,-0.242,-0.2393,-0.2373,-0.2373,-0.2349,-0.2333,0.0,0.0,0.0,0.0,0.0,0.0,0.0,0.0,0.0,0.0,0.0,0.0,-0.2547,-0.2022,0.0,0.0,0.0,0.0,0.0,0.0,0.0676,0.0,-0.0446,0.0,0.0,0.0,0.0,0.0,0.0,0.0,0.0,0.0,0.0679,0.0741,0.3732,0.4324,0.421,0.6221,0.8183,0.9837,1.0036,1.1096,1.2155,1.2393,1.2481,1.2501,1.2501,1.2501,1.242,1.2094,1.1809,1.1525,1.1192,1.0907,1.0806,1.107,1.1124,1.1233,1.1565,1.1575,1.2101,1.3706,1.4227,1.4975,1.6636,1.6802,1.6953,1.7331,1.7029,1.762,1.9564,2.2584,2.5144,2.691,2.3905,2.2335,2.2831,1.7673,1.5182,1.576,1.3568,1.2501,1.2501,1.2501,1.2501,1.2488,1.2196,1.2135,1.2047,1.1748,1.1443,1.1185,1.1491,1.1436,1.1261,1.1497,1.1619,1.1619,1.1619,1.1525,1.1369,0.0,0.0,0.0,0.0,0.0,0.0,-0.2496,-0.247,-0.2451,-0.2451,-0.2409,-0.2378,-0.2378,-0.235,-0.2339,-0.2358,-0.2388,0.0,0.0,0.0,0.0,0.0,0.0,0.0,0.0,0.0,-0.2477,-0.2533,-0.2023,0.0,0.0,0.0,0.0,0.0,0.0,0.0896,0.0966,-0.0369,0.0,0.0,0.0,0.0,0.0,0.0,0.0,0.0,0.0,0.0,-0.1145,0.0136,0.0682,0.1026,0.2142,0.3949,0.6198,0.8647,1.0675,1.2047,1.1986,1.223,1.2501,1.2501,1.2501,1.2379,1.1904,1.1708,1.1484,1.0995,1.0799,1.0758,1.0873,1.0894,1.0995,1.1294,1.1294,1.1818,1.3348,1.4058,1.495,1.6298,1.687,1.7142,1.7057,1.6897,1.7963,2.0681,2.2092,2.4004,2.6823,2.4891,2.361,2.3423,2.0294,1.7815,1.6133,1.5149,1.3945,1.2501,1.2501,1.2461,1.2366,1.2155,1.2013,1.1911,1.1708,1.1341,1.0934,1.1423,1.1335,1.0948,1.143,1.1619,1.1606,1.1518,1.1389,1.1233,0.0,0.0,0.0,0.0,0.0,-0.2518,-0.2526,-0.2502,-0.2485,-0.2495,-0.2443,-0.2405,-0.2405,-0.2378,-0.2372,-0.2402,-0.2408,0.0,0.0,0.0,0.0,0.0,0.0,0.0,0.0,0.0,-0.2484,-0.2514,-0.2165,-0.1696,0.0,0.0,0.0906,0.1213,0.0,0.0,0.0,0.0,0.0,0.0,0.0,0.0,0.0,0.0,0.0,0.0,0.0,0.0,0.0,0.0,0.0,-0.1279,-0.0269,0.1345,0.3575,0.7272,0.9804,1.1382,1.1636,1.2115,1.2501,1.2501,1.2433,1.2237,1.1735,1.1552,1.1341,1.0826,1.0717,1.0717,1.0717,1.0683,1.0751,1.105,1.1097,1.1552,1.2947,1.3579,1.4482,1.5891,1.6548,1.6945,1.7001,1.6991,1.8084,2.0831,2.1486,2.3126,2.6152,2.5653,2.5038,2.4482,2.2249,1.9768,1.7189,1.6438,1.4927,1.2501,1.2501,1.2379,1.2155,1.2088,1.1932,1.1694,1.164,1.1328,1.0894,1.1409,1.1314,1.09,1.1416,1.1619,1.1599,1.145,1.1294,1.1138,0.0,0.0,0.0,0.0,0.0,-0.2525,-0.2555,-0.2533,-0.2525,-0.2555,-0.2506,-0.2467,-0.2467,-0.2442,-0.2435,-0.2465,-0.2413,0.0,0.0,0.0,0.0,0.0,0.0,0.0,-0.2514,-0.2484,-0.2484,-0.2514,-0.2454,-0.1818,-0.0681,0.0523,0.1108,0.1242,0.0,0.0,0.0,0.0,0.0,0.0,0.0,0.0,0.0,0.0,0.0,0.0,0.0,0.0,0.0,0.0,0.0,0.0,0.0,0.0941,0.2766,0.5961,0.8186,0.9931,1.1602,1.2277,1.2501,1.2501,1.2284,1.1986,1.1687,1.1389,1.1084,1.0785,1.0717,1.0717,1.0717,1.0595,1.0595,1.0833,1.088,1.1323,1.2462,1.2727,1.3529,1.5497,1.5688,1.6145,1.7303,1.7416,1.8092,1.9736,2.1291,2.2942,2.4536,2.6093,2.6983,2.6983,2.3078,2.0594,1.9682,1.7265,1.4927,1.2501,1.2501,1.2271,1.1843,1.1993,1.1816,1.1402,1.1552,1.1443,0.0,1.1491,1.1436,1.1192,1.1497,1.1619,1.1599,1.145,1.1294,1.1138,0.0,0.0,0.0,0.0,0.0,0.0,-0.2527,-0.2538,-0.2541,-0.253,-0.2512,-0.2492,-0.2472,-0.2442,-0.2428,-0.2438,-0.242,0.0,0.0,0.0,0.0,0.0,0.0,-0.239,-0.2421,-0.2412,-0.2421,-0.2453,-0.1884,-0.127,-0.0598,0.0885,0.1684,0.1969,0.2041,0.2187,0.0,0.0801,0.0,0.0,0.0,0.0,-0.16,0.0,0.0,0.0,0.0,0.0,0.0,0.0,0.0,0.0,0.0,0.0,0.0,0.542,0.7824,0.949,1.1063,1.1667,1.1898,1.1898,1.183,1.1681,1.1375,1.1233,1.1077,1.0785,1.0717,1.069,1.0582,1.0527,1.0561,1.0758,1.0792,1.1036,1.1825,1.2539,1.3482,1.4861,1.6082,1.6972,1.734,1.7171,1.7777,1.9639,2.1052,2.2629,2.4509,2.6093,2.6983,2.6983,2.5786,2.4188,2.2225,1.9822,1.7341,1.4927,1.3259,1.2216,1.1694,1.1945,1.1755,1.1246,1.1504,1.1443,1.1185,1.1491,1.1436,1.1261,1.1497,1.1558,1.1443,1.1294,1.1145,1.0995,0.0,0.0,0.0,0.0,0.0,0.0,-0.2055,-0.2379,-0.254,-0.2533,-0.2532,-0.2519,-0.2489,-0.248,-0.247,-0.2459,-0.2447,0.0,0.0,0.0,0.0,0.0,-0.235,-0.2364,-0.2394,-0.2384,-0.2238,-0.1955,-0.141,-0.0738,0.0074,0.1244,0.1968,0.226,0.2187,0.2333,0.0,0.204,0.0,0.0,0.0,0.0,-0.1308,0.0,0.0,0.0,0.0,0.0,0.0,0.0,0.0,0.0,0.0,0.0,0.0,0.0,0.7166,0.8423,1.0629,1.1389,1.1619,1.1619,1.1531,1.1396,1.1206,1.1077,1.0941,1.0758,1.0765,1.0744,1.0527,1.0493,1.0487,1.0466,1.0609,1.0853,1.1226,1.1882,1.2914,1.4343,1.5808,1.6944,1.7331,1.7706,1.817,1.8819,2.1308,2.3031,2.3684,2.58,2.6983,2.6983,2.6983,2.5845,2.3423,2.1256,1.8779,1.6057,1.3953,1.2498,1.1633,1.1925,1.1807,1.1179,1.1484,1.1511,0.0,1.1538,1.1504,1.1355,1.1545,1.1525,1.1369,1.1219,1.107,1.086,0.0,0.0,0.0,0.0,0.0,0.0,0.0,-0.1821,-0.2368,-0.2474,-0.2479,-0.2468,-0.2518,-0.254,-0.2545,-0.2517,-0.2488,0.0,0.0,0.0,0.0,-0.2378,-0.2376,-0.2388,-0.2417,-0.239,-0.2004,-0.1187,-0.1173,-0.0291,0.1239,0.1604,0.1968,0.2333,0.2697,0.2697,0.2551,0.4075,0.0,0.0,0.2109,0.0945,0.0,0.0,0.0,0.0,0.0,0.0,0.0,0.0,0.0,0.0,0.0,0.0,0.0,0.0,0.0,0.0,0.0,1.1314,1.1525,1.1525,1.1307,1.1166,1.1166,1.0894,0.0,1.0717,1.0839,1.0786,1.0548,1.0507,1.0426,1.0051,1.0368,1.0717,1.0717,1.1063,1.1992,1.3847,1.5031,1.6163,1.7274,1.8754,1.8991,1.7502,2.1763,2.377,2.2273,2.5258,2.6983,2.6983,2.6983,2.5918,2.3658,2.2013,1.9521,1.6317,1.4613,1.3071,1.1599,1.1904,1.1794,1.1179,1.1484,1.1619,1.1619,1.1619,1.1619,1.1619,1.1606,1.1511,1.1355,1.1206,1.1056,1.0847,0.0,0.0,0.0,0.0,0.0,0.0,0.0,0.0,0.0,0.0,-0.159,-0.1832,-0.2439,-0.2521,-0.2522,0.0,0.0,0.0,0.0,0.0,0.0,-0.2378,-0.2356,-0.2346,-0.2354,-0.2348,-0.1977,-0.1171,-0.0584,0.0219,0.1239,0.1822,0.2187,0.2333,0.2405,0.3059,0.4148,0.4511,0.0,0.0,0.2979,0.1663,0.0,0.0,0.0,0.0,-0.2169,-0.2223,0.0,0.0,0.0,0.0,0.0,0.0,0.0,0.0,0.6304,0.6845,0.9827,0.0,1.0595,1.0595,1.0541,1.0487,0.0,1.0521,1.0575,1.0697,1.0839,1.0786,1.0548,1.0683,1.0704,1.0297,1.05,1.0717,1.0717,1.1724,1.2806,1.3817,1.5189,1.6277,1.6898,1.7529,1.7797,1.7426,2.0703,2.2571,2.2186,2.5258,2.6983,2.6983,2.6983,2.6765,2.6152,2.3966,2.1429,1.8539,1.6432,1.3919,1.1287,1.1694,1.1619,1.1179,1.1484,1.1619,1.1619,1.1619,1.1619,1.1606,1.1491,1.1348,1.1199,1.105,1.09,1.0772,0.0,0.0,0.0,0.0,0.0,0.0,0.0,0.0,0.0,0.0,-0.0714,-0.1035,-0.1888,-0.1974,-0.2134,0.0,0.0,0.0,0.0,-0.2446,-0.2408,-0.2379,-0.2363,-0.2348,-0.2333,-0.1968,-0.1384,-0.0656,0.0146,0.0947,0.175,0.2114,0.2333,0.2333,0.2333,0.3205,0.4729,0.5452,0.5742,0.5742,0.4763,0.0,0.0,0.0,0.0,0.0,-0.2232,-0.2223,0.0,-0.2223,-0.2223,-0.1952,0.0,0.0,0.0,0.0,0.6181,0.6688,0.9532,1.0331,1.0392,1.0466,1.0432,1.0412,1.0555,1.0534,1.0555,1.0778,1.0766,1.0772,1.0534,1.0575,1.0561,1.0317,1.0412,1.0588,1.0799,1.1503,1.2348,1.32,1.4405,1.5406,1.6204,1.7611,1.8471,1.8471,2.1464,2.3326,2.3326,2.5639,2.6983,2.6983,2.6983,2.6983,2.6983,2.4951,2.2863,2.0696,1.7812,1.5147,1.2765,1.2114,1.1667,1.1375,1.1396,1.1491,1.1606,1.147,1.1491,1.1606,1.145,1.1301,1.1214,1.1002,1.0853,1.0717,0.0,0.0,0.0,0.0,0.0,0.0,0.0,0.0,0.0,0.0,0.0,0.0,0.0,0.0,0.0,0.0,0.0,0.0,0.0,-0.21,-0.2067,-0.202,-0.2234,-0.229,-0.2114,-0.1531,-0.0729,0.0219,0.0874,0.1604,0.2333,0.2333,0.2405,0.2697,0.2697,0.3714,0.5452,0.6825,0.7038,0.6517,0.6721,0.0,0.0,0.0,0.0,0.0,0.0,0.0,0.0,-0.2223,-0.2223,-0.1952,-0.0741,0.0,0.0,0.0,0.0,0.0,0.9293,1.0249,1.046,1.0616,1.0555,1.0534,1.0745,1.0677,1.0575,1.082,1.086,1.0738,1.0561,1.0507,1.0439,1.0304,1.0317,1.0487,1.0826,1.109,1.1587,1.2485,1.3373,1.439,1.5562,1.7976,1.952,1.9811,2.236,2.4079,2.4609,2.5873,2.6765,2.6983,2.6983,2.6983,2.6983,2.5653,2.4117,2.2375,1.9168,1.6606,1.4664,1.28,1.1807,1.1606,1.1348,0.0,1.1599,1.1341,1.1389,1.1599,1.1423,1.1274,1.1145,1.0975,1.0833,1.0717,0.0,0.0,0.0,0.0,0.0,0.0,0.0,0.0,0.0,0.0,0.0,0.0,0.0,0.0,0.0,0.0,0.0,0.0,0.0,-0.0392,-0.0389,-0.0384,-0.1653,-0.2069,-0.1385,-0.1239,-0.0437,0.102,0.1166,0.1604,0.2333,0.2333,0.3059,0.4366,0.4366,0.5887,0.8636,0.8853,0.9165,0.9363,0.7553,0.0,0.0,0.0,0.0,0.0,0.0,0.0,0.0,-0.2223,-0.2223,-0.2154,-0.1952,0.0,0.0,0.0,0.0,0.0,0.9481,1.0181,1.0092,1.031,1.0331,1.0358,1.0521,1.0527,1.0575,1.082,1.1029,1.1009,1.0738,1.1084,1.1165,1.0405,1.0487,1.0724,1.0853,1.1185,1.1643,1.2367,1.3728,1.4869,1.5541,1.6945,1.8319,1.9661,2.0263,2.1763,2.4449,2.483,2.558,2.6983,2.6983,2.6983,2.6983,2.6765,2.5194,2.2377,2.0732,1.8092,1.4745,1.327,1.228,1.1619,0.0,1.1572,1.1613,1.1565,1.1579,1.1592,1.1307,1.1255,1.1131,1.0853,1.0738,1.0717,0.0,0.0,0.0,0.0,0.0,0.0,0.0,0.0,0.0,0.0,0.0,0.0,0.0,0.0,0.0,0.0,0.0,0.0,0.0,0.0,0.0,0.0,-0.0682,-0.0895,-0.0589,-0.0146,0.0437,0.1166,0.1604,0.1968,0.2333,0.3205,0.4005,0.4729,0.5597,0.7187,0.9285,0.922,0.9592,1.0106,0.0,0.0,0.0,0.0,0.0,0.0,0.0,0.0,0.0,0.0,-0.1547,-0.2087,-0.1279,0.0,0.0,0.0,0.0,0.0,0.9412,1.0222,1.0344,1.0582,1.0399,1.0304,1.0853,1.0663,1.0555,1.1179,1.1036,1.0812,1.0839,1.0934,1.09,1.0575,1.0907,1.1172,1.1077,1.1179,1.144,1.1804,1.2847,1.3938,1.4782,1.5957,1.752,1.965,2.0628,2.2124,2.4449,2.5419,2.6239,2.6998,2.6983,2.6983,2.6983,2.6822,2.5812,2.4025,2.1613,1.9036,1.6412,1.5184,1.3737,1.2316,0.0,1.3208,1.2244,1.2073,1.1776,1.147,1.1253,1.1118,1.1023,1.0799,1.0717,1.0717,0.0,0.0,0.0,0.0,0.0,0.0,0.0,0.0,0.0,0.0,0.0,0.0,0.0,0.0,0.0,0.0,0.0,0.0,0.0537,0.0539,0.0617,0.0617,0.0534,0.0451,0.0297,0.088,0.1311,0.1457,0.2041,0.2478,0.2914,0.4151,0.5093,0.5815,0.7042,0.842,0.9862,0.9729,0.9947,1.0403,0.0,0.0,0.0,0.0,0.0,0.0,0.0,0.0,0.0,0.0,0.0,0.0,0.0,0.0,0.0,0.4839,0.6106,0.6796,0.9375,1.027,1.0521,1.0799,1.0509,1.0361,1.1253,1.0921,1.067,1.1497,1.1185,1.0826,1.1063,1.0826,1.0663,1.0846,1.1233,1.1457,1.1294,1.1267,1.1328,1.1477,1.2201,1.3159,1.4196,1.5297,1.6964,1.9564,2.0848,2.2435,2.4522,2.58,2.6619,2.6983,2.6983,2.6954,2.6881,2.6632,2.6208,2.5582,2.2512,2.0074,1.8205,1.7296,1.5495,1.3167,1.503,1.4658,1.2802,1.2555,1.2013,1.1375,1.1219,1.105,1.088,1.0965,1.085,1.0717,0.0,0.0,0.0,0.0,0.0,0.0,0.0,0.0,0.0,0.0,0.0,0.0,0.0,0.0,0.0,0.0,0.0,0.0,0.2198,0.2299,0.2315,0.2315,0.2288,0.1882,0.1115,0.1174,0.1531,0.2187,0.226,0.3059,0.4511,0.4657,0.625,0.9002,0.9074,1.0017,1.1462,1.1308,1.1168,1.1027,1.0253,0.0,0.0,0.0,0.0,0.0,0.0,0.0,0.0,0.0,0.0,0.0,0.0,0.0,0.0788,0.4839,0.6106,0.681,0.9557,1.0276,1.0399,1.0772,1.0745,1.0833,1.1463,1.124,1.1008,1.1687,1.1667,1.1545,1.1565,1.1212,1.1009,1.1294,1.126,1.1287,1.1552,1.1586,1.164,1.1782,1.2532,1.3402,1.4317,1.5172,1.6813,1.9329,1.9647,2.1145,2.4435,2.4683,2.5492,2.691,2.6983,2.6852,2.6544,2.6515,2.6325,2.5903,2.3981,2.1779,1.938,1.9264,1.7248,1.3896,1.5406,1.484,1.2824,1.2802,1.2215,1.1375,1.1219,1.0989,1.0804,1.1453,1.1314,1.0916,0.0,0.0,0.0,0.0,0.0,0.0,0.0,0.0,0.0,0.0,0.0,0.0,0.0,0.0,0.0,0.0,0.0,0.2363,0.2393,0.2424,0.2448,0.2469,0.244,0.2267,0.1955,0.1915,0.2041,0.2333,0.3278,0.4584,0.6174,0.7119,0.8203,0.9363,1.0305,1.0986,1.1463,1.1314,1.1165,1.0948,1.0524,1.0098,0.0,0.0,0.0,0.0,0.0,0.0,0.0,0.0,0.1142,-0.0673,0.0337,0.0663,0.1298,0.4958,0.6106,0.6874,0.957,1.0412,1.0663,1.1111,1.0968,1.088,1.1484,1.1274,1.1103,1.1952,1.1775,1.145,1.1355,1.1355,1.1369,1.1389,1.1497,1.1586,1.1613,1.1619,1.164,1.1694,1.199,1.2699,1.4172,1.4554,1.5656,1.7709,1.9606,2.1244,2.2516,2.4408,2.5727,2.6383,2.6383,2.6325,2.6208,2.6003,2.5827,2.5641,2.4094,2.1976,1.9553,2.0938,1.8997,1.475,1.7609,1.6836,1.3468,1.3468,1.2596,1.1226,1.0982,1.0819,1.0784,1.1512,1.1644,1.1512,0.0,0.0,0.0,0.0,0.0,0.0,0.0,0.0,0.0,0.0,0.0,0.0,0.0,0.0,0.0,0.0,0.4504,0.3581,0.3172,0.3138,0.295,0.2454,0.2425,0.2414,0.2423,0.2364,0.2333,0.2333,0.3932,0.5742,0.7765,0.8781,0.9579,1.0089,1.1109,1.1538,1.1382,1.1226,1.1084,1.0867,1.0778,1.0452,0.0,0.0,0.0,0.0,0.0,0.0,0.0,0.0,0.3,0.0868,0.2003,0.203,0.2239,0.5646,0.6787,0.7336,0.957,1.0426,1.0744,1.1151,1.1023,1.0962,1.1613,1.1409,1.1301,1.206,1.1965,1.1681,1.1555,1.1579,1.164,1.1491,1.1592,1.1674,1.1626,1.1619,1.1619,1.1619,1.1619,1.223,1.3922,1.4075,1.48,1.6543,1.957,2.1317,2.1414,2.4282,2.6018,2.6018,2.6018,2.5974,2.5857,2.5637,2.5476,2.5388,2.4329,2.273,2.0593,2.2614,2.08,1.6221,1.9298,1.817,1.4252,1.4252,1.3193,1.1475,1.1168,1.1049,1.1115,1.1843,1.2107,1.2231,0.0,0.0,0.0,0.0,0.0,0.0,0.0,0.0,1.2501,1.2501,1.2501,0.0,0.0,0.0,0.0,0.0,0.7076,0.6319,0.4802,0.4714,0.4031,0.2497,0.2469,0.2467,0.2423,0.2364,0.2333,0.2333,0.393,0.6322,0.9291,0.9291,1.0161,1.1619,1.1619,1.1538,1.1382,1.1226,1.1084,1.0867,1.0778,1.0717,1.0651,0.0,0.0,0.0,0.0,0.0,0.0,0.0,0.4395,0.2496,0.4464,0.412,0.3595,0.7101,0.8075,0.8358,0.9679,1.027,1.0568,1.0873,1.088,1.1076,1.1884,1.1714,1.1525,1.2046,1.2298,1.2413,1.2115,1.1938,1.1789,1.1647,1.1497,1.145,1.1599,1.1619,1.1619,1.1619,1.1619,1.2187,1.3761,1.3904,1.4614,1.639,1.9375,2.1183,2.139,2.4353,2.6003,2.6003,2.6003,2.5857,2.5535,2.552,2.5374,2.5119,2.5119,2.4292,2.2819,2.4428,2.2627,1.8471,1.9982,1.8508,1.5026,1.5026,1.3887,1.2231,1.1903,1.1776,1.1909,1.2561,1.2816,1.3013,0.0,0.0,0.0,0.0,0.0,0.0,0.0,0.0,1.2501,1.2501,1.2501,0.0,0.0,0.0,0.0,0.0,0.0,0.6893,0.6322,0.6378,0.6216,0.5664,0.5641,0.5123,0.4031,0.3965,0.4511,0.5594,0.7187,0.893,1.0894,1.0894,1.1181,1.1619,1.1721,1.1565,1.1233,1.1294,1.1118,1.0785,1.0738,1.0717,1.0651,0.0,0.0,0.0,0.0,0.0,0.0,0.0,0.0,0.0,0.5793,0.5723,0.5786,0.7843,0.8329,0.8591,1.0071,1.0507,1.0588,1.0995,1.1097,1.1185,1.1518,1.1647,1.1803,1.2149,1.2291,1.2257,1.1952,1.2121,1.2182,1.1823,1.1823,1.1843,1.1775,1.1681,1.1619,1.1619,1.1619,1.1979,1.3039,1.3619,1.4349,1.5399,1.8768,2.075,2.0834,2.3722,2.5344,2.5344,2.5344,2.5301,2.5198,2.5198,2.5154,2.5119,2.5119,2.4292,2.2819,2.4428,2.3243,1.9982,2.0397,1.9066,1.6394,1.41,1.2697,1.1999,1.1326,1.1314,1.1909,1.2561,1.3144,1.3678,0.0,0.0,0.0,0.0,0.0,0.0,0.0,0.0,1.2501,1.2501,1.2501,1.2501,0.0,0.0,0.0,0.0,0.9639,0.8654,0.8047,0.8053,0.7734,0.7083,0.7015,0.6539,0.5663,0.6203,0.6974,0.791,0.8853,1.0089,1.1619,1.1619,1.1619,1.1619,1.1647,1.147,1.1234,1.1199,1.1023,1.0717,1.0717,1.0717,1.0717,0.0,0.0,0.0,0.0,0.0,0.0,0.0,0.0,0.0,0.7837,0.7661,0.7495,0.8947,0.9216,0.9307,1.0438,1.0656,1.0717,1.1287,1.1389,1.1396,1.1613,1.1748,1.1932,1.2298,1.2372,1.2318,1.2128,1.2318,1.2393,1.2067,1.204,1.2006,1.185,1.1708,1.1619,1.1619,1.1619,1.19,1.2753,1.3468,1.4181,1.4955,1.7959,1.9982,2.0605,2.2887,2.4495,2.5052,2.5119,2.5119,2.5119,2.5119,2.5119,2.5119,2.5119,2.4631,2.372,2.4699,2.3802,2.1433,2.0259,1.8615,1.6558,1.4164,1.2914,1.2404,1.177,1.1835,1.2297,1.2955,1.3678,1.4342,0.0,0.0,1.2501,1.2501,0.0,0.0,0.0,0.0,1.2501,1.2501,1.2501,1.2501,0.0,0.0,0.0,0.0,0.0,0.0,0.9855,0.9613,0.8988,0.7673,0.7357,0.7259,0.7404,0.8636,0.9363,0.9507,0.9507,1.0233,1.1619,1.1619,1.1619,1.1613,1.147,1.1321,1.122,1.1023,1.0873,1.0717,1.0717,1.0717,1.0717,1.0717,0.0,0.0,0.0,0.0,0.0,0.0,0.0,0.0,1.0117,0.9655,0.8932,1.0182,1.0432,1.0399,1.0683,1.0758,1.0928,1.1619,1.1701,1.1701,1.2026,1.1986,1.1993,1.2413,1.2488,1.2488,1.2501,1.2501,1.2461,1.2332,1.2169,1.2013,1.187,1.1721,1.1619,1.1619,1.1619,1.1907,1.261,1.3396,1.4181,1.4813,1.7067,1.903,2.0536,2.1984,2.3515,2.5052,2.5119,2.5119,2.5119,2.5119,2.5119,2.5119,2.5119,2.5119,2.5119,2.5119,2.421,2.2477,1.9785,1.7565,1.5819,1.4868,1.3993,1.3118,1.2881,1.2816,1.2947,1.3678,1.4342,1.4866,0.0,0.0,1.2501,1.2501,0.0,0.0,0.0,0.0,0.0,1.2501,1.2501,0.0,0.0,0.0,0.0,0.0,0.0,0.0,1.1567,1.1639,1.1388,1.0847,0.9512,0.9363,1.0599,0.9723,0.9873,1.1109,1.1109,1.1253,1.1619,1.1619,1.1619,1.1619,1.1586,1.1416,1.1227,1.1131,1.0962,1.0717,1.0717,1.0717,1.0717,1.0717,1.0717,0.0,0.0,0.0,0.0,0.0,0.0,0.0,1.0538,1.0472,1.0274,1.0538,1.0731,1.0846,1.1016,1.107,1.1131,1.1416,1.1552,1.1755,1.2284,1.2298,1.225,1.2461,1.2413,1.2372,1.2481,1.2501,1.2488,1.2461,1.2237,1.2047,1.202,1.1782,1.1619,1.1619,1.1619,1.1691,1.1835,1.3118,1.3975,1.411,1.6785,1.903,2.0536,2.1984,2.3515,2.5052,2.5119,2.5119,2.5119,2.5119,2.5119,2.5119,2.5119,2.5119,2.5119,2.5119,2.3665,2.102,2.0397,1.8429,1.5621,1.4814,1.4185,1.3673,1.303,1.3144,1.3678,1.3809,1.4342,1.4866,0.0,0.0,0.0,0.0,0.0,0.0,0.0,0.0,0.0,0.0,0.0,0.0,0.0,0.0,0.0,0.0,0.0,0.0,1.2169,1.2176,1.2074,1.1843,1.0891,1.0743,1.1548,1.0815,1.0815,1.1619,1.1619,1.1619,1.1619,1.1619,1.1619,1.1613,1.1463,1.1314,1.122,1.1009,1.086,1.0717,1.0717,1.0717,1.0717,1.0717,1.0717,1.0717,1.0717,0.0,0.0,0.0,0.0,0.0,0.0,0.0,1.0745,1.0744,1.0778,1.0887,1.1104,1.1212,1.1362,1.1728,1.1932,1.2108,1.2345,1.2393,1.2413,1.2488,1.244,1.2413,1.2488,1.2501,1.2501,1.2501,1.225,1.2135,1.2135,1.1809,1.1619,1.1619,1.1619,1.1763,1.2115,1.319,1.4039,1.4395,1.623,1.8331,2.0467,2.1365,2.2682,2.4781,2.4984,2.4984,2.4781,2.4984,2.5119,2.5119,2.5119,2.5119,2.5119,2.5119,2.3461,2.0617,2.0605,1.8672,1.5555,1.4796,1.4294,1.3875,1.3481,1.3547,1.394,1.4277,1.4604,1.4866,0.0,0.0,0.0,0.0,0.0,0.0,0.0,0.0,0.0,0.0,0.0,0.0,0.0,0.0,0.0,0.0,0.0,0.0,1.2318,1.2162,1.1993,1.1837,1.1694,1.1619,1.1619,1.1619,1.1619,1.1619,1.1619,1.1647,1.1694,1.1694,1.1694,1.1681,1.1375,1.1212,1.1214,1.0846,1.0717,1.0717,1.0717,1.0717,1.0717,1.0717,1.0717,1.0717,1.0717,1.0717,1.0717,1.0717,0.0,0.0,0.0,0.0,1.0813,1.0724,1.0738,1.0846,1.1063,1.1294,1.1599,1.2155,1.2359,1.2406,1.2338,1.24,1.2474,1.2494,1.2501,1.2501,1.2501,1.2501,1.2501,1.2501,1.225,1.2135,1.2135,1.1809,1.1619,1.1619,1.1619,1.1828,1.2538,1.3396,1.4181,1.4742,1.5683,1.7429,2.0328,2.0536,2.1721,2.436,2.4713,2.4781,2.4428,2.4713,2.4916,2.4916,2.4984,2.5052,2.5119,2.5119,2.3461,2.0617,2.0557,1.8696,1.5555,1.4896,1.4392,1.4071,1.4071,1.4071,1.4137,1.467,1.4866,1.4866,0.0,0.0,0.0,0.0,0.0,0.0,0.0,0.0,0.0,0.0,1.2427,1.2454,0.0,0.0,1.2474,1.2474,1.2454,1.2454,1.2474,0.0,0.0,1.1837,1.1694,1.1619,1.1619,1.1619,1.1619,1.1619,1.1619,1.1748,1.2006,1.2006,1.2006,1.1993,1.1687,1.1409,1.1214,1.0846,1.0717,1.0717,1.0717,1.0717,1.0717,1.0717,1.0717,1.0717,1.0717,1.0717,1.0717,1.0717,1.0717,0.0,0.0,0.0,1.0717,1.0568,1.0799,1.1084,1.1002,1.1298,1.1857,1.2203,1.2203,1.2182,1.242,1.2393,1.2352,1.2474,1.2501,1.2501,1.2501,1.2501,1.2501,1.2501,1.225,1.2135,1.2135,1.1809,1.1619,1.1619,1.1619,1.1619,1.1763,1.3047,1.3975,1.4039,1.5399,1.7369,2.0005,2.0156,2.139,2.3952,2.4102,2.4102,2.4088,2.4102,2.417,2.417,2.4442,2.4781,2.5119,2.5119,2.3447,2.0593,2.0432,1.8551,1.5545,1.5222,1.494,1.48,1.48,1.48,1.48,1.4866,1.4866,1.4866,0.0,0.0,0.0,0.0,0.0,0.0,0.0,0.0,0.0,0.0,0.0,1.2481,1.2413,1.2467,1.2501,1.2501,1.2501,1.2467,1.2386,1.2101,1.1904,1.1837,1.1694,1.1619,1.1619,1.1619,1.1619,1.1619,1.1619,1.1857,1.2311,1.2311,1.2223,1.2054,1.1925,1.1606,1.122,1.1023,1.0873,1.0717,1.0717,1.0717,1.0717,1.0717,1.0717,1.0717,1.0717,1.0717,1.0717,1.0717,1.0717,1.0717,1.0717,0.0,0.0,0.0,1.0758,1.0975,1.1246,1.145,1.1714,1.2271,1.2237,1.2142,1.2433,1.2393,1.2332,1.2474,1.2501,1.2501,1.2501,1.2501,1.2501,1.2501,1.225,1.2135,1.2135,1.1809,1.1619,1.1619,1.1619,1.1763,1.2259,1.2896,1.3611,1.4466,1.5106,1.6866,1.9947,2.0086,2.1195,2.3611,2.3884,2.3884,2.3679,2.3884,2.4088,2.4292,2.4428,2.4713,2.5119,2.5119,2.3447,2.065,2.1213,1.9264,1.5613,1.6188,1.5771,1.4866,1.4866,1.4866,1.4866,1.4866,1.4866,1.4866,0.0,0.0,0.0,0.0,0.0,0.0,0.0,0.0,0.0,0.0,0.0,1.2488,1.2454,0.0,0.0,0.0,1.2447,1.2372,1.2189,1.1959,1.1816,1.1775,1.1674,1.1619,1.1619,1.1619,1.1619,1.1619,1.1619,1.1884,1.2393,1.2467,1.2366,1.2121,1.2155,1.1789,1.1328,1.1212,1.1036,1.0833,1.0833,1.0785,1.0717,1.0717,1.0717,1.0717,1.0717,1.0717,1.0717,1.0717,1.0717,1.0717,1.0717,1.0717,0.0,0.0,0.0,1.0833,1.1362,1.145,1.1545,1.2176,1.2162,1.2074,1.2332,1.2311,1.2271,1.242,1.2474,1.2501,1.2501,1.2501,1.2488,1.2454,1.223,1.2047,1.2006,1.1782,1.1619,1.1619,1.1619,1.1835,1.2474,1.2681,1.3325,1.4608,1.4884,1.6433,1.9738,1.9947,2.0988,2.3201,2.3543,2.3543,2.327,2.3543,2.3884,2.4224,2.4292,2.4578,2.4916,2.5052,2.3624,2.1102,2.1921,1.9934,1.6215,1.6915,1.6302,1.4866,1.4866,1.4866,1.4866,1.4866,1.4866,1.4866,0.0,0.0,0.0,0.0,0.0,0.0,0.0,0.0,0.0,0.0,0.0,1.2447,1.2318,1.242,1.2447,1.2311,1.2298,1.2176,1.1877,1.1837,1.1769,1.164,1.1619,0.0,1.1619,1.1619,1.1619,1.1619,1.1619,1.1775,1.2162,1.2372,1.242,1.2271,1.2128,1.1965,1.1769,1.1341,1.122,1.1138,1.1138,1.0968,1.0717,1.0717,1.0717,1.0717,1.0717,1.0717,1.0717,1.0717,1.0717,1.0717,1.0717,1.0717,1.0717,0.0,0.0,0.0,1.1104,1.1287,1.1463,1.1789,1.1857,1.1884,1.2047,1.2155,1.2115,1.2271,1.2406,1.2501,1.2501,1.2501,1.2461,1.2325,1.2169,1.2013,1.1864,1.1714,1.1619,1.1619,1.1619,1.1619,1.1691,1.233,1.3111,1.3904,1.4608,1.6301,1.939,1.9529,2.0572,2.2859,2.2928,2.2928,2.2928,2.2928,2.3133,2.3475,2.3816,2.4224,2.4578,2.4916,2.4054,2.2324,2.2098,2.0377,1.7669,1.7195,1.6159,1.4866,1.4866,1.4866,1.4866,1.4866,1.4866,1.4866,0.0,0.0,0.0,0.0,0.0,0.0,0.0,0.0,0.0,0.0,0.0,0.0,0.0,1.2393,1.2345,1.2298,1.2108,1.1952,1.1837,1.1748,1.1674,1.1619,1.1619,1.1619,1.1619,1.1619,1.1619,1.1619,1.1619,1.1769,1.206,1.2169,1.2189,1.2155,1.2565,1.223,1.1558,1.1687,1.1409,1.0914,1.1301,1.1158,1.0744,1.0928,1.0948,1.0786,1.0758,1.0785,1.0853,1.0751,1.0717,1.0717,1.0717,1.0717,1.0717,1.0717,1.0717,1.0785,1.1084,1.1138,1.1226,1.1708,1.1687,1.164,1.1986,1.2135,1.2081,1.2135,1.2332,1.2474,1.2386,1.244,1.2454,1.2311,1.2162,1.2006,1.185,1.1708,1.1619,1.1619,1.1619,1.1619,1.1619,1.1828,1.2545,1.3833,1.3895,1.5529,1.9309,1.9233,2.0291,2.2846,2.2928,2.2928,2.2928,2.2928,2.3065,2.3406,2.3816,2.417,2.4495,2.4916,2.4607,2.3795,2.3285,2.0925,1.7509,1.7835,1.6732,1.4866,1.4866,1.4866,1.4866,1.4866,1.4866,1.4866,0.0,0.0,0.0,0.0,0.0,1.2501,1.2501,1.2501,1.2501,1.2501,0.0,0.0,0.0,0.0,1.2196,1.2142,1.1904,1.1762,1.1762,1.1674,1.1619,1.1619,1.1619,1.1619,1.1619,1.1619,1.1619,1.1619,1.1619,1.1721,1.1918,1.2013,1.2006,1.1932,1.2433,1.2271,1.164,1.1932,1.1714,1.1199,1.1497,1.1348,1.0955,1.1056,1.1029,1.0873,1.0887,1.09,1.0873,1.0887,1.0867,1.086,1.0812,1.0765,1.0717,1.0717,1.0717,1.0765,1.0962,1.1016,1.1118,1.1511,1.1538,1.1545,1.1843,1.1993,1.2135,1.2135,1.2298,1.2461,1.2318,1.2366,1.2386,1.2237,1.2088,1.1932,1.1782,1.1681,1.1619,1.1619,1.1619,1.1619,1.1619,1.1619,1.2259,1.3761,1.3685,1.5241,1.9309,1.9278,2.0279,2.2846,2.2928,2.2928,2.2928,2.2928,2.2996,2.327,2.3611,2.3952,2.436,2.4713,2.4684,2.4261,2.3651,2.1398,1.8048,1.8383,1.7055,1.4866,1.4866,1.4866,1.4866,1.4866,1.48,1.4735,0.0,0.0,1.2501,1.2501,1.2501,1.2501,1.2501,1.2501,1.2501,1.2494,0.0,0.0,0.0,0.0,0.0,1.1837,1.1701,1.1619,1.1619,1.1619,1.1619,1.1619,1.1619,1.1619,1.1619,1.1619,1.1619,1.1619,1.1619,1.1619,1.1626,1.1911,1.1884,1.1619,1.1911,1.2115,1.204,1.2054,1.2047,1.1999,1.1742,1.1531,1.1335,1.107,1.0887,1.0887,1.1111,1.1077,1.0907,1.1124,1.1241,1.1138,1.0989,1.0772,1.0717,1.0717,1.0724,1.0724,0.0,0.0,0.0,1.1234,1.1389,1.1613,1.1619,1.1843,1.2054,1.2121,1.2284,1.2447,1.2305,1.2277,1.223,1.2081,1.1932,1.1782,1.164,1.1619,1.1619,1.1619,1.1619,1.1619,1.1619,1.1619,1.2259,1.3761,1.3888,1.5513,1.932,1.9529,2.0641,2.2859,2.2928,2.2928,2.2928,2.2928,2.2928,2.2928,2.327,2.3611,2.3952,2.4292,2.4152,2.3565,2.3224,2.1725,1.941,1.877,1.7055,1.4866,1.4866,1.4866,1.4866,1.4866,1.467,1.4408,0.0,1.2501,1.2501,1.2501,1.2501,1.2501,1.2501,1.2501,1.2467,0.0,0.0,0.0,1.2135,1.1986,1.1837,1.1687,1.164,1.1619,1.1619,1.1619,1.1619,1.1619,1.1619,1.1619,1.1619,1.1619,1.1619,1.1619,1.1619,1.1619,1.1619,1.1592,1.1477,1.1301,1.1491,1.1518,1.1507,1.1877,1.1687,1.1151,1.183,1.1558,1.0792,1.1253,1.1097,1.0683,1.1158,1.1233,1.1145,1.1402,1.1348,1.1118,1.086,1.0751,1.0717,1.0717,1.0799,1.0793,1.0751,0.0,0.0,0.0,0.0,0.0,1.1592,1.1762,1.1864,1.1762,1.1979,1.2135,1.1986,1.1959,1.1945,1.1904,1.1857,1.1782,1.164,1.1619,1.1619,1.1619,1.1619,1.1619,1.1619,1.1619,1.2259,1.3761,1.366,1.5214,1.9298,2.1057,2.2242,2.2859,2.2928,2.2928,2.2928,2.2928,2.2928,2.2928,2.327,2.3475,2.3597,2.3728,2.3539,2.3145,2.2609,2.1032,1.8758,1.8314,1.6872,1.4866,1.4866,1.4866,1.4866,1.4866,1.467,1.4408,1.2474,1.2501,1.2501,1.2501,1.2454,1.2413,1.2413,1.2359,1.2291,0.0,0.0,0.0,1.1891,1.1796,1.1708,1.1626,1.1619,1.1619,1.1619,1.1619,1.1619,1.1619,1.1619,1.1619,1.1619,1.1619,1.1619,1.1619,1.1619,1.1619,1.1613,1.1463,1.1307,1.1234,1.1192,1.1118,1.1009,1.1484,1.1531,1.1321,1.1816,1.1667,1.1185,1.1565,1.1396,1.1023,1.1497,1.1572,1.1477,1.1721,1.1558,1.1246,1.1199,1.1016,1.0839,1.0962,1.0975,1.086,1.0772,1.0989,1.1234,1.1234,0.0,0.0,1.1518,1.1681,1.1789,1.1647,1.1857,1.1999,1.1782,1.1742,1.1721,1.166,1.1647,1.164,1.1619,1.1619,1.1619,1.1619,1.1619,1.1619,1.1619,1.1619,1.2115,1.3325,1.3498,1.5277,1.9309,2.1057,2.2229,2.2859,2.2928,2.2928,2.2928,2.2928,2.2928,2.2928,2.3133,2.327,2.3393,2.3294,2.3123,2.2752,2.2318,2.0927,1.8932,1.8291,1.6807,1.4866,1.4866,1.4866,1.4866,1.4866,1.4604,1.4202,0.0,1.2454,1.2454,1.2454,1.2345,1.2264,1.2264,1.2149,1.2054,0.0,1.1904,1.1755,1.1633,1.1619,1.1619,1.1619,1.1619,1.1619,1.1619,1.1619,1.1619,1.1619,1.1619,1.1619,1.1619,1.1619,1.1619,1.1619,1.1619,1.1613,1.1592,1.1436,1.128,1.1131,1.0989,1.0779,1.0738,1.1002,1.1514,1.2019,1.1714,1.1755,1.2026,1.1864,1.1721,1.1613,1.1965,1.1979,1.1857,1.2013,1.1796,1.1504,1.1714,1.1423,1.0975,1.1294,1.1179,1.09,1.09,1.1077,1.1185,1.1185,1.1402,0.0,1.145,1.1619,1.1769,1.1647,1.183,1.1925,1.1647,1.1592,1.1545,1.1389,1.1369,1.1416,1.1572,1.1606,1.1613,1.1599,1.1606,1.1619,1.1619,1.1619,1.19,1.2753,1.3611,1.5735,1.9251,2.0144,2.1321,2.2859,2.2928,2.2928,2.2928,2.2928,2.2928,2.2928,2.2928,2.3051,2.327,2.2983,2.275,2.2435,2.2148,2.1157,1.9571,1.8612,1.7001,1.5062,1.4931,1.4866,1.4866,1.4866,1.4473,1.3875,1.2135,1.2149,1.2149,1.2149,1.2128,1.2108,1.2108,1.2155,1.202,1.1891,1.1748,1.1647,1.1619,1.1619,1.1619,1.1619,1.1619,1.1619,1.1619,1.1619,1.1619,1.1619,1.1619,1.1619,1.1619,1.1619,1.1619,1.1619,1.1619,1.1558,1.143,1.128,1.1131,1.0914,1.0833,1.0751,1.0724,1.0785,1.1009,1.1425,1.1545,1.1504,1.1446,1.1701,1.1592,1.1341,1.2006,1.2067,1.1857,1.2013,1.2006,1.1877,1.1572,1.1396,1.1294,1.1226,1.1165,1.1124,1.1124,1.1233,1.1348,1.1348,1.1484,0.0,1.1586,1.1619,1.1653,1.1626,1.1667,1.1647,1.147,1.1436,1.1389,1.1233,1.1206,1.126,1.1416,1.1545,1.1572,1.145,1.1545,1.1619,1.1619,1.1619,1.19,1.2753,1.46,1.6644,1.896,2.0074,2.1321,2.2859,2.2928,2.2928,2.2928,2.2928,2.2928,2.2928,2.2928,2.2807,2.2566,2.2338,2.2173,2.2134,2.1833,2.1022,2.0017,1.9763,1.8279,1.6084,1.5257,1.4866,1.4866,1.4866,1.4473,1.3875,1.2047,1.2135,1.2135,1.2135,1.1999,1.1945,1.1945,1.1884,1.1816,1.1735,1.166,1.1619,1.1619,1.1619,1.1619,1.1619,1.1619,1.1619,1.1619,1.1619,1.1619,1.1619,1.1619,1.1619,1.1619,1.1619,1.1619,1.1619,1.1545,1.1463,1.1389,1.1158,1.1016,1.0873,1.0785,1.0717,1.0717,1.0717,1.0853,1.109,1.1251,1.1286,1.1259,1.1473,1.1386,1.1199,1.1851,1.1993,1.1792,1.1642,1.1671,1.1735,1.159,1.1543,1.1504,1.1497,1.1389,1.1274,1.1274,1.1335,1.1389,1.1389,1.1504,0.0,0.0,1.1565,1.1599,1.1518,1.1565,1.1552,1.1321,1.1274,1.1226,1.1084,1.1056,1.1084,1.1158,1.1362,1.1504,1.1504,1.1572,1.1619,1.1619,1.1619,1.1972,1.2968,1.4102,1.5938,1.8821,1.9518,2.0768,2.2859,2.2928,2.2928,2.2928,2.3065,2.3133,2.3133,2.3133,2.3107,2.2941,2.2442,2.2209,2.2116,2.1928,2.1475,2.0843,2.0526,1.924,1.7378,1.6159,1.5378,1.4866,1.4866,1.4473,1.3875,1.1878,1.1824,1.1824,1.1905,1.1724,1.1643,1.1643,1.1549,1.1476,1.1476,1.1476,1.1568,1.1701,1.1653,1.164,1.1701,1.1708,1.1681,1.1619,1.1674,1.1681,1.1619,1.1619,1.1619,1.1619,1.1619,1.1619,1.1619,1.1463,1.1375,1.1341,1.1077,1.0867,1.0833,1.0712,1.0685,1.0806,1.0739,1.084,1.1179,1.1174,1.1233,1.125,1.1378,1.1312,1.1314,1.1753,1.1882,1.1785,1.1268,1.1226,1.1371,1.1536,1.1453,1.1464,1.165,1.1476,1.1325,1.143,1.1416,1.1396,1.143,1.1531,1.1586,0.0,0.0,0.0,1.1463,1.1531,1.1525,1.1219,1.1234,1.1104,1.0934,1.084,1.0847,1.088,1.1158,1.1355,1.1477,1.1511,1.1531,1.1531,1.1558,1.2015,1.3182,1.3253,1.4875,1.8821,1.896,2.0144,2.2791,2.2928,2.2928,2.2928,2.3201,2.3406,2.3406,2.342,2.343,2.3392,2.2821,2.2387,2.2212,2.2216,2.2041,2.174,2.1222,2.0132,1.8728,1.7184,1.5899,1.4866,1.4866,1.467,1.4333,1.1306,1.0866,1.0794,1.1089,1.1076,1.1063,1.1063,1.1057,1.1044,1.1044,1.1044,1.1358,1.1986,1.1775,1.1728,1.1993,1.2013,1.1898,1.164,1.1864,1.1891,1.1633,1.1619,1.1619,1.1619,1.1619,1.1619,1.1619,1.1463,1.1321,1.1185,1.1023,1.0806,1.0678,1.0399,1.0598,1.1111,1.0767,1.1204,1.2059,1.2031,1.179,1.1549,1.1616,1.1848,1.2152,1.1985,1.1882,1.1785,1.1268,1.1137,1.1106,1.1001,1.0922,1.0858,1.1164,1.1044,1.0992,1.1487,1.1497,1.1423,1.1558,1.1606,1.1613,1.1599,0.0,1.1613,1.1599,0.0,1.1525,1.1219,0.0,0.0,1.0792,1.0744,1.0725,1.086,1.0907,1.0934,1.0954,1.1138,1.1212,1.1212,1.1335,1.1967,1.3246,1.3039,1.4662,1.8751,1.867,1.9854,2.2791,2.2928,2.2928,2.2928,2.3201,2.3406,2.3406,2.347,2.3311,2.307,2.2697,2.2582,2.2537,2.2557,2.2543,2.248,2.2418,2.1587,2.0132,1.7818,1.6084,1.4866,1.4866,1.5248,1.5749,1.2108,1.1893,1.1893,1.2043,1.2043,1.2043,1.2043,1.1687,1.1418,1.1332,1.1181,1.1311,1.1742,1.1804,1.1918,1.1911,1.2166,1.2188,1.1759,1.1938,1.2006,1.1884,1.1714,1.1619,1.1619,1.1619,1.1572,1.1491,1.1335,1.1185,1.1036,1.0887,1.0778,1.0717,1.0784,1.1089,1.151,1.1089,1.1264,1.1835,1.1917,1.185,1.1716,1.1561,1.1414,1.1253,1.0845,1.0886,1.1077,1.0492,1.0521,1.0744,1.0542,1.0613,1.0823,1.0809,1.0678,1.0746,1.1168,1.1064,1.096,1.1456,1.1404,1.1332,1.1548,1.1619,1.1619,1.1619,0.0,0.0,0.0,0.0,0.0,0.0,1.0717,1.0744,1.0806,1.0738,1.0751,1.086,1.1077,1.1199,1.1287,1.1199,1.1607,1.2874,1.3091,1.4813,1.8732,1.922,2.056,2.3133,2.3406,2.3406,2.3201,2.3747,2.402,2.402,2.3845,2.3733,2.3616,2.3107,2.2779,2.2606,2.2793,2.2793,2.2606,2.2793,2.209,2.0703,1.8908,1.7302,1.6019,1.5192,1.5378,1.6009,1.3745,1.3031,1.2538,1.261,1.261,1.261,1.261,1.2205,1.1923,1.188,1.175,1.1743,1.2087,1.2182,1.2312,1.2313,1.2656,1.2656,1.2347,1.2381,1.2333,1.2258,1.1823,1.1581,1.1517,1.1548,1.1504,1.1389,1.1199,1.105,1.088,1.0792,1.0651,1.0591,1.0717,1.1089,1.1586,1.1246,1.1528,1.2257,1.2455,1.2459,1.227,1.2026,1.1612,1.125,1.0608,1.0637,1.0839,1.0013,1.0058,1.0301,1.0076,1.0242,1.0476,1.0426,1.0342,1.0383,1.075,1.0678,1.0599,1.1181,1.1188,1.1116,1.1404,1.1548,1.1619,1.1619,1.1514,0.0,0.0,0.0,1.0948,1.0765,0.0,1.0717,1.0717,1.0622,1.0622,1.0806,1.0955,1.107,1.1138,1.1023,1.1375,1.2663,1.303,1.4973,1.882,1.9587,2.1044,2.3475,2.3816,2.3884,2.3543,2.4156,2.4452,2.4367,2.4118,2.3999,2.394,2.3362,2.2961,2.2731,2.2981,2.2981,2.2731,2.2981,2.2543,2.1524,2.0119,1.8972,1.7935,1.6148,1.5954,1.6592,1.6291,1.3666,1.1743,1.218,1.2252,1.2252,1.2252,1.2143,1.2263,1.2628,1.2628,1.2907,1.3538,1.3155,1.3029,1.3608,1.3667,1.3667,1.3744,1.3351,1.2951,1.2488,1.1932,1.1537,1.1444,1.1404,1.1396,1.1389,1.1097,1.0887,1.088,1.0792,1.0518,1.0193,0.9861,1.028,1.1255,1.1186,1.2205,1.3788,1.4129,1.403,1.3623,1.3474,1.329,1.2888,1.2108,1.1876,1.1624,1.0256,0.984,0.0,0.9704,0.9659,0.9639,0.9996,1.005,1.0023,1.0383,1.0527,1.0527,1.0527,1.075,1.0972,1.1044,1.1332,1.1619,1.1619,1.1219,1.0997,1.1192,1.077,1.0489,1.0678,1.0717,0.0,0.0,1.0717,1.0663,1.0521,1.0643,1.0677,1.0534,1.0778,1.1418,1.2716,1.2895,1.4787,1.9166,1.9438,2.0894,2.3884,2.3952,2.3952,2.3966,2.4292,2.4352,2.4037,2.405,2.3925,2.3603,2.3267,2.312,2.3106,2.3106,2.3106,2.3106,2.3106,2.3043,2.2918,2.1587,2.1019,2.0626,1.7935,1.7378,1.8162,1.7812,1.6836,1.5495,1.3674,1.3325,1.3325,1.3325,1.2939,1.275,1.3074,1.296,1.3039,1.3619,1.3786,1.3741,1.3569,1.4018,1.4135,1.3598,1.3188,1.3188,1.367,1.2413,1.1733,1.177,1.1471,1.1064,1.0404,1.0308,1.0219,1.013,1.0079,0.9994,0.9861,0.9994,1.0617,1.16,1.1477,1.2212,1.3408,1.3718,1.4037,1.4349,1.3793,1.3231,1.2656,1.2424,1.2269,0.0,1.1638,1.1435,1.1397,1.1244,1.1062,1.1005,1.1055,1.1063,1.1103,0.0,0.0,1.0599,1.1103,1.0743,1.0311,1.0606,1.0966,1.1116,1.0894,1.1142,1.118,1.0588,1.0711,1.0798,1.0432,1.0591,1.0717,0.0,1.0555,1.0337,1.008,1.0181,1.0331,1.048,1.0405,1.0692,1.1641,1.2265,1.4189,1.7874,1.922,2.104,2.3601,2.4362,2.4578,2.4292,2.4497,2.4538,2.4355,2.3948,2.3706,2.3588,2.3252,2.3106,2.3106,2.3106,2.3106,2.3106,2.3106,2.3106,2.2981,2.165,2.1082,2.0879,1.9036,1.8908,1.9877,1.9388,1.9158,1.8379,1.5938,1.5026,1.458,1.4139,1.3678,1.3578,1.4006,1.3809,1.3821,1.4264,1.4441,1.4497,1.4214,1.4551,1.47,1.44,1.367,1.3634,1.4385,1.3085,1.236,1.2456,1.1817,1.1162,1.0556,1.0036,0.9789,0.9802,0.9704,0.9594,0.9522,0.9721,1.0424,1.1439,1.1578,1.2366,1.3455,1.3829,1.4286,1.473,1.4252,1.3761,1.3351,1.3042,1.2965,1.2867,1.2401,1.2271,1.2141,1.1925,1.183,1.1803,1.1647,1.1599,1.1671,1.1893,1.1462,0.0,1.1456,1.1175,1.0743,1.0671,1.0959,1.1109,1.0599,1.0712,1.0766,1.0232,1.0467,1.0538,1.0155,1.0379,1.0622,0.0,1.0351,1.0127,0.9924,1.0039,1.0161,1.0243,1.0181,1.0378,1.0988,1.1909,1.3841,1.7222,1.9047,2.1159,2.3616,2.4648,2.4926,2.454,2.4605,2.4452,2.4218,2.3793,2.353,2.3413,2.3208,2.3106,2.3106,2.3106,2.3106,2.3106,2.3106,2.3106,2.2981,2.2153,2.1839,2.165,2.0246,2.0373,2.1335,2.1086,2.0698,2.0271,1.8798,1.7288,1.5891,1.467,1.4522,1.4775,1.5398,1.5195,1.513,1.548,1.522,1.5147,1.5463,1.5187,1.5277,1.5951,1.4655,1.4176,1.4758,1.3819,1.33,1.334,1.231,1.1766,1.175,1.041,0.9808,0.9914,0.9783,0.9522,0.9117,0.9183,0.9782,1.0825,1.1566,1.2624,1.3985,1.4489,1.4797,1.4935,1.4773,1.4814,1.4891,1.4045,1.3737,1.363,1.2623,1.234,1.2271,1.2065,1.2042,1.2008,1.1928,1.1958,1.1958,1.1958,1.1886,1.1886,1.1886,1.2101,0.0,1.1312,1.1384,1.1456,1.0671,1.0144,0.9847,1.0125,0.9971,0.985,0.9777,1.0214,1.0432,1.029,1.0141,0.9984,0.9977,1.0168,1.0141,0.9849,1.0086,1.0447,1.0754,1.1759,1.3814,1.7222,1.8999,2.124,2.4006,2.4642,2.4885,2.4569,2.451,2.4174,2.3588,2.3574,2.3413,2.3106,2.3106,2.3106,2.3106,2.3106,2.3106,2.3106,2.3106,2.3106,2.3106,2.3106,2.3106,2.2981,2.165,2.1776,2.2606,2.2497,2.2297,2.1816,2.0283,1.9178,1.7939,1.6315,1.6516,1.6402,1.5236,1.526,1.5407,1.5504,1.5666,1.5593,1.5147,1.5268,1.5342,1.5252,1.4532,1.4597,1.5604,1.4363,1.3655,1.3726,1.3015,1.2033,1.0794,1.0347,0.9785,0.9221,0.9508,0.9649,0.9582,1.0047,1.0717,1.1556,1.2267,1.3333,1.4505,1.4505,1.4611,1.4773,1.4724,1.4814,1.4968,1.4737,1.4581,1.4386,1.4111,1.3858,1.3846,1.4899,1.513,1.5221,1.6352,1.6615,1.6615,1.6615,1.6183,1.576,1.576,1.4566,1.3365,0.0,0.0,0.0,1.1384,1.1214,1.0947,1.0355,1.0254,1.0097,0.9728,1.0071,1.0283,1.0127,1.0011,0.9943,0.989,0.9671,0.9603,0.9768,0.989,1.0148,1.0732,1.1537,1.3521,1.7211,0.0,2.0423,2.3992,2.3545,2.3676,2.4554,2.3603,2.3281,2.3588,2.3354,2.3193,2.3106,2.3106,2.3106,2.3106,2.3106,2.3106,2.3106,2.3106,2.3106,2.3106,2.3106,2.3106,2.3043,2.2731,2.2731,2.2918,2.3048,2.2928,2.2654,2.1747,2.1613,2.08,1.8451,1.8441,1.8209,1.6791,1.6573,1.6438,1.5812,1.5926,1.5886,1.5472,1.5342,1.5325,1.5431,1.4719,1.4751,1.5902,1.495,1.438,1.4252,1.3611,1.2721,1.1657,1.0953,1.0468,1.0082,1.0103,1.0114,1.018,1.0518,1.1115,1.1888,1.2827,1.3848,1.47,1.4594,1.4659,0.0,1.4732,1.4814,1.5105,1.5624,1.5757,1.5653,1.5575,1.5865,1.6309,1.7053,1.7228,1.7268,1.817,1.8379,1.8379,1.8379,1.8089,1.7728,1.7728,1.6746,1.5689,1.5406,1.484,1.4211,0.0,1.3571,1.3191,0.0,1.1635,1.107,0.9738,0.9715,0.9862,0.984,1.0022,1.012,1.0032,0.9893,0.9899,1.0025,0.9774,0.9849,1.04,1.1316,1.3156,1.6216,0.0,1.9837,2.2582,2.2865,2.2952,2.2932,2.2602,2.2547,2.2773,2.2722,2.2842,2.3106,2.3106,2.3106,2.3106,2.3106,2.3106,2.3106,2.3106,2.3106,2.3106,2.3106,2.3106,2.3106,2.3106,2.3106,2.3043,2.3048,2.2928,2.2886,2.2966,2.3834,2.3597,2.0944,2.0569,2.0187,1.9021,1.8676,1.8051,1.6751,1.6418,1.6353,1.6303,1.5556,1.5301,1.5934,1.5074,1.4903,1.574,1.5431,1.5098,1.4781,1.4143,1.3604,1.3245,1.2016,1.1495,1.1592,1.1063,1.085,1.085,1.0916,1.1364,1.2149,1.3332,1.4188,1.4708,1.4708,1.4797,1.4919,1.4789,1.4838,1.5165,1.6476,1.6899,1.6852,1.6949,1.7743,1.8659,1.8665,1.8659,1.8729,1.8938,1.9008,1.9008,1.9008,1.9008,1.9008,1.9008,1.8868,1.8519,1.7798,1.7508,1.7157,1.6516,1.6295,1.5812,1.4486,1.3539,1.224,0.9901,0.9401,0.9436,0.9755,1.0035,1.0176,1.0156,1.0277,0.0,1.026,0.9741,0.9623,1.0101,1.121,1.2871,0.0,0.0,1.9337,2.0942,2.2361,2.2418,2.1047,2.1637,2.1886,2.179,2.2033,2.2445,2.3043,2.3106,2.3106,2.3106,2.3106,2.3106,2.3106,2.3106,2.3106,2.3106,2.3106,2.3106,2.3106,2.3106,2.3106,2.3106,2.3048,2.2928,2.3088,2.3598,2.3781,2.4103,2.4441,2.3729,2.2484,2.0583,2.0501,2.0495,1.9964,1.8821,1.8008,1.7756,1.6352,1.5472,1.5601,1.5285,1.5301,1.5756,1.5431,1.5212,1.5147,1.4846,1.4367,1.3578,1.2846,1.2194,1.1586,1.1607,1.1585,1.1644,1.2173,1.2827,1.3568,1.3623,1.4083,1.4708,1.4708,1.4724,1.4765,1.4879,1.4944,1.5165,1.6476,1.6814,1.6866,1.795,1.8365,1.8654,1.9866,2.0213,2.0491,2.1747,2.2091,2.2091,2.2091,2.2091,2.2091,2.2091,2.1183,2.0201,2.0063,1.9077,1.8159,1.8019,1.7448,1.6947,1.6666,0.0,1.2845,1.0599,1.0172,1.0136,1.0199,0.9793,0.9509,0.9391,0.9497,0.9707,1.0006,1.0112,1.035,1.0798,1.1503,1.3321,1.6486,0.0,1.8749,0.0,2.1198,0.0,0.0,0.0,2.1239,2.2434,2.1979,2.2126,2.2668,2.2981,2.3106,2.3106,2.3106,2.3106,2.3106,2.3106,2.3106,2.3106,2.3106,2.3106,2.3106,2.3106,2.3106,2.3106,2.3394,2.3086,2.3021,2.3247,2.3808,2.4409,2.497,2.5101,2.4447,2.2586,2.2453,2.2099,2.1069,2.0359,1.9513,1.8423,1.7429,1.6535,1.578,1.5447,1.5358,1.5626,1.5382,1.5106,1.483,1.4919,1.4726,1.4088,1.3574,1.3182,1.2809,1.2489,1.2312,1.2312,1.2893,1.336,1.3782,1.3969,1.4302,1.4716,1.4806,1.4838,1.4846,1.4935,1.4968,1.5234,1.7243,1.7869,1.8041,1.9393,2.0204,2.0825,2.1609,2.1816,2.1953,2.2654,2.2928,2.2928,2.2928,2.2928,2.2928,2.2928,2.2366,2.1816,2.1816,2.1252,2.0756,2.0756,2.0397,1.9785,1.8531,1.6118,0.0,1.3244,1.2457,1.1934,1.2092,1.1904,1.1446,1.074,1.0811,1.0939,1.1063,1.0993,1.089,1.0881,1.1666,1.3287,1.5903,0.0,1.8374,0.0,0.0,0.0,2.0986,0.0,0.0,2.1628,2.1516,2.1882,2.2606,2.2793,2.2918,2.3106,2.3106,2.3106,2.3106,2.3106,2.3106,2.3106,2.3106,2.3106,2.3106,2.3106,2.3106,2.3106,2.3955,2.3567,2.3273,2.3407,2.4102,2.4716,2.497,2.5692,2.5767,2.4522,2.4375,2.3804,2.243,2.1947,2.1179,1.9624,1.9065,1.8032,1.6313,1.5939,1.5693,1.5342,1.5236,1.4976,1.4554,1.4822,1.483,1.4546,1.4188,1.3977,1.3888,1.3246,1.2954,1.2962,1.3319,1.3604,0.0,0.0,1.4562,1.4773,1.4911,1.4968,1.4968,1.4968,1.4944,1.5244,1.792,1.8902,1.9116,2.0804,2.2064,2.2928,2.2928,2.2928,2.2928,2.2928,2.2928,2.2928,2.2928,2.2928,2.2928,2.2928,2.2928,2.2928,2.2928,2.2928,2.2928,2.2928,2.2928,2.2151,1.9769,1.7485,0.0,0.0,1.4654,1.4011,1.3794,1.3972,1.3699,1.2783,1.2867,1.2966,1.2823,1.2216,1.1673,1.1385,1.2099,1.3376,1.5178,0.0,0.0,0.0,0.0,2.0536,1.9794,0.0,2.0658,2.0903,2.1008,2.1577,2.248,2.2543,2.2793,2.3106,2.3106,2.3106,2.3106,2.3106,2.3106,2.3106,2.3106,2.3106,2.3106,2.3106,2.3106,2.3106,2.4556,2.4516,2.4636,2.517,2.4917,2.4997,2.6066,2.5865,2.5708,2.6083,2.6149,2.607,2.5911,2.4534,2.3293,2.256,2.1477,1.9768,1.6972,1.7468,1.6892,1.4882,1.4919,1.4968,1.4919,1.4952,1.4952,1.4919,1.4554,1.4221,1.3896,1.3506,1.3319,1.3336,0.0,0.0,0.0,1.4408,1.4627,1.4944,1.496,1.4968,1.4968,1.4968,1.4871,1.5077,1.7869,1.8806,1.9102,2.1805,2.2817,2.2928,2.2928,2.2928,2.2928,2.2928,2.2928,2.2928,2.2928,2.2928,2.2928,2.2928,2.2928,2.2928,2.2928,2.2928,2.2928,2.2928,2.2928,2.2216,1.9865,1.9679,1.8698,0.0,1.5443,1.5563,1.4024,1.4442,1.494,1.4968,1.5196,1.5338,1.5442,1.3935,1.3003,1.3169,1.334,1.4175,1.5842,0.0,0.0,2.016,2.0301,2.0617,2.105,2.0264,2.0456,2.1519,2.0971,2.1271,2.2167,2.248,2.2793,2.3106,2.3106,2.3106,2.3106,2.3106,2.3106,2.3106,2.3106,2.3106,2.3106,2.3106,2.3106,2.3106,2.5157,2.4877,2.4716,2.4943,2.509,2.5317,2.5785,2.5959,2.6119,2.636,2.6386,2.6386,2.6386,2.574,2.4844,2.3581,2.2894,2.1592,1.9399,1.8368,1.7486,1.6554,1.5522,1.4968,1.4968,1.4968,1.4968,1.4968,1.4391,1.4042,1.3896,1.3539,0.0,0.0,0.0,1.5812,1.591,1.6151,1.6273,1.6339,1.542,1.5573,1.6415,1.6415,1.6897,1.7803,1.9697,2.0172,2.0344,2.225,2.2928,2.2928,2.2928,2.2928,2.2928,2.2928,2.2928,2.2928,2.2928,2.2928,2.2928,2.2928,2.2928,2.2928,2.2928,2.2928,2.2928,2.2928,2.2928,2.264,2.1734,2.0946,2.0239,1.9354,0.0,1.8396,1.7554,1.7719,1.7695,1.7037,1.6877,1.6861,1.6928,1.5783,1.4885,1.4567,1.3474,1.3633,1.559,0.0,0.0,2.0773,0.0,2.0468,2.1431,2.0537,2.0475,2.1299,2.1056,2.1382,2.2104,2.223,2.2606,2.3106,2.3106,2.3106,2.3106,2.3106,2.3106,2.3106,2.3106,2.3106,2.3106,2.3106,2.3106,2.3106,2.5772,2.5438,2.5157,2.5157,2.5491,2.5718,2.5545,2.6012,2.6333,2.6159,2.6279,2.6386,2.6386,2.6386,2.5832,2.439,2.4186,2.3315,2.1222,1.9846,1.8845,1.8187,1.7026,1.6177,1.5727,1.5727,1.5497,1.4968,1.4464,1.4446,1.4762,0.0,0.0,0.0,1.6186,1.7028,1.7121,1.7793,1.8082,1.8006,1.6864,1.7093,1.8082,1.8082,1.8581,1.9485,2.0848,2.1054,2.1011,2.2444,2.2928,2.2928,2.2928,2.2928,2.2928,2.2928,2.2928,2.2928,2.2928,2.2928,2.2928,2.2928,2.2928,2.2928,2.2928,2.2928,2.2928,2.2928,2.2928,2.2928,2.2928,2.2022,2.1371,2.1784,0.0,2.0619,2.0002,2.0232,2.0172,1.9343,1.8942,1.8769,1.885,1.7596,1.6518,1.5958,1.4251,1.4019,1.5677,0.0,0.0,0.0,0.0,0.0,2.1204,2.0429,2.0441,2.1109,2.1109,2.1425,2.1992,2.2167,2.248,2.2981,2.3043,2.3106,2.3106,2.3106,2.3106,2.3106,2.3106,2.3106,2.3106,2.2981,2.2918,2.2918,2.6373,2.6373,2.6373,2.6373,2.6373,2.6186,2.5598,2.6012,2.6186,2.5598,2.6026,2.6386,2.6386,2.6386,2.6159,2.5495,2.5785,2.4723,2.1908,2.2261,2.166,1.9351,1.9553,1.8981,1.7407,1.7407,1.6568,1.4968,1.496,1.5664,1.6828,0.0,1.5956,1.4514,1.653,1.7398,1.7474,1.9057,1.9736,1.9736,1.9736,1.9736,1.9736,1.9736,1.9521,1.9319,2.0778,2.1017,2.0837,2.2379,2.2928,2.2928,2.2928,2.2928,2.2928,2.2928,2.2928,2.2928,2.2928,2.2928,2.2928,2.2928,2.2928,2.2928,2.2928,2.2928,2.2928,2.2928,2.2928,2.2928,2.2928,2.2859,2.2343,2.0687,0.0,0.0,2.0135,2.1106,2.1991,2.1925,2.1405,2.1166,2.1523,1.9349,1.7753,1.7373,1.6224,1.5854,0.0,0.0,0.0,1.9455,1.9384,0.0,2.0333,1.9991,2.0241,2.1109,2.1109,2.1299,2.1614,2.2292,2.2606,2.2606,2.2981,2.3106,2.3106,2.3106,2.3106,2.3106,2.3106,2.3106,2.3043,2.2731,2.2606,2.2543,2.5277,2.5838,2.6266,2.5865,2.6119,2.6333,2.6132,2.6266,2.6319,2.6132,2.6266,2.6386,2.6386,2.6386,2.6306,2.6132,2.5651,2.5086,2.4357,2.2918,2.1819,2.1293,2.0169,1.9276,1.8754,1.7631,1.6804,1.6277,0.0,0.0,0.0,1.6911,1.7285,1.8101,1.8768,1.9661,2.0714,2.1239,2.1464,2.1314,2.0263,2.0489,2.1464,2.1464,2.1931,2.2636,2.2891,2.2795,2.2514,2.2789,2.2928,2.2928,2.2928,2.2928,2.2928,2.2928,2.2928,2.2928,2.2928,2.2928,2.2928,2.2928,2.2928,2.2928,2.2928,2.2928,2.2928,2.2928,2.2928,2.2928,2.2928,2.2928,2.2629,2.1919,2.2308,0.0,2.1709,2.2004,2.2205,2.2004,2.1643,2.1363,2.1256,2.0365,1.9407,1.8447,1.8655,0.0,0.0,0.0,0.0,0.0,2.0278,0.0,2.1177,2.0476,2.0441,2.1109,2.1109,2.1299,2.1614,2.2292,2.2606,2.2606,2.2918,2.3106,2.3106,2.3106,2.3106,2.3106,2.2856,2.2731,2.2731,2.2355,2.223,2.223,2.5371,2.5879,2.6266,2.5905,2.6146,2.6319,2.6092,2.6253,2.6306,2.6092,2.6253,2.6386,2.6386,2.6386,2.6386,2.6386,2.5785,2.5491,2.5665,2.4044,2.3103,2.3279,2.204,2.1082,2.0489,1.9436,0.0,1.8016,1.7579,1.7595,1.804,1.8622,1.9223,1.9811,2.0414,2.1239,2.2223,2.2819,2.3129,2.298,2.1999,2.2223,2.3129,2.3129,2.3555,2.4168,2.3875,2.3581,2.3287,2.2966,2.2928,2.2928,2.2928,2.2928,2.2928,2.2928,2.2928,2.2928,2.2928,2.2928,2.2928,2.2928,2.2928,2.2928,2.2928,2.2928,2.2928,2.2928,2.2928,2.2928,2.2928,2.2928,2.2806,2.2619,2.2739,2.2792,2.2605,2.2485,2.2311,2.2017,2.163,2.1309,0.0,2.0842,2.0301,1.9389,1.9734,0.0,0.0,0.0,0.0,2.0763,2.0288,0.0,2.1086,2.0475,2.0521,2.1109,2.1109,2.1235,2.1425,2.1978,2.2292,2.2418,2.2793,2.2981,2.3106,2.3106,2.3043,2.2918,2.2668,2.2543,2.2355,2.2055,2.1929,2.1915,2.6279,2.6333,2.6373,2.6333,2.636,2.6213,2.5665,2.6039,2.6186,2.5638,2.6052,2.6386,2.6386,2.6386,2.6386,2.6386,0.0,0.0,2.6037,2.5384,2.5064,2.5077,2.4783,2.3857,2.2347,2.2198,2.1377,1.9811,2.1389,2.1389,1.9962,2.1464,2.1475,2.0188,2.155,2.2297,2.2446,2.3957,2.4636,2.4636,2.4636,2.4636,2.4636,2.4636,2.4476,2.4195,2.3888,2.3594,2.33,2.2979,2.2928,2.2928,2.2928,2.2928,2.2928,2.2928,2.2928,2.2928,2.2928,2.2928,2.2928,2.2928,2.2928,2.2928,2.2928,2.2928,2.2928,2.2928,2.2928,2.2928,2.2928,2.2928,2.2928,2.2928,2.2928,2.2928,2.2901,2.2592,2.2298,2.1964,0.0,0.0,2.1082,2.0855,2.0588,0.0,1.976,0.0,0.0,0.0,2.0101,1.9551,1.9746,2.0027,2.0233,2.0233,2.0561,2.1109,2.1109,2.1109,2.1109,2.1425,2.1803,2.2104,2.2418,2.2793,2.3106,2.3043,2.2856,2.2606,2.2543,2.2355,2.2041,2.1664,2.1551,2.1551,2.5144,2.5772,2.6253,2.5798,2.6092,2.6346,2.6199,2.6306,2.6333,2.6199,2.6306,2.6386,2.6386,2.6386,2.6386,2.6386,2.5919,2.5718,2.5945,2.5197,2.4836,2.5064,2.4583,2.4083,2.3705,2.2521,2.1203,1.9811,2.1389,2.1999,2.1613,2.1999,2.267,2.3426,2.2595,2.2905,2.4031,2.4414,2.4636,2.4636,2.4636,2.4636,2.4636,2.4636,2.4596,2.4462,2.3955,2.3728,2.3581,2.3115,2.2928,2.2928,2.2928,2.2928,2.2928,2.2928,2.2928,2.2928,2.2928,2.2928,2.2928,2.2928,2.2928,2.2928,2.2928,2.2928,2.2928,2.2928,2.2928,2.2928,2.2928,2.2928,2.2928,2.2928,2.2928,2.2779,2.2552,2.2458,2.2151,0.0,2.139,2.1269,2.0815,2.0922,2.0882,0.0,0.0,2.0428,2.0561,2.0631,2.0658,2.0695,2.0762,2.0828,2.0895,2.0895,2.0975,2.1109,2.1109,2.1109,2.1109,2.1425,2.1803,2.2104,2.2418,2.2793,2.3106,2.2793,2.2668,2.2543,2.2055,2.179,2.1677,2.1362,2.1235,2.1235,2.5504,2.5945,2.6293,2.5972,2.6172,2.6386,2.6386,2.6386,2.6386,2.6386,2.6386,2.6386,2.6386,2.6386,2.6386,2.6386,2.6092,2.5985,2.6146,2.5585,2.5251,2.5277,2.485,2.4543,2.4409,2.3503,2.2756,2.1999,2.2893,2.3277,2.3277,2.3277,2.3735,2.4562,2.3661,2.3809,2.4636,2.4636,2.4636,2.4636,2.4636,2.4636,2.4636,2.4636,2.4636,2.4556,2.3981,2.3768,2.3674,2.3073,2.2928,2.2928,2.2928,2.2928,2.2928,2.2928,2.2928,2.2928,2.2928,2.2928,2.2928,2.2928,2.2928,2.2928,2.2928,2.2928,2.2928,2.2928,2.2928,2.2928,2.2928,2.2928,2.2928,2.2928,2.2752,2.2605,2.2445,2.2191,2.1844,2.1363,2.1336,2.1229,2.0909,2.1015,2.1042,2.0882,2.0628,0.0,2.0855,2.0615,2.0668,2.1096,2.1109,2.1109,2.1109,2.1109,2.1109,2.1109,2.1109,2.1109,2.1109,2.1299,2.1677,2.2104,2.2292,2.2543,2.2856,2.2668,2.2418,2.2104,2.1727,2.1488,2.1362,2.1172,2.1109,2.1109,2.6386,2.6386,2.6386,2.6386,2.6386,2.6386,2.6386,2.6386,2.6386,2.6386,2.6386,2.6386,2.6386,2.6386,2.6386,2.6386,2.6386,2.6386,2.6386,2.6119,2.5825,2.5531,2.5237,2.4943,2.4649,2.4636,2.4636,2.4636,2.4636,2.4636,2.4636,2.4636,2.4636,2.4636,2.4636,2.4636,2.4636,2.4636,2.4636,2.4636,2.4636,2.4636,2.4636,2.4636,2.4636,2.4569,2.4035,2.3808,2.3688,2.3126,2.2899,2.2928,2.2928,2.2928,2.2928,2.2928,2.2928,2.2928,2.2928,2.2928,2.2928,2.2928,2.2928,2.2928,2.2928,2.2928,2.2928,2.2928,2.2928,2.2928,2.2928,2.2928,2.2846,2.2806,2.2579,2.2405,2.2365,0.0,2.1668,2.1614,2.1336,2.1162,2.1109,2.1109,2.1109,2.1109,2.0641,2.0588,2.1082,2.0628,2.0588,2.1096,2.1109,2.1109,2.1109,2.1109,2.1109,2.1109,2.1109,2.1109,2.1109,2.1109,2.1488,2.2104,2.2104,2.2292,2.2606,2.2543,2.2167,2.1614,2.1551,2.1362,2.1109,2.1109,2.1109,2.1109,2.6386,2.6386,2.6386,2.6386,2.6386,2.6386,2.6386,2.6386,2.6386,2.6386,2.6386,2.6386,2.6386,2.6386,2.6386,2.6386,2.6386,2.6386,2.6386,2.6119,2.5825,2.5531,2.5237,2.4943,2.4649,2.4636,2.4636,2.4636,2.4636,2.4636,2.4636,2.4636,2.4636,2.4636,2.4636,2.4636,2.4636,2.4636,2.4636,2.4636,2.4636,2.4636,2.4636,2.4636,2.4636,2.4596,2.4262,2.3981,2.3714,2.3367,2.3086,2.2928,2.2928,2.2928,2.2928,2.2928,2.2928,2.2928,2.2928,2.2928,2.2928,2.2928,2.2928,2.2928,2.2928,2.2928,2.2928,2.2928,2.2928,2.2928,2.2928,2.2928,2.2779,2.2525,2.2445,2.2338,2.2084,0.0,2.183,2.1641,2.1574,2.139,2.1136,2.1109,2.1109,2.1109,2.1029,2.1015,2.1109,2.1015,2.1015,2.1109,2.1109,2.1109,2.1109,2.1109,2.1109,2.1109,2.1109,2.1109,2.1109,2.1109,2.1488,2.2104,2.2104,2.2292,2.2606,2.2292,2.1915,2.1551,2.1299,2.1172,2.1109,2.1109,2.1109,2.1109,2.6386,2.6386,2.6386,2.6386,2.6386,2.6386,2.6386,2.6386,2.6386,2.6386,2.6386,2.6386,2.6386,2.6386,2.6386,2.6386,2.6386,2.6386,2.6386,2.6266,2.6066,2.5758,2.5478,2.5104,2.4649,2.4636,2.4636,2.4636,2.4636,2.4636,2.4636,2.4636,2.4636,2.4636,2.4636,2.4636,2.4636,2.4636,2.4636,2.4636,2.4636,2.4636,2.4636,2.4636,2.4636,2.4596,2.4302,2.4022,2.3728,2.342,2.3113,2.2928,2.2928,2.2928,2.2928,2.2928,2.2928,2.2928,2.2928,2.2928,2.2928,2.2928,2.2928,2.2928,2.2928,2.2928,2.2928,2.2928,2.2928,2.2928,2.2928,2.2928,2.2819,2.2686,2.2525,0.0,0.0,2.1951,2.1775,2.1628,2.1416,2.1256,2.1122,2.1109,2.1109,2.1109,2.1109,2.1109,2.1109,2.1109,2.1109,2.1109,2.1109,2.1109,2.1109,2.1109,2.1109,2.1109,2.1109,2.1109,2.1109,2.1109,2.1362,2.1866,2.1866,2.1915,2.2041,2.1915,2.1614,2.1299,2.1172,2.1109,2.1109,2.1109,2.1109,2.1109,2.6386,2.6386,2.6386,2.6386,2.6386,2.6386,2.6386,2.6386,2.6386,2.6386,2.6386,2.6386,2.6386,2.6386,2.6386,2.6386,2.6386,2.6386,2.6386,2.6386,2.6266,2.605,2.5611,2.5197,2.4756,2.4676,2.4636,2.4636,2.4636,2.4636,2.4636,2.4636,2.4636,2.4636,2.4636,2.4636,2.4636,2.4636,2.4636,2.4636,2.4636,2.4636,2.4636,2.4636,2.4636,2.4609,2.4382,2.4115,2.3821,2.3527,2.322,2.2953,2.2954,2.2928,2.2928,2.2928,2.2928,2.2928,2.2928,2.2928,2.2928,2.2928,2.2928,2.2928,2.2928,2.2928,2.2928,2.2928,2.2928,2.2928,2.2928,2.2928,2.2846,2.2766,0.0,0.0,0.0,2.1924,2.1641,2.1708,2.1336,2.1109,2.1109,2.1109,2.1109,2.1109,2.1109,2.1109,2.1109,2.1109,2.1109,2.1109,2.1109,2.1109,2.1109,2.1109,2.1109,2.1109,2.1109,2.1109,2.1109,2.1109,2.1299,2.1614,2.1614,2.1614,2.1614,2.1614,2.1425,2.1109,2.1109,2.1109,2.1109,2.1109,2.1109,2.1109,2.6386,2.6386,2.6386,2.6386,2.6386,2.6386,2.6386,2.6386,2.6386,2.6386,2.6386,2.6386,2.6386,2.6386,2.6386,2.6386,2.6386,2.6386,2.6386,2.6386,2.6266,2.605,2.5411,2.509,2.505,2.4783,2.4636,2.4636,2.4636,2.4636,2.4636,2.4636,2.4636,2.4636,2.4636,2.4636,2.4636,2.4636,2.4636,2.4636,2.4636,2.4636,2.4636,2.4636,2.4636,2.4636,2.4609,2.4422,2.4128,2.3834,2.3541,2.3247,2.2953,2.2928,2.2928,2.2928,2.2928,2.2928,2.2928,2.2928,2.2928,2.2928,2.2928,2.2928,2.2928,2.2928,2.2928,2.2928,2.2928,2.2928,2.2928,2.2928,2.2779,2.2498,0.0,0.0,2.2418,2.1924,2.1722,2.1924,2.1456,2.1109,2.1109,2.1109,2.1109,2.1109,2.1109,2.1109,2.1109,2.1109,2.1109,2.1109,2.1109,2.1109,2.1109,2.1109,2.1109,2.1109,2.1109,2.1109,2.1109,2.1109,2.1299,2.1614,2.1614,2.1614,2.1614,2.1614,2.1425,2.1109,2.1109,2.1109,2.1109,2.1109,2.1109,2.1109,2.6386,2.6386,2.6386,2.6386,2.6386,2.6386,2.6386,2.6386,2.6386,2.6386,2.6386,2.6386,2.6386,2.6386,2.6386,2.6386,2.6386,2.6386,2.6386,2.6386,2.6266,2.605,2.5571,2.5264,2.5077,2.4783,2.4636,2.4636,2.4636,2.4636,2.4636,2.4636,2.4636,2.4636,2.4636,2.4636,2.4636,2.4636,2.4636,2.4636,2.4636,2.4636,2.4636,2.4636,2.4636,2.4636,2.4636,2.4449,2.4182,2.4075,2.3728,2.33,2.3193,2.302,2.2928,2.2928,2.2928,2.2928,2.2928,2.2928,2.2928,2.2928,2.2928,2.2928,2.2928,2.2928,2.2928,2.2928,2.2928,2.2928,2.2928,2.2928,2.2887,2.2712,0.0,2.2699,2.2699,2.2191,2.1857,2.1977,2.147,2.1109,2.1109,2.1109,2.1109,2.1109,2.1109,2.1109,2.1109,2.1109,2.1109,2.1109,2.1109,2.1109,2.1109,2.1109,2.1109,2.1109,2.1109,2.1109,2.1109,2.1109,2.1172,2.1299,2.1299,2.1299,2.1299,2.1299,2.1235,2.1109,2.1109,2.1109,2.1109,2.1109,2.1109,2.1109,2.6386,2.6386,2.6386,2.6386,2.6386,2.6386,2.6386,2.6386,2.6386,2.6386,2.6386,2.6386,2.6386,2.6386,2.6386,2.6386,2.6386,2.6386,2.6386,2.6386,2.6306,2.6106,2.5812,2.5518,2.5224,2.493,2.473,2.4636,2.4636,2.4636,2.4636,2.4636,2.4636,2.4636,2.4636,2.4636,2.4636,2.4636,2.4636,2.4636,2.4636,2.4636,2.4636,2.4636,2.4636,2.4636,2.4636,2.4516,2.4329,2.4235,2.3875,2.3447,2.3354,2.3113,2.2928,2.2928,2.2928,2.2928,2.2928,2.2928,2.2928,2.2928,2.2928,2.2928,2.2928,2.2928,2.2928,2.2928,2.2928,2.2928,2.2928,2.2928,2.2928,2.2928,2.2928,2.2928,2.2928,2.2432,2.2084,2.1991,2.155,2.1216,2.1122,2.1109,2.1109,2.1109,2.1109,2.1109,2.1109,2.1109,2.1109,2.1109,2.1109,2.1109,2.1109,2.1109,2.1109,2.1109,2.1109,2.1109,2.1109,2.1109,2.1109,2.1109,2.1109,2.1109,2.1109,2.1109,2.1109,2.1109,2.1109,2.1109,2.1109,2.1109,2.1109,2.1109,2.6386,2.6386,2.6386,2.6386,2.6386,2.6386,2.6386,2.6386,2.6386,2.6386,2.6386,2.6386,2.6386,2.6386,2.6386,2.6386,2.6386,2.6386,2.6386,2.6386,2.6386,2.6386,2.6106,2.5825,2.5518,2.5224,2.493,2.4562,2.4636,2.4636,2.4636,2.4636,2.4636,2.4636,2.4636,2.4636,2.4636,2.4636,2.4636,2.4636,2.4636,2.4636,2.4636,2.4636,2.4636,2.4636,2.4636,2.4636,2.4596,2.4302,2.4008,2.3728,2.342,2.3113,2.2928,2.2928,2.2928,2.2928,2.2928,2.2928,2.2928,2.2928,2.2928,2.2928,2.2928,2.2928,2.2928,2.2928,2.2928,2.2928,2.2928,2.2928,2.2928,2.2928,2.2928,2.2928,2.2928,2.2605,2.2311,2.2017,2.1724,2.1494,2.1136,2.1109,2.1109,2.1109,2.1109,2.1109,2.1109,2.1109,2.1109,2.1109,2.1109,2.1109,2.1109,2.1109,2.1109,2.1109,2.1109,2.1109,2.1109,2.1109,2.1109,2.1109,2.1109,2.1109,2.1109,2.1109,2.1109,2.1109,2.1109,2.1109,2.1109,2.1109,2.1109,2.1109,2.6386,2.6386,2.6386,2.6386,2.6386,2.6386,2.6386,2.6386,2.6386,2.6386,2.6386,2.6386,2.6386,2.6386,2.6386,2.6386,2.6386,2.6386,2.6386,2.6386,2.6386,2.6386,2.6106,2.5919,2.5825,2.5331,2.5037,2.4943,2.4743,2.4636,2.4636,2.4636,2.4636,2.4636,2.4636,2.4636,2.4636,2.4636,2.4636,2.4636,2.4636,2.4636,2.4636,2.4636,2.4636,2.4636,2.4636,2.4636,2.4623,2.4529,2.4315,2.3981,2.3487,2.326,2.314,2.2926,2.2928,2.2928,2.2928,2.2928,2.2928,2.2928,2.2928,2.2928,2.2928,2.2928,2.2928,2.2928,2.2928,2.2928,2.2928,2.2928,2.2928,2.2928,2.2928,2.2928,2.2928,2.2605,2.2311,2.2017,2.1724,2.1494,2.1136,2.1109,2.1109,2.1109,2.1109,2.1109,2.1109,2.1109,2.1109,2.1109,2.1109,2.1109,2.1109,2.1109,2.1109,2.1109,2.1109,2.1109,2.1109,2.1109,2.1109,2.1109,2.1109,2.1109,2.1109,2.1109,2.1109,2.1109,2.1109,2.1109,2.1109,2.1109,2.1109,2.1109,2.6386,2.6386,2.6386,2.6386,2.6386,2.6386,2.6386,2.6386,2.6386,2.6386,2.6386,2.6386,2.6386,2.6386,2.6386,2.6386,2.6386,2.6386,2.6386,2.6386,2.6386,2.6386,2.6226,2.6079,2.6037,2.5611,2.5317,2.5077,2.4903,2.4756,2.4636,2.4636,2.4636,2.4636,2.4636,2.4636,2.4636,2.4636,2.4636,2.4636,2.4636,2.4636,2.4636,2.4636,2.4636,2.4636,2.4636,2.4636,2.4636,2.4636,2.4449,2.4115,2.3647,2.342,2.3287,2.31,2.2953,2.2928,2.2928,2.2928,2.2928,2.2928,2.2928,2.2928,2.2928,2.2928,2.2928,2.2928,2.2928,2.2928,2.2928,2.2928,2.2928,2.2928,2.2928,2.2928,2.2928,2.2712,2.2485,2.2191,2.1897,2.1603,2.1309,2.1176,2.1109,2.1109,2.1109,2.1109,2.1109,2.1109,2.1109,2.1109,2.1109,2.1109,2.1109,2.1109,2.1109,2.1109,2.1109,2.1109,2.1109,2.1109,2.1109,2.1109,2.1109,2.1109,2.1109,2.1109,2.1109,2.1109,2.1109,2.1109,2.1109,2.1109,2.1109,2.1109,2.6386,2.6386,2.6386,2.6386,2.6386,2.6386,2.6386,2.6386,2.6386,2.6386,2.6386,2.6386,2.6386,2.6386,2.6386,2.6386,2.6386,2.6386,2.6386,2.6386,2.6386,2.6386,2.6386,2.6266,2.6077,2.605,2.5692,2.5157,2.5104,2.4943,2.4676,2.4649,2.4636,2.4636,2.4636,2.4636,2.4636,2.4636,2.4636,2.4636,2.4636,2.4636,2.4636,2.4636,2.4636,2.4636,2.4636,2.4636,2.4636,2.4636,2.4462,2.4195,2.3901,2.3621,2.3394,2.334,2.3126,2.2899,2.2941,2.2928,2.2928,2.2928,2.2928,2.2928,2.2928,2.2928,2.2928,2.2928,2.2928,2.2928,2.2928,2.2928,2.2928,2.2928,2.2928,2.2928,2.2928,2.2928,2.2752,2.2458,2.2164,2.1871,2.1641,2.1283,2.1109,2.1109,2.1109,2.1109,2.1109,2.1109,2.1109,2.1109,2.1109,2.1109,2.1109,2.1109,2.1109,2.1109,2.1109,2.1109,2.1109,2.1109,2.1109,2.1109,2.1109,2.1109,2.1109,2.1109,2.1109,2.1109,2.1109,2.1109,2.1109,2.1109,2.1109,2.1109,2.6386,2.6386,2.6386,2.6386,2.6386,2.6386,2.6386,2.6386,2.6386,2.6386,2.6386,2.6386,2.6386,2.6386,2.6386,2.6386,2.6386,2.6386,2.6386,2.6386,2.6386,2.6386,2.6386,2.636,2.6293,2.6079,2.597,2.5772,2.5304,2.505,2.4983,2.4743,2.4636,2.4636,2.4636,2.4636,2.4636,2.4636,2.4636,2.4636,2.4636,2.4636,2.4636,2.4636,2.4636,2.4636,2.4636,2.4636,2.4636,2.4636,2.4596,2.4489,2.4195,2.4062,2.3928,2.346,2.3287,2.318,2.2926,2.2928,2.2928,2.2928,2.2928,2.2928,2.2928,2.2928,2.2928,2.2928,2.2928,2.2928,2.2928,2.2928,2.2928,2.2928,2.2928,2.2928,2.2928,2.2928,2.2752,2.2458,2.2164,2.1871,2.1641,2.1283,2.1109,2.1109,2.1109,2.1109,2.1109,2.1109,2.1109,2.1109,2.1109,2.1109,2.1109,2.1109,2.1109,2.1109,2.1109,2.1109,2.1109,2.1109,2.1109,2.1109,2.1109,2.1109,2.1109,2.1109,2.1109,2.1109,2.1109,2.1109,2.1109,2.1109,2.1109,2.1109,2.6386,2.6386,2.6386,2.6386,2.6386,2.6386,2.6386,2.6386,2.6386,2.6386,2.6386,2.6386,2.6386,2.6386,2.6386,2.6386,2.6386,2.6386,2.6386,2.6386,2.6386,2.6386,2.6386,2.6386,2.6386,2.6239,2.6092,2.6037,2.5651,2.5424,2.5277,2.4983,2.485,2.4836,2.4703,2.4636,2.4636,2.4636,2.4636,2.4636,2.4636,2.4636,2.4636,2.4636,2.4636,2.4636,2.4636,2.4636,2.4636,2.4636,2.4636,2.4609,2.4462,2.4315,2.4142,2.3834,2.3541,2.3287,2.3126,2.2979,2.2928,2.2928,2.2928,2.2928,2.2928,2.2928,2.2928,2.2928,2.2928,2.2928,2.2928,2.2928,2.2928,2.2928,2.2928,2.2928,2.2928,2.2928,2.2806,2.2645,2.2365,2.2031,2.1655,2.1283,2.1109,2.1109,2.1109,2.1109,2.1109,2.1109,2.1109,2.1109,2.1109,2.1109,2.1109,2.1109,2.1109,2.1109,2.1109,2.1109,2.1109,2.1109,2.1109,2.1109,2.1109,2.1109,2.1109,2.1109,2.1109,2.1109,2.1109,2.1109,2.1109,2.1109,2.1109,2.1109,2.6386,2.6386,2.6386,2.6386,2.6386,2.6386,2.6386,2.6386,2.6386,2.6386,2.6386,2.6386,2.6386,2.6386,2.6386,2.6386,2.6386,2.6386,2.6386,2.6386,2.6386,2.6386,2.6386,2.6386,2.6386,2.6386,2.6266,2.6039,2.5985,2.5825,2.5585,2.5291,2.513,2.5064,2.4823,2.469,2.4636,2.4636,2.4636,2.4636,2.4636,2.4636,2.4636,2.4636,2.4636,2.4636,2.4636,2.4636,2.4636,2.4636,2.4636,2.4636,2.4636,2.4476,2.4262,2.4222,2.3861,2.346,2.3354,2.314,2.2926,2.2873,2.2928,2.2928,2.2928,2.2928,2.2928,2.2928,2.2928,2.2928,2.2928,2.2928,2.2928,2.2928,2.2928,2.2928,2.2928,2.2928,2.2928,2.2928,2.2605,2.2205,2.1748,2.1363,2.1189,2.1189,2.1136,2.1109,2.1109,2.1109,2.1109,2.1109,2.1109,2.1109,2.1109,2.1109,2.1109,2.1109,2.1109,2.1109,2.1109,2.1109,2.1109,2.1109,2.1109,2.1109,2.1109,2.1109,2.1109,2.1109,2.1109,2.1109,2.1109,2.1109,2.1109,2.1109,2.6386,2.6386,2.6386,2.6386,2.6386,2.6386,2.6386,2.6386,2.6386,2.6386,2.6386,2.6386,2.6386,2.6386,2.6386,2.6386,2.6386,2.6386,2.6386,2.6386,2.6386,2.6386,2.6386,2.6386,2.6386,2.6386,2.6373,2.6333,2.6079,2.601,2.597,2.5598,2.5317,2.5077,2.5037,2.4877,2.4636,2.4636,2.4636,2.4636,2.4636,2.4636,2.4636,2.4636,2.4636,2.4636,2.4636,2.4636,2.4636,2.4636,2.4636,2.4636,2.4636,2.4609,2.4529,2.4275,2.4142,2.3968,2.346,2.33,2.3193,2.2926,2.2928,2.2928,2.2928,2.2928,2.2928,2.2928,2.2928,2.2928,2.2928,2.2928,2.2928,2.2928,2.2928,2.2928,2.2928,2.2928,2.2928,2.2928,2.2605,2.2285,2.1964,2.1735,2.1561,2.1561,2.1256,2.1109,2.1109,2.1109,2.1109,2.1109,2.1109,2.1109,2.1109,2.1109,2.1109,2.1109,2.1109,2.1109,2.1109,2.1109,2.1109,2.1109,2.1109,2.1109,2.1109,2.1109,2.1109,2.1109,2.1109,2.1109,2.1109,2.1109,2.1109,2.1109,2.6386,2.6386,2.6386,2.6386,2.6386,2.6386,2.6386,2.6386,2.6386,2.6386,2.6386,2.6386,2.6386,2.6386,2.6386,2.6386,2.6386,2.6386,2.6386,2.6386,2.6386,2.6386,2.6386,2.6386,2.6386,2.6386,2.6386,2.6386,2.6266,2.6199,2.6186,2.5905,2.5692,2.5558,2.5398,2.5157,2.489,2.489,2.4783,2.4636,2.4636,2.4636,2.4636,2.4636,2.4636,2.4636,2.4636,2.4636,2.4636,2.4636,2.4636,2.4636,2.4636,2.4636,2.4609,2.4476,2.4329,2.4142,2.3888,2.3581,2.33,2.3153,2.2993,2.2928,2.2928,2.2928,2.2928,2.2928,2.2928,2.2928,2.2928,2.2928,2.2928,2.2928,2.2928,2.2928,2.2928,2.2928,2.2928,2.2928,2.2605,2.2365,2.2231,2.1964,2.1789,2.1628,2.143,2.1283,2.1122,2.1109,2.1109,2.1109,2.1109,2.1109,2.1109,2.1109,2.1109,2.1109,2.1109,2.1109,2.1109,2.1109,2.1109,2.1109,2.1109,2.1109,2.1109,2.1109,2.1109,2.1109,2.1109,2.1109,2.1109,2.1109,2.1109,2.1109]}]]